Darstellungsparameter: Aktuell verwendete Einstellungen:
Skalierung der Graphiken ... ?
xyx+y,   Skalierungsfaktor:      Skalierung: Modus: x, Faktor: 1
Darstellungszeitraum ... ?
Vom - - bis: - -   Zeitraum: 12.12.2013 - 11.06.2014
Min/Max/Avg-Anzeige ... ?
Zeige MMA aktuell
Zeige MMA Monat
Zeige MMA alles
Zeige --A aktuell
Zeige --A Monat
Zeige --A alles
Keine MMA-Anzeige
MMA:
Keine MMA-Graphiken
MMA-Basis: 12.12.2013 - 11.06.2014
Quicknavigation für Darstellung... ?
Tage:      1T, 2T, 3T, 5T -1T -2T -3T -5T +1T +2T +3T +5T
Wochen: 1W, 2W, 3W -1W -2W -3W +1W +2W +3W
Monate: 1M, 3M, 6M -1M -3M -6M +1M +3M +6M
Jahre:    1J, 3J, 5J, 10J -1J -3J -5J -10J +1J +3J +5J +10J
Nutze für die Darstellung ... ?
Originaldaten oder ...
Mittelwerte Minima Maxima auf...
Stundenbasis Tagesbasis Wochenbasis
Monatsbasis Jahresbasis      Datenbasis: Mittelwerte auf Stundenbasis
Darstellen als:
Statistik (Auto) Statistik J:M      Darstellung:
Zur Graphik,    zurück zur Übersicht aller Sensoren.
 
Tabellarische Datenbersicht: ?
 
Sensor: Nr:Datum:Temp:Abs-Feuchte:Windchill:Wind:
Aussen-T/F 1 12-12-2013 00:00:00 4.45833 C 6.16 g/m*3 4.46 C 1.46667 km/h
2 12-12-2013 01:00:00 4.325 C 6.11 g/m*3 4.33 C 2.93333 km/h
3 12-12-2013 02:00:00 4.25833 C 6.08 g/m*3 4.26 C 1.73333 km/h
4 12-12-2013 03:00:00 4.29167 C 6.12 g/m*3 4.29 C 0.13333 km/h
5 12-12-2013 04:00:00 4.3 C 6.1 g/m*3 4.3 C 1.73333 km/h
6 12-12-2013 05:00:00 4.26667 C 6.08 g/m*3 4.27 C 1.20833 km/h
7 12-12-2013 06:00:00 4.14167 C 6.03 g/m*3 4.14 C 3.075 km/h
8 12-12-2013 07:00:00 4.025 C 5.93 g/m*3 4.03 C 3.2 km/h
9 12-12-2013 08:00:00 3.85 C 5.83 g/m*3 3.85 C 2.66667 km/h
10 12-12-2013 09:00:00 3.91667 C 5.81 g/m*3 3.92 C 4.53333 km/h
11 12-12-2013 10:00:00 4.11667 C 5.79 g/m*3 4.12 C 3.33333 km/h
12 12-12-2013 11:00:00 4.26667 C 5.82 g/m*3 4.27 C 4.26667 km/h
13 12-12-2013 12:00:00 4.6 C 5.95 g/m*3 4.6 C 3.2 km/h
14 12-12-2013 13:00:00 4.78333 C 5.99 g/m*3 3.66 C 5.475 km/h
15 12-12-2013 14:00:00 4.99167 C 6.07 g/m*3 4.99 C 2.26667 km/h
16 12-12-2013 15:00:00 4.74167 C 5.97 g/m*3 4.74 C 3.73333 km/h
17 12-12-2013 16:00:00 3.84167 C 5.76 g/m*3 3.84 C 4.4 km/h
18 12-12-2013 17:00:00 3.6 C 5.69 g/m*3 3.6 C 2.8 km/h
19 12-12-2013 18:00:00 3.6 C 5.69 g/m*3 3.6 C 0.66667 km/h
20 12-12-2013 19:00:00 3.54167 C 5.67 g/m*3 3.54 C 0.4 km/h
21 12-12-2013 20:00:00 3.525 C 5.73 g/m*3 3.53 C 0 km/h
22 12-12-2013 21:00:00 3.60833 C 5.76 g/m*3 3.61 C 0 km/h
23 12-12-2013 22:00:00 3.6 C 5.76 g/m*3 3.6 C 0 km/h
24 12-12-2013 23:00:00 3.50833 C 5.67 g/m*3 3.51 C 0.66667 km/h
25 13-12-2013 00:00:00 3.325 C 5.5 g/m*3 3.33 C 4.01667 km/h
Sensor: Nr:Datum:Temp:Abs-Feuchte:Windchill:Wind:
Aussen-T/F 26 13-12-2013 01:00:00 2.99167 C 5.34 g/m*3 1.46 C 5.86667 km/h
27 13-12-2013 02:00:00 2.55 C 5.27 g/m*3 0.66 C 6.70833 km/h
28 13-12-2013 03:00:00 2.4 C 5.25 g/m*3 0.27 C 7.38333 km/h
29 13-12-2013 04:00:00 2.4 C 5.25 g/m*3 0.58 C 6.41667 km/h
30 13-12-2013 05:00:00 2.31667 C 5.21 g/m*3 0.05 C 7.78333 km/h
31 13-12-2013 06:00:00 2.3 C 5.18 g/m*3 0.07 C 7.65 km/h
32 13-12-2013 07:00:00 2.11667 C 5.15 g/m*3 -0.39 C 8.48333 km/h
33 13-12-2013 08:00:00 2.075 C 5.14 g/m*3 0.25 C 6.3 km/h
34 13-12-2013 09:00:00 2.05 C 5.12 g/m*3 0.59 C 5.35 km/h
35 13-12-2013 10:00:00 2.275 C 5.16 g/m*3 0.29 C 6.84167 km/h
36 13-12-2013 11:00:00 2.625 C 5.25 g/m*3 0.44 C 7.66667 km/h
37 13-12-2013 12:00:00 2.96667 C 5.32 g/m*3 1.29 C 6.28333 km/h
38 13-12-2013 13:00:00 3.2 C 5.36 g/m*3 1.7 C 5.875 km/h
39 13-12-2013 14:00:00 3.45 C 5.44 g/m*3 3.45 C 3.2 km/h
40 13-12-2013 15:00:00 3.38333 C 5.39 g/m*3 3.38 C 4.80833 km/h
41 13-12-2013 16:00:00 3.11667 C 5.35 g/m*3 3.12 C 2.13333 km/h
42 13-12-2013 17:00:00 2.83333 C 5.29 g/m*3 2.83 C 1.6 km/h
43 13-12-2013 18:00:00 2.89167 C 5.36 g/m*3 2.89 C 1.2 km/h
44 13-12-2013 19:00:00 2.76667 C 5.24 g/m*3 2.77 C 3.46667 km/h
45 13-12-2013 20:00:00 2.55833 C 5.19 g/m*3 2.56 C 1.46667 km/h
46 13-12-2013 21:00:00 2.66667 C 5.27 g/m*3 2.67 C 2.8 km/h
47 13-12-2013 22:00:00 2.425 C 5.18 g/m*3 2.42 C 4.675 km/h
48 13-12-2013 23:00:00 2.08333 C 5.02 g/m*3 0.67 C 5.24167 km/h
49 14-12-2013 00:00:00 1.89167 C 4.96 g/m*3 0.09 C 6.16667 km/h
50 14-12-2013 01:00:00 1.88333 C 4.96 g/m*3 -0.7 C 8.61667 km/h
Sensor: Nr:Datum:Temp:Abs-Feuchte:Windchill:Wind:
Aussen-T/F 51 14-12-2013 02:00:00 1.625 C 4.93 g/m*3 1.63 C 4.81667 km/h
52 14-12-2013 03:00:00 1.71667 C 5.01 g/m*3 1.72 C 4.40833 km/h
53 14-12-2013 04:00:00 1.93333 C 5.09 g/m*3 1.93 C 0.26667 km/h
54 14-12-2013 05:00:00 2.18333 C 5.23 g/m*3 2.18 C 0 km/h
55 14-12-2013 06:00:00 2.56667 C 5.37 g/m*3 2.57 C 4.55833 km/h
56 14-12-2013 07:00:00 3.05833 C 5.6 g/m*3 0.41 C 9.69167 km/h
57 14-12-2013 08:00:00 3.3 C 5.76 g/m*3 0.97 C 8.6 km/h
58 14-12-2013 09:00:00 3.43 C 5.81 g/m*3 0.75 C 10.15 km/h
59 14-12-2013 10:00:00 3.74167 C 5.92 g/m*3 1.2 C 9.81667 km/h
60 14-12-2013 11:00:00 4.11667 C 6.05 g/m*3 1.78 C 9.25833 km/h
61 14-12-2013 12:00:00 4.78333 C 6.24 g/m*3 2.35 C 10.21667 km/h
62 14-12-2013 13:00:00 5.13333 C 6.38 g/m*3 3.21 C 8.33333 km/h
63 14-12-2013 14:00:00 5.56667 C 6.47 g/m*3 3.49 C 9.28333 km/h
64 14-12-2013 15:00:00 5.43333 C 6.4 g/m*3 4.04 C 6.56667 km/h
65 14-12-2013 16:00:00 5.375 C 6.37 g/m*3 3.98 C 6.55833 km/h
66 14-12-2013 17:00:00 4.76667 C 6.16 g/m*3 3.79 C 5.08333 km/h
67 14-12-2013 18:00:00 3.075 C 5.7 g/m*3 3.08 C 3.33333 km/h
68 14-12-2013 19:00:00 3.76667 C 5.96 g/m*3 1.78 C 7.65833 km/h
69 14-12-2013 20:00:00 3.93333 C 5.89 g/m*3 2.64 C 5.60833 km/h
70 14-12-2013 21:00:00 3.83333 C 5.83 g/m*3 2.19 C 6.56667 km/h
71 14-12-2013 22:00:00 4.24167 C 5.9 g/m*3 1.8 C 9.80833 km/h
72 14-12-2013 23:00:00 4.775 C 6.06 g/m*3 1.66 C 13.825 km/h
73 15-12-2013 00:00:00 5.04167 C 6.07 g/m*3 3 C 8.71667 km/h
74 15-12-2013 01:00:00 4.9 C 6.08 g/m*3 3.56 C 6.15 km/h
75 15-12-2013 02:00:00 5.04167 C 6.12 g/m*3 4 C 5.35833 km/h
Sensor: Nr:Datum:Temp:Abs-Feuchte:Windchill:Wind:
Aussen-T/F 76 15-12-2013 03:00:00 5.16667 C 6.15 g/m*3 5.17 C 4.825 km/h
77 15-12-2013 04:00:00 5.075 C 6.1 g/m*3 5.08 C 3.2 km/h
78 15-12-2013 05:00:00 4.90833 C 6.08 g/m*3 3.2 C 7.375 km/h
79 15-12-2013 06:00:00 5.55833 C 6 g/m*3 4.11 C 6.83333 km/h
80 15-12-2013 07:00:00 5.11667 C 5.91 g/m*3 5.12 C 2.80833 km/h
81 15-12-2013 08:00:00 4.84167 C 5.97 g/m*3 4.84 C 1.06667 km/h
82 15-12-2013 09:00:00 5.45 C 5.92 g/m*3 3.83 C 7.38333 km/h
83 15-12-2013 10:00:00 6.65833 C 5.82 g/m*3 4.79 C 9.25833 km/h
84 15-12-2013 11:00:00 6.95 C 5.82 g/m*3 4.39 C 13.43333 km/h
85 15-12-2013 12:00:00 7.69167 C 5.87 g/m*3 4.97 C 15.7 km/h
86 15-12-2013 13:00:00 8.21667 C 5.88 g/m*3 5.73 C 14.9 km/h
87 15-12-2013 14:00:00 7.91667 C 6.04 g/m*3 6.74 C 7.25833 km/h
88 15-12-2013 15:00:00 6.39167 C 6.11 g/m*3 6.39 C 3.74167 km/h
89 15-12-2013 16:00:00 5.075 C 5.93 g/m*3 5.08 C 3.33333 km/h
90 15-12-2013 17:00:00 4.43333 C 5.76 g/m*3 4.43 C 2.53333 km/h
91 15-12-2013 18:00:00 4.51667 C 5.91 g/m*3 4.52 C 0.93333 km/h
92 15-12-2013 19:00:00 3.54167 C 5.58 g/m*3 3.54 C 0.8 km/h
93 15-12-2013 20:00:00 2.64167 C 5.37 g/m*3 2.64 C 0.26667 km/h
94 15-12-2013 21:00:00 2.09167 C 5.22 g/m*3 2.09 C 0.26667 km/h
95 15-12-2013 22:00:00 1.48333 C 5.03 g/m*3 1.48 C 0.53333 km/h
96 15-12-2013 23:00:00 1.21667 C 4.99 g/m*3 1.22 C 0.13333 km/h
97 16-12-2013 00:00:00 1.05 C 4.95 g/m*3 1.05 C 0.66667 km/h
98 16-12-2013 01:00:00 0.78333 C 4.86 g/m*3 0.78 C 0 km/h
99 16-12-2013 02:00:00 0.475 C 4.76 g/m*3 0.48 C 0.66667 km/h
100 16-12-2013 03:00:00 0.325 C 4.71 g/m*3 0.33 C 0.66667 km/h
Sensor: Nr:Datum:Temp:Abs-Feuchte:Windchill:Wind:
Aussen-T/F 101 16-12-2013 04:00:00 -0.03333 C 4.6 g/m*3 -0.03 C 0.13333 km/h
102 16-12-2013 05:00:00 0.29167 C 4.74 g/m*3 0.29 C 0.26667 km/h
103 16-12-2013 06:00:00 0 C 4.63 g/m*3 0 C 0.43636 km/h
104 16-12-2013 07:00:00 -0.3 C 4.56 g/m*3 -0.3 C 0 km/h
105 16-12-2013 08:00:00 -0.30833 C 4.55 g/m*3 -0.31 C 0.8 km/h
106 16-12-2013 09:00:00 -0.3 C 4.56 g/m*3 -0.3 C 0.26667 km/h
107 16-12-2013 10:00:00 0.31667 C 4.75 g/m*3 0.32 C 0.4 km/h
108 16-12-2013 11:00:00 1.24167 C 5.03 g/m*3 1.24 C 0.13333 km/h
109 16-12-2013 12:00:00 2.31667 C 5.37 g/m*3 2.32 C 1.46667 km/h
110 16-12-2013 13:00:00 3.33333 C 5.66 g/m*3 3.33 C 2.8 km/h
111 16-12-2013 14:00:00 4.175 C 5.92 g/m*3 4.18 C 3.73333 km/h
112 16-12-2013 15:00:00 4.49167 C 6.02 g/m*3 4.49 C 3.06667 km/h
113 16-12-2013 16:00:00 4.09167 C 5.84 g/m*3 4.09 C 2.66667 km/h
114 16-12-2013 17:00:00 3.225 C 5.62 g/m*3 3.23 C 1.6 km/h
115 16-12-2013 18:00:00 2.575 C 5.4 g/m*3 2.58 C 0.66667 km/h
116 16-12-2013 19:00:00 2.29167 C 5.38 g/m*3 2.29 C 0.13333 km/h
117 16-12-2013 20:00:00 1.78333 C 5.19 g/m*3 1.78 C 0.93333 km/h
118 16-12-2013 21:00:00 1.1 C 4.97 g/m*3 1.1 C 0 km/h
119 16-12-2013 22:00:00 0.88333 C 4.94 g/m*3 0.88 C 0.8 km/h
120 16-12-2013 23:00:00 0.64167 C 4.87 g/m*3 0.64 C 0.26667 km/h
121 17-12-2013 00:00:00 0.15 C 4.7 g/m*3 0.15 C 0.26667 km/h
122 17-12-2013 01:00:00 -0.175 C 4.62 g/m*3 -0.18 C 0 km/h
123 17-12-2013 02:00:00 -0.325 C 4.6 g/m*3 -0.33 C 0 km/h
124 17-12-2013 03:00:00 -0.575 C 4.52 g/m*3 -0.57 C 0 km/h
125 17-12-2013 04:00:00 -0.86667 C 4.43 g/m*3 -0.87 C 0.13333 km/h
Sensor: Nr:Datum:Temp:Abs-Feuchte:Windchill:Wind:
Aussen-T/F 126 17-12-2013 05:00:00 -1.175 C 4.33 g/m*3 -1.18 C 0 km/h
127 17-12-2013 06:00:00 -1.15 C 4.34 g/m*3 -1.15 C 0.66667 km/h
128 17-12-2013 07:00:00 -1.34167 C 4.28 g/m*3 -1.34 C 0.8 km/h
129 17-12-2013 08:00:00 -1.5 C 4.23 g/m*3 -1.5 C 0 km/h
130 17-12-2013 09:00:00 -0.94167 C 4.41 g/m*3 -0.94 C 0.93333 km/h
131 17-12-2013 10:00:00 -0.50833 C 4.55 g/m*3 -0.51 C 0 km/h
132 17-12-2013 11:00:00 1.175 C 5.15 g/m*3 1.18 C 1.6 km/h
133 17-12-2013 12:00:00 3.04167 C 5.84 g/m*3 3.04 C 0.66667 km/h
134 17-12-2013 13:00:00 4.44167 C 6.26 g/m*3 4.44 C 2.8 km/h
135 17-12-2013 14:00:00 5.31667 C 6.34 g/m*3 5.32 C 2.93333 km/h
136 17-12-2013 15:00:00 5.86667 C 6.4 g/m*3 5.87 C 4.53333 km/h
137 17-12-2013 16:00:00 5.10833 C 6.07 g/m*3 5.11 C 2.66667 km/h
138 17-12-2013 17:00:00 3.84167 C 5.8 g/m*3 3.84 C 1.06667 km/h
139 17-12-2013 18:00:00 3.00833 C 5.54 g/m*3 3.01 C 0.4 km/h
140 17-12-2013 19:00:00 2.35833 C 5.37 g/m*3 2.36 C 0 km/h
141 17-12-2013 20:00:00 1.66667 C 5.15 g/m*3 1.67 C 0.26667 km/h
142 17-12-2013 21:00:00 1.08333 C 5 g/m*3 1.08 C 0 km/h
143 17-12-2013 22:00:00 0.99167 C 4.99 g/m*3 0.99 C 0.53333 km/h
144 17-12-2013 23:00:00 0.61667 C 4.87 g/m*3 0.62 C 0 km/h
145 18-12-2013 00:00:00 0.35833 C 4.82 g/m*3 0.36 C 0.13333 km/h
146 18-12-2013 01:00:00 0.4 C 4.83 g/m*3 0.4 C 0 km/h
147 18-12-2013 02:00:00 0.75833 C 4.95 g/m*3 0.76 C 0.26667 km/h
148 18-12-2013 03:00:00 1.04167 C 5.05 g/m*3 1.04 C 0.13333 km/h
149 18-12-2013 04:00:00 1.2 C 5.1 g/m*3 1.2 C 0 km/h
150 18-12-2013 05:00:00 1.49167 C 5.22 g/m*3 1.49 C 0.13333 km/h
Sensor: Nr:Datum:Temp:Abs-Feuchte:Windchill:Wind:
Aussen-T/F 151 18-12-2013 06:00:00 1.70833 C 5.29 g/m*3 1.71 C 0.93333 km/h
152 18-12-2013 07:00:00 1.775 C 5.31 g/m*3 1.78 C 1.06667 km/h
153 18-12-2013 08:00:00 1.93333 C 5.37 g/m*3 1.93 C 0.93333 km/h
154 18-12-2013 09:00:00 2.66667 C 5.64 g/m*3 2.67 C 2 km/h
155 18-12-2013 10:00:00 3.29167 C 5.83 g/m*3 3.29 C 2.4 km/h
156 18-12-2013 11:00:00 3.98333 C 6.01 g/m*3 3.98 C 1.86667 km/h
157 18-12-2013 12:00:00 4.475 C 6.15 g/m*3 4.47 C 0 km/h
158 18-12-2013 13:00:00 6.85833 C 7.1 g/m*3 5.54 C 7.11667 km/h
159 18-12-2013 14:00:00 8.98333 C 7.6 g/m*3 8.15 C 6.56667 km/h
160 18-12-2013 15:00:00 8.75 C 7.61 g/m*3 8.75 C 4.68333 km/h
161 18-12-2013 16:00:00 8.20833 C 7.46 g/m*3 8.21 C 2.13333 km/h
162 18-12-2013 17:00:00 7.35 C 7.26 g/m*3 7.35 C 2 km/h
163 18-12-2013 18:00:00 7.11667 C 7.07 g/m*3 7.12 C 3.2 km/h
164 18-12-2013 19:00:00 5.9 C 6.66 g/m*3 5.9 C 2.8 km/h
165 18-12-2013 20:00:00 5.23333 C 6.47 g/m*3 5.23 C 3.2 km/h
166 18-12-2013 21:00:00 5.11667 C 6.49 g/m*3 5.12 C 3.06667 km/h
167 18-12-2013 22:00:00 5.80833 C 6.77 g/m*3 5.81 C 4.13333 km/h
168 18-12-2013 23:00:00 6.38333 C 6.94 g/m*3 6.38 C 2.93333 km/h
169 19-12-2013 00:00:00 7.03333 C 7.09 g/m*3 7.03 C 4.40833 km/h
170 19-12-2013 01:00:00 8.35833 C 7.24 g/m*3 7.54 C 6.16667 km/h
171 19-12-2013 02:00:00 9.18333 C 7.31 g/m*3 8.53 C 6.025 km/h
172 19-12-2013 03:00:00 9.3 C 7.4 g/m*3 8.42 C 6.975 km/h
173 19-12-2013 04:00:00 9.38333 C 7.47 g/m*3 9.38 C 4.40833 km/h
174 19-12-2013 05:00:00 9.01667 C 7.83 g/m*3 9.02 C 4.675 km/h
175 19-12-2013 06:00:00 8.66667 C 7.99 g/m*3 8.67 C 4.94167 km/h
Sensor: Nr:Datum:Temp:Abs-Feuchte:Windchill:Wind:
Aussen-T/F 176 19-12-2013 07:00:00 8.53333 C 8.04 g/m*3 8.53 C 4.95 km/h
177 19-12-2013 08:00:00 8.45833 C 8.14 g/m*3 8.46 C 3.46667 km/h
178 19-12-2013 09:00:00 8.925 C 8.37 g/m*3 8.93 C 4.69167 km/h
179 19-12-2013 10:00:00 9.725 C 8.59 g/m*3 9.22 C 5.775 km/h
180 19-12-2013 11:00:00 10.64167 C 8.36 g/m*3 8.77 C 14.48333 km/h
181 19-12-2013 12:00:00 10.80833 C 7.93 g/m*3 9.03 C 13.96667 km/h
182 19-12-2013 13:00:00 10.6 C 7.65 g/m*3 9.19 C 11.025 km/h
183 19-12-2013 14:00:00 10.23333 C 7.41 g/m*3 8.57 C 12.21667 km/h
184 19-12-2013 15:00:00 9.3 C 7.17 g/m*3 7.6 C 11.16667 km/h
185 19-12-2013 16:00:00 8.6 C 7 g/m*3 7.1 C 9.275 km/h
186 19-12-2013 17:00:00 7.6 C 7.02 g/m*3 7.6 C 2.4 km/h
187 19-12-2013 18:00:00 6.58333 C 6.84 g/m*3 6.58 C 2.93333 km/h
188 19-12-2013 19:00:00 6.25 C 6.94 g/m*3 6.25 C 2 km/h
189 19-12-2013 20:00:00 5.425 C 6.61 g/m*3 5.43 C 2.13333 km/h
190 19-12-2013 21:00:00 4.9 C 6.42 g/m*3 4.9 C 1.33333 km/h
191 19-12-2013 22:00:00 4.19167 C 6.14 g/m*3 4.19 C 2 km/h
192 19-12-2013 23:00:00 3.575 C 5.91 g/m*3 3.58 C 0.66667 km/h
193 20-12-2013 00:00:00 2.98333 C 5.71 g/m*3 2.98 C 1.33333 km/h
194 20-12-2013 01:00:00 2.61667 C 5.59 g/m*3 2.62 C 0.53333 km/h
195 20-12-2013 02:00:00 2.99167 C 5.76 g/m*3 2.99 C 0.53333 km/h
196 20-12-2013 03:00:00 2.96667 C 5.75 g/m*3 2.97 C 0.53333 km/h
197 20-12-2013 04:00:00 2.98333 C 5.76 g/m*3 2.98 C 0 km/h
198 20-12-2013 05:00:00 3.275 C 5.9 g/m*3 3.28 C 0.4 km/h
199 20-12-2013 06:00:00 3.15833 C 5.83 g/m*3 3.16 C 0.53333 km/h
200 20-12-2013 07:00:00 4.04167 C 6.24 g/m*3 4.04 C 2 km/h
Sensor: Nr:Datum:Temp:Abs-Feuchte:Windchill:Wind:
Aussen-T/F 201 20-12-2013 08:00:00 4.05833 C 6.2 g/m*3 4.06 C 0.93333 km/h
202 20-12-2013 09:00:00 4.65 C 6.41 g/m*3 4.65 C 4.14167 km/h
203 20-12-2013 10:00:00 5.73333 C 6.57 g/m*3 5.73 C 4.53333 km/h
204 20-12-2013 11:00:00 6.35833 C 6.64 g/m*3 5.11 C 6.575 km/h
205 20-12-2013 12:00:00 6.35 C 6.54 g/m*3 5.53 C 5.23333 km/h
206 20-12-2013 13:00:00 6.50833 C 6.38 g/m*3 5.03 C 7.51667 km/h
207 20-12-2013 14:00:00 6.325 C 6.28 g/m*3 5.04 C 6.69167 km/h
208 20-12-2013 15:00:00 5.9 C 6.24 g/m*3 4.88 C 5.61667 km/h
209 20-12-2013 16:00:00 5.36667 C 6.09 g/m*3 5.37 C 4.26667 km/h
210 20-12-2013 17:00:00 4.2 C 5.88 g/m*3 4.2 C 4.40833 km/h
211 20-12-2013 18:00:00 4.05 C 5.84 g/m*3 4.05 C 4.66667 km/h
212 20-12-2013 19:00:00 4.20833 C 5.77 g/m*3 3.1 C 5.20833 km/h
213 20-12-2013 20:00:00 4.05 C 5.7 g/m*3 2.92 C 5.21667 km/h
214 20-12-2013 21:00:00 3.45 C 5.62 g/m*3 3.45 C 3.2 km/h
215 20-12-2013 22:00:00 3.675 C 5.72 g/m*3 3.68 C 4.675 km/h
216 20-12-2013 23:00:00 5.31667 C 5.97 g/m*3 3.79 C 6.975 km/h
217 21-12-2013 00:00:00 4.89167 C 5.84 g/m*3 3.38 C 6.7 km/h
218 21-12-2013 01:00:00 5.125 C 5.88 g/m*3 3.86 C 6.01667 km/h
219 21-12-2013 02:00:00 4.625 C 5.73 g/m*3 4.63 C 4.53333 km/h
220 21-12-2013 03:00:00 3.28333 C 5.48 g/m*3 3.28 C 2.8 km/h
221 21-12-2013 04:00:00 2.675 C 5.4 g/m*3 2.68 C 3.33333 km/h
222 21-12-2013 05:00:00 2.76667 C 5.44 g/m*3 2.77 C 1.33333 km/h
223 21-12-2013 06:00:00 3.28333 C 5.56 g/m*3 3.28 C 1.6 km/h
224 21-12-2013 07:00:00 3.925 C 5.59 g/m*3 3.93 C 2.54167 km/h
225 21-12-2013 08:00:00 3.45833 C 5.51 g/m*3 3.46 C 0.8 km/h
Sensor: Nr:Datum:Temp:Abs-Feuchte:Windchill:Wind:
Aussen-T/F 226 21-12-2013 09:00:00 2.93333 C 5.46 g/m*3 2.93 C 0.8 km/h
227 21-12-2013 10:00:00 4.5 C 5.71 g/m*3 4.5 C 1.2 km/h
228 21-12-2013 11:00:00 6 C 5.81 g/m*3 6 C 3.33333 km/h
229 21-12-2013 12:00:00 6.95 C 5.57 g/m*3 5.35 C 8.31667 km/h
230 21-12-2013 13:00:00 7.21667 C 5.51 g/m*3 6.57 C 5.09167 km/h
231 21-12-2013 14:00:00 6.9 C 5.59 g/m*3 6.9 C 1.86667 km/h
232 21-12-2013 15:00:00 6.31667 C 5.45 g/m*3 6.32 C 2.13333 km/h
233 21-12-2013 16:00:00 5.65833 C 5.32 g/m*3 5.66 C 2.13333 km/h
234 21-12-2013 17:00:00 5.025 C 5.3 g/m*3 5.03 C 2 km/h
235 21-12-2013 18:00:00 4.86667 C 5.15 g/m*3 4.87 C 2.13333 km/h
236 21-12-2013 19:00:00 4.81667 C 5.2 g/m*3 4.82 C 2.66667 km/h
237 21-12-2013 20:00:00 5.00833 C 5.25 g/m*3 5.01 C 4.01667 km/h
238 21-12-2013 21:00:00 4.78333 C 5.31 g/m*3 4.78 C 2.8 km/h
239 21-12-2013 22:00:00 4.79167 C 5.23 g/m*3 4.79 C 3.06667 km/h
240 21-12-2013 23:00:00 5.725 C 4.99 g/m*3 5.73 C 4.40833 km/h
241 22-12-2013 00:00:00 6.39167 C 4.57 g/m*3 5.12 C 6.69167 km/h
242 22-12-2013 01:00:00 7.3 C 4.31 g/m*3 6.62 C 5.21667 km/h
243 22-12-2013 02:00:00 7.425 C 4.9 g/m*3 6.31 C 6.7 km/h
244 22-12-2013 03:00:00 8.35 C 5.78 g/m*3 5.47 C 18.375 km/h
245 22-12-2013 04:00:00 8.01667 C 6.26 g/m*3 5.34 C 15.96667 km/h
246 22-12-2013 05:00:00 7.28333 C 6.84 g/m*3 4.5 C 15.43333 km/h
247 22-12-2013 06:00:00 7.34167 C 7.01 g/m*3 4.14 C 18.9 km/h
248 22-12-2013 07:00:00 7.66667 C 7.3 g/m*3 5.5 C 11.94167 km/h
249 22-12-2013 08:00:00 7.35833 C 7.46 g/m*3 7.36 C 2.13333 km/h
250 22-12-2013 09:00:00 8.13333 C 7.78 g/m*3 7.48 C 5.49167 km/h
Sensor: Nr:Datum:Temp:Abs-Feuchte:Windchill:Wind:
Aussen-T/F 251 22-12-2013 10:00:00 9.16667 C 7.91 g/m*3 7.88 C 8.71667 km/h
252 22-12-2013 11:00:00 9.46667 C 7.94 g/m*3 8.65 C 6.83333 km/h
253 22-12-2013 12:00:00 9.71667 C 8.04 g/m*3 9.33 C 5.35833 km/h
254 22-12-2013 13:00:00 10.16667 C 8.01 g/m*3 8.69 C 10.88333 km/h
255 22-12-2013 14:00:00 10.21667 C 7.99 g/m*3 8.34 C 13.7 km/h
256 22-12-2013 15:00:00 9.96667 C 8.05 g/m*3 8.06 C 13.56667 km/h
257 22-12-2013 16:00:00 10.09167 C 7.95 g/m*3 8.12 C 14.23333 km/h
258 22-12-2013 17:00:00 10 C 7.92 g/m*3 7.93 C 14.9 km/h
259 22-12-2013 18:00:00 9.925 C 7.93 g/m*3 7.51 C 17.7 km/h
260 22-12-2013 19:00:00 9.9 C 7.95 g/m*3 7.19 C 20.65 km/h
261 22-12-2013 20:00:00 9.93333 C 7.94 g/m*3 7.23 C 20.63333 km/h
262 22-12-2013 21:00:00 9.725 C 8 g/m*3 7.67 C 14.23333 km/h
263 22-12-2013 22:00:00 9.38333 C 8.15 g/m*3 8.08 C 9.00833 km/h
264 22-12-2013 23:00:00 8.63333 C 8.06 g/m*3 8.63 C 3.60833 km/h
265 23-12-2013 00:00:00 8.025 C 7.84 g/m*3 8.03 C 4.26667 km/h
266 23-12-2013 01:00:00 7.83333 C 7.39 g/m*3 5.43 C 13.675 km/h
267 23-12-2013 02:00:00 5.83333 C 6.77 g/m*3 5.83 C 4.14167 km/h
268 23-12-2013 03:00:00 5.975 C 6.82 g/m*3 5.11 C 5.20833 km/h
269 23-12-2013 04:00:00 5.9 C 6.82 g/m*3 5.9 C 4.13333 km/h
270 23-12-2013 05:00:00 7.15833 C 6.88 g/m*3 5.19 C 10.21667 km/h
271 23-12-2013 06:00:00 6.43333 C 6.73 g/m*3 5.4 C 5.9 km/h
272 23-12-2013 07:00:00 5.95 C 6.74 g/m*3 5.95 C 3.46667 km/h
273 23-12-2013 08:00:00 5.51667 C 6.58 g/m*3 5.52 C 2 km/h
274 23-12-2013 09:00:00 5.175 C 6.53 g/m*3 5.18 C 0.8 km/h
275 23-12-2013 10:00:00 6.825 C 7.14 g/m*3 5.17 C 8.4625 km/h
Sensor: Nr:Datum:Temp:Abs-Feuchte:Windchill:Wind:
Aussen-T/F 276 23-12-2013 11:00:00 8.99167 C 7.38 g/m*3 7.67 C 8.73333 km/h
277 23-12-2013 12:00:00 9.54167 C 7.54 g/m*3 8.54 C 7.65833 km/h
278 23-12-2013 13:00:00 10.1125 C 7.52 g/m*3 9.7 C 5.625 km/h
279 23-12-2013 14:00:00 10.69167 C 7.61 g/m*3 9.76 C 8.325 km/h
280 23-12-2013 15:00:00 10.9 C 7.6 g/m*3 9.88 C 9 km/h
281 23-12-2013 16:00:00 10.1 C 7.61 g/m*3 9.48 C 6.4 km/h
282 23-12-2013 17:00:00 10.58333 C 7.78 g/m*3 9.82 C 7.4 km/h
283 23-12-2013 18:00:00 10.55833 C 7.8 g/m*3 10.21 C 5.625 km/h
284 23-12-2013 19:00:00 9.97778 C 7.59 g/m*3 9.43 C 6.07778 km/h
285 23-12-2013 20:00:00 10.26667 C 7.46 g/m*3 9.2 C 8.58333 km/h
286 23-12-2013 21:00:00 10.21667 C 7.42 g/m*3 9.19 C 8.34167 km/h
287 23-12-2013 22:00:00 10.43333 C 7.42 g/m*3 9.23 C 9.54167 km/h
288 23-12-2013 23:00:00 10.25833 C 7.26 g/m*3 8.99 C 9.69167 km/h
289 24-12-2013 00:00:00 9.9 C 6.99 g/m*3 8.72 C 8.86667 km/h
290 24-12-2013 01:00:00 9.575 C 6.84 g/m*3 8.62 C 7.5 km/h
291 24-12-2013 02:00:00 8.85833 C 6.65 g/m*3 7.9 C 6.98333 km/h
292 24-12-2013 03:00:00 8.51667 C 6.66 g/m*3 7.88 C 5.61667 km/h
293 24-12-2013 04:00:00 8.625 C 6.75 g/m*3 7.96 C 5.75833 km/h
294 24-12-2013 05:00:00 9.61667 C 6.84 g/m*3 8.88 C 6.575 km/h
295 24-12-2013 06:00:00 9.81667 C 6.97 g/m*3 9.26 C 6.01667 km/h
296 24-12-2013 07:00:00 9.95833 C 7.05 g/m*3 9.12 C 7.25 km/h
297 24-12-2013 08:00:00 11.84167 C 7.24 g/m*3 11.84 C 8.05833 km/h
298 24-12-2013 09:00:00 12.26667 C 7.36 g/m*3 12.27 C 8.18333 km/h
299 24-12-2013 10:00:00 12.8 C 7.57 g/m*3 12.8 C 8.73333 km/h
300 24-12-2013 11:00:00 13.88333 C 7.48 g/m*3 13.88 C 16.10833 km/h
Sensor: Nr:Datum:Temp:Abs-Feuchte:Windchill:Wind:
Aussen-T/F 301 24-12-2013 12:00:00 13.96667 C 7.71 g/m*3 13.97 C 9.94167 km/h
302 24-12-2013 13:00:00 13.85833 C 7.8 g/m*3 13.86 C 10.71667 km/h
303 24-12-2013 14:00:00 13.90833 C 7.92 g/m*3 13.91 C 10.225 km/h
304 24-12-2013 15:00:00 13.08333 C 8.39 g/m*3 13.08 C 8.45833 km/h
305 24-12-2013 16:00:00 12.75 C 8.32 g/m*3 12.75 C 8.6 km/h
306 24-12-2013 17:00:00 12.74167 C 8.3 g/m*3 12.74 C 9.26667 km/h
307 24-12-2013 18:00:00 12.78333 C 8.22 g/m*3 12.78 C 6.70833 km/h
308 24-12-2013 19:00:00 12.73333 C 8.25 g/m*3 12.73 C 8.05 km/h
309 24-12-2013 20:00:00 12.58333 C 8.27 g/m*3 12.58 C 8.6 km/h
310 24-12-2013 21:00:00 11.98182 C 8.58 g/m*3 11.98 C 9.82727 km/h
311 24-12-2013 22:00:00 11.16 C 8.77 g/m*3 11.16 C 5.3 km/h
312 24-12-2013 23:00:00 10.575 C 8.62 g/m*3 10.58 C 4.81667 km/h
313 25-12-2013 00:00:00 10.85833 C 8.53 g/m*3 10 C 8.05833 km/h
314 25-12-2013 01:00:00 10.64167 C 8.6 g/m*3 10.14 C 6.29167 km/h
315 25-12-2013 02:00:00 10.675 C 8.56 g/m*3 9.9 C 7.50833 km/h
316 25-12-2013 03:00:00 10.8 C 8.7 g/m*3 10.22 C 6.70833 km/h
317 25-12-2013 04:00:00 10.775 C 8.85 g/m*3 10.25 C 6.44167 km/h
318 25-12-2013 05:00:00 10.53333 C 8.86 g/m*3 9.52 C 8.6 km/h
319 25-12-2013 06:00:00 10.025 C 8.58 g/m*3 9.32 C 6.71667 km/h
320 25-12-2013 07:00:00 9.425 C 8.27 g/m*3 7.91 C 10.2 km/h
321 25-12-2013 08:00:00 8.275 C 7.57 g/m*3 7.44 C 6.16667 km/h
322 25-12-2013 09:00:00 7.55 C 7.47 g/m*3 7.55 C 2.93333 km/h
323 25-12-2013 11:00:00 8.16667 C 8.08 g/m*3 8.17 C 0 km/h
324 25-12-2013 16:00:00 7.775 C 7.82 g/m*3 7.78 C 0.26667 km/h
325 25-12-2013 17:00:00 7.40833 C 7.59 g/m*3 7.41 C 0.93333 km/h
Sensor: Nr:Datum:Temp:Abs-Feuchte:Windchill:Wind:
Aussen-T/F 326 25-12-2013 18:00:00 6.28333 C 7.06 g/m*3 6.28 C 2.66667 km/h
327 25-12-2013 19:00:00 5.85 C 6.94 g/m*3 5.85 C 1.46667 km/h
328 25-12-2013 20:00:00 6.275 C 7.11 g/m*3 6.28 C 0.8 km/h
329 25-12-2013 21:00:00 5.65 C 6.78 g/m*3 5.65 C 1.73333 km/h
330 25-12-2013 22:00:00 6.06667 C 7.01 g/m*3 6.07 C 1.74167 km/h
331 25-12-2013 23:00:00 6.375 C 7.09 g/m*3 6.38 C 1.33333 km/h
332 26-12-2013 00:00:00 5.80833 C 6.8 g/m*3 5.81 C 2.13333 km/h
333 26-12-2013 01:00:00 5.41667 C 6.69 g/m*3 5.42 C 0.26667 km/h
334 26-12-2013 02:00:00 5.30833 C 6.66 g/m*3 5.31 C 0.13333 km/h
335 26-12-2013 03:00:00 5.50833 C 6.76 g/m*3 5.51 C 0.13333 km/h
336 26-12-2013 04:00:00 5.79167 C 6.87 g/m*3 5.79 C 0 km/h
337 26-12-2013 05:00:00 5.74167 C 6.85 g/m*3 5.74 C 0 km/h
338 26-12-2013 06:00:00 5.65833 C 6.81 g/m*3 5.66 C 0 km/h
339 26-12-2013 07:00:00 5.7 C 6.83 g/m*3 5.7 C 0.4 km/h
340 26-12-2013 08:00:00 5.79167 C 6.91 g/m*3 5.79 C 0 km/h
341 26-12-2013 09:00:00 5.975 C 7.03 g/m*3 5.98 C 0 km/h
342 26-12-2013 10:00:00 6.15833 C 7.11 g/m*3 6.16 C 0 km/h
343 26-12-2013 11:00:00 6.39167 C 7.2 g/m*3 6.39 C 3.33333 km/h
344 26-12-2013 12:00:00 6.5 C 7.2 g/m*3 5.58 C 5.6 km/h
345 26-12-2013 13:00:00 7.42857 C 7.33 g/m*3 7.43 C 0.68571 km/h
346 26-12-2013 14:00:00 7.65 C 7.37 g/m*3 7.65 C 0.53333 km/h
347 26-12-2013 15:00:00 7.68 C 7.36 g/m*3 7.68 C 0.16 km/h
348 26-12-2013 16:00:00 7.21818 C 7.38 g/m*3 7.22 C 0 km/h
349 26-12-2013 17:00:00 7.05833 C 7.29 g/m*3 7.06 C 1.6 km/h
350 26-12-2013 18:00:00 6.65 C 7.19 g/m*3 6.65 C 2.53333 km/h
Sensor: Nr:Datum:Temp:Abs-Feuchte:Windchill:Wind:
Aussen-T/F 351 26-12-2013 19:00:00 6.11667 C 6.98 g/m*3 6.12 C 2.93333 km/h
352 26-12-2013 20:00:00 5.71667 C 6.84 g/m*3 5.72 C 2.66667 km/h
353 26-12-2013 21:00:00 4.83333 C 6.36 g/m*3 4.83 C 4.40833 km/h
354 26-12-2013 22:00:00 5.18333 C 6.41 g/m*3 4.11 C 5.49167 km/h
355 26-12-2013 23:00:00 5.55833 C 6.28 g/m*3 3.96 C 7.36667 km/h
356 27-12-2013 00:00:00 4.73333 C 6.05 g/m*3 3.32 C 6.29167 km/h
357 27-12-2013 01:00:00 4.975 C 6 g/m*3 3.35 C 7.1 km/h
358 27-12-2013 02:00:00 3.525 C 5.69 g/m*3 3.53 C 3.46667 km/h
359 27-12-2013 03:00:00 2.50833 C 5.46 g/m*3 2.51 C 2.53333 km/h
360 27-12-2013 04:00:00 3.53333 C 5.84 g/m*3 3.53 C 3.73333 km/h
361 27-12-2013 05:00:00 5.075 C 6.02 g/m*3 3.94 C 5.625 km/h
362 27-12-2013 06:00:00 4.95833 C 5.87 g/m*3 4.96 C 3.875 km/h
363 27-12-2013 07:00:00 4.25833 C 5.84 g/m*3 4.26 C 2.13333 km/h
364 27-12-2013 08:00:00 3.90833 C 5.78 g/m*3 3.91 C 3.46667 km/h
365 27-12-2013 09:00:00 5.175 C 5.95 g/m*3 4.15 C 5.35833 km/h
366 27-12-2013 10:00:00 6.55833 C 5.82 g/m*3 4.25 C 11.40833 km/h
367 27-12-2013 11:00:00 7.125 C 5.85 g/m*3 5.59 C 8.18333 km/h
368 27-12-2013 12:00:00 7.71111 C 6 g/m*3 5.96 C 9.68889 km/h
369 27-12-2013 13:00:00 8.35 C 6.26 g/m*3 6.43 C 11.275 km/h
370 27-12-2013 14:00:00 8.8 C 6.44 g/m*3 7.59 C 8.05 km/h
371 27-12-2013 16:00:00 9.2 C 6.71 g/m*3 8.05 C 8.0625 km/h
372 27-12-2013 17:00:00 8.85 C 6.96 g/m*3 8.45 C 5.0125 km/h
373 27-12-2013 18:00:00 8.9 C 7.1 g/m*3 7.82 C 7.525 km/h
374 27-12-2013 19:00:00 9.25 C 7.29 g/m*3 8.71 C 5.625 km/h
375 27-12-2013 20:00:00 9.66667 C 7.64 g/m*3 9.35 C 5.08333 km/h
Sensor: Nr:Datum:Temp:Abs-Feuchte:Windchill:Wind:
Aussen-T/F 376 27-12-2013 21:00:00 9.925 C 7.85 g/m*3 9.93 C 4.28333 km/h
377 27-12-2013 22:00:00 10.03333 C 8.25 g/m*3 9.3 C 6.84167 km/h
378 27-12-2013 23:00:00 9.675 C 8.39 g/m*3 9.09 C 6.025 km/h
379 28-12-2013 00:00:00 9.71667 C 8.38 g/m*3 9.72 C 4.675 km/h
380 28-12-2013 01:00:00 9.94167 C 8.27 g/m*3 9.94 C 3.2 km/h
381 28-12-2013 02:00:00 10.85 C 8.06 g/m*3 10.37 C 6.3 km/h
382 28-12-2013 03:00:00 10.79167 C 7.87 g/m*3 10.45 C 5.74167 km/h
383 28-12-2013 04:00:00 10.54167 C 7.77 g/m*3 10.54 C 4.8 km/h
384 28-12-2013 05:00:00 9.9 C 7.99 g/m*3 9.9 C 4.275 km/h
385 28-12-2013 06:00:00 9.20833 C 7.94 g/m*3 9.21 C 4.53333 km/h
386 28-12-2013 07:00:00 9.35 C 7.86 g/m*3 9.35 C 4.95 km/h
387 28-12-2013 08:00:00 10.06667 C 7.96 g/m*3 9.16 C 7.64167 km/h
388 28-12-2013 09:00:00 9.95833 C 7.92 g/m*3 8.95 C 8.05833 km/h
389 28-12-2013 10:00:00 10.25 C 8.07 g/m*3 8.87 C 10.34167 km/h
390 28-12-2013 11:00:00 10.48333 C 8.19 g/m*3 9.95 C 6.30833 km/h
391 28-12-2013 12:00:00 9.84167 C 8.47 g/m*3 9.84 C 2.54167 km/h
392 28-12-2013 13:00:00 9.45 C 8.51 g/m*3 9.45 C 0.4 km/h
393 28-12-2013 14:00:00 9.36667 C 8.57 g/m*3 9.37 C 0.13333 km/h
394 28-12-2013 15:00:00 9.24167 C 8.58 g/m*3 9.24 C 0 km/h
395 28-12-2013 16:00:00 8.86667 C 8.4 g/m*3 8.87 C 0 km/h
396 28-12-2013 17:00:00 8.51667 C 8.28 g/m*3 8.52 C 0.13333 km/h
397 28-12-2013 18:00:00 8.24167 C 8.15 g/m*3 8.24 C 0 km/h
398 28-12-2013 19:00:00 7.93333 C 7.98 g/m*3 7.93 C 0.4 km/h
399 28-12-2013 20:00:00 7.73333 C 7.9 g/m*3 7.73 C 0.13333 km/h
400 28-12-2013 21:00:00 7.29167 C 7.67 g/m*3 7.29 C 4.28333 km/h
Sensor: Nr:Datum:Temp:Abs-Feuchte:Windchill:Wind:
Aussen-T/F 401 28-12-2013 22:00:00 6.58333 C 7.08 g/m*3 5.58 C 5.89167 km/h
402 28-12-2013 23:00:00 5.34167 C 6.43 g/m*3 2.65 C 12.09167 km/h
403 29-12-2013 00:00:00 4.66667 C 6.21 g/m*3 3.19 C 6.45 km/h
404 29-12-2013 01:00:00 4.4 C 6.2 g/m*3 4.4 C 2.13333 km/h
405 29-12-2013 02:00:00 5.075 C 6.29 g/m*3 2.3 C 12.23333 km/h
406 29-12-2013 03:00:00 5.3 C 6.27 g/m*3 3.65 C 7.375 km/h
407 29-12-2013 04:00:00 5.60833 C 6.45 g/m*3 5.61 C 4.95 km/h
408 29-12-2013 05:00:00 5.46667 C 6.59 g/m*3 5.47 C 1.6 km/h
409 29-12-2013 06:00:00 5.51667 C 6.66 g/m*3 5.52 C 3.475 km/h
410 29-12-2013 07:00:00 5.025 C 6.48 g/m*3 5.03 C 2.93333 km/h
411 29-12-2013 08:00:00 5.10833 C 6.57 g/m*3 5.11 C 3.75 km/h
412 29-12-2013 09:00:00 4.925 C 6.46 g/m*3 4.93 C 3.86667 km/h
413 29-12-2013 10:00:00 5.05 C 6.47 g/m*3 5.05 C 4.97 km/h
414 29-12-2013 13:00:00 7.16667 C 6.66 g/m*3 5.1 C 10.76667 km/h
415 29-12-2013 18:00:00 3.62 C 6.2 g/m*3 3.62 C 3.84 km/h
416 29-12-2013 21:00:00 2.95 C 5.57 g/m*3 2.95 C 4.8 km/h
417 29-12-2013 22:00:00 3.375 C 5.74 g/m*3 3.38 C 4.95833 km/h
418 29-12-2013 23:00:00 2.65 C 5.51 g/m*3 2.65 C 2.54167 km/h
419 30-12-2013 00:00:00 3.13333 C 5.66 g/m*3 3.13 C 3.48333 km/h
420 30-12-2013 01:00:00 3.69167 C 5.82 g/m*3 3.69 C 2.80833 km/h
421 30-12-2013 02:00:00 4.26667 C 5.86 g/m*3 4.27 C 3.6 km/h
422 30-12-2013 03:00:00 3.89167 C 5.75 g/m*3 3.89 C 3.73333 km/h
423 30-12-2013 04:00:00 4.35 C 5.8 g/m*3 4.35 C 3.60833 km/h
424 30-12-2013 05:00:00 4.66667 C 5.76 g/m*3 4.67 C 3.075 km/h
425 30-12-2013 06:00:00 4.82 C 5.68 g/m*3 4.82 C 3.2 km/h
Sensor: Nr:Datum:Temp:Abs-Feuchte:Windchill:Wind:
Aussen-T/F 426 30-12-2013 07:00:00 4.8 C 5.63 g/m*3 4.8 C 3.2 km/h
427 30-12-2013 13:00:00 6 C 5.81 g/m*3 4.73 C 6.45 km/h
428 30-12-2013 14:00:00 5.77143 C 5.81 g/m*3 5.77 C 3.2 km/h
429 30-12-2013 15:00:00 4.7 C 5.86 g/m*3 4.7 C 2.4 km/h
430 30-12-2013 16:00:00 4.2 C 5.8 g/m*3 4.2 C 1.6 km/h
431 30-12-2013 18:00:00 4.16667 C 5.79 g/m*3 4.17 C 2.66667 km/h
432 30-12-2013 20:00:00 3.7 C 5.73 g/m*3 3.7 C 0 km/h
433 30-12-2013 21:00:00 3.70833 C 5.74 g/m*3 3.71 C 0 km/h
434 30-12-2013 22:00:00 3.8 C 5.77 g/m*3 3.8 C 0.53333 km/h
435 31-12-2013 01:00:00 3.33333 C 5.53 g/m*3 3.33 C 3.2 km/h
436 31-12-2013 02:00:00 3.2 C 5.48 g/m*3 3.2 C 3.2 km/h
437 31-12-2013 07:00:00 1.02727 C 4.96 g/m*3 1.03 C 2.03636 km/h
438 31-12-2013 08:00:00 1.075 C 4.96 g/m*3 1.08 C 0.4 km/h
439 31-12-2013 09:00:00 1.15 C 5 g/m*3 1.15 C 0.13333 km/h
440 31-12-2013 10:00:00 1.78333 C 5.26 g/m*3 1.78 C 0.26667 km/h
441 31-12-2013 11:00:00 2.7 C 5.56 g/m*3 2.7 C 0.64 km/h
442 31-12-2013 12:00:00 3.1 C 5.78 g/m*3 3.1 C 2.4 km/h
443 31-12-2013 13:00:00 4.35 C 5.92 g/m*3 4.35 C 1.2 km/h
444 31-12-2013 18:00:00 4.14444 C 5.4 g/m*3 1.93 C 8.76667 km/h
445 31-12-2013 19:00:00 4.60833 C 5.38 g/m*3 2.59 C 8.325 km/h
446 31-12-2013 20:00:00 4.35833 C 5.39 g/m*3 3.11 C 5.63333 km/h
447 31-12-2013 21:00:00 3.925 C 5.39 g/m*3 3.93 C 3.20833 km/h
448 31-12-2013 22:00:00 3.8 C 5.29 g/m*3 3.8 C 4.55 km/h
449 31-12-2013 23:00:00 2.775 C 5.23 g/m*3 2.78 C 2.13333 km/h
450 01-01-2014 00:00:00 2.65 C 5.19 g/m*3 2.65 C 1.46667 km/h
Sensor: Nr:Datum:Temp:Abs-Feuchte:Windchill:Wind:
Aussen-T/F 451 01-01-2014 01:00:00 3 C 5.35 g/m*3 3 C 1.2 km/h
452 01-01-2014 02:00:00 3.675 C 5.46 g/m*3 3.68 C 2.80833 km/h
453 01-01-2014 03:00:00 4.36667 C 5.71 g/m*3 4.37 C 2 km/h
454 01-01-2014 04:00:00 4.60833 C 5.98 g/m*3 4.61 C 1.46667 km/h
455 01-01-2014 05:00:00 5.16667 C 6.13 g/m*3 5.17 C 1.86667 km/h
456 01-01-2014 06:00:00 5.48333 C 6.37 g/m*3 5.48 C 0.66667 km/h
457 01-01-2014 07:00:00 5.575 C 6.53 g/m*3 5.58 C 0.53333 km/h
458 01-01-2014 08:00:00 5.025 C 6.34 g/m*3 5.03 C 2.26667 km/h
459 01-01-2014 09:00:00 5.1 C 6.48 g/m*3 5.1 C 1.24444 km/h
460 01-01-2014 10:00:00 6.325 C 6.68 g/m*3 6.33 C 1.6 km/h
461 01-01-2014 11:00:00 7.025 C 6.8 g/m*3 7.03 C 2.54167 km/h
462 01-01-2014 12:00:00 6.95833 C 6.82 g/m*3 6.96 C 2.93333 km/h
463 01-01-2014 13:00:00 8.69167 C 6.7 g/m*3 8.69 C 4.14167 km/h
464 01-01-2014 14:00:00 8.78333 C 6.79 g/m*3 8.78 C 4.68333 km/h
465 01-01-2014 15:00:00 8.39167 C 6.83 g/m*3 8.39 C 2.8 km/h
466 01-01-2014 16:00:00 7.6 C 6.76 g/m*3 7.6 C 4.55 km/h
467 01-01-2014 17:00:00 7.8 C 6.87 g/m*3 7.01 C 5.76667 km/h
468 01-01-2014 18:00:00 7.95 C 6.98 g/m*3 6.75 C 7.38333 km/h
469 01-01-2014 19:00:00 8.15 C 6.91 g/m*3 7.29 C 6.175 km/h
470 01-01-2014 20:00:00 7.91667 C 6.93 g/m*3 7.92 C 4.81667 km/h
471 01-01-2014 21:00:00 8.5 C 6.97 g/m*3 7.59 C 6.575 km/h
472 01-01-2014 22:00:00 8.13333 C 6.98 g/m*3 7.57 C 5.21667 km/h
473 01-01-2014 23:00:00 8.04167 C 7.02 g/m*3 7.42 C 5.35 km/h
474 02-01-2014 00:00:00 8.63333 C 7.11 g/m*3 8.09 C 5.35833 km/h
475 02-01-2014 01:00:00 8.89167 C 7.19 g/m*3 8.34 C 5.49167 km/h
Sensor: Nr:Datum:Temp:Abs-Feuchte:Windchill:Wind:
Aussen-T/F 476 02-01-2014 02:00:00 9.375 C 7.42 g/m*3 8.51 C 6.96667 km/h
477 02-01-2014 03:00:00 8.95833 C 7.53 g/m*3 8.96 C 4.95 km/h
478 02-01-2014 04:00:00 8.1 C 7.57 g/m*3 8.1 C 4.8 km/h
479 02-01-2014 05:00:00 7.69167 C 7.57 g/m*3 7.69 C 3.46667 km/h
480 02-01-2014 06:00:00 7.7 C 7.66 g/m*3 7.7 C 3.2 km/h
481 02-01-2014 07:00:00 7.84545 C 7.78 g/m*3 7.85 C 3.64545 km/h
482 02-01-2014 08:00:00 8.8 C 8.18 g/m*3 7.47 C 8.6 km/h
483 02-01-2014 09:00:00 9.08 C 8.05 g/m*3 9.08 C 3.52 km/h
484 02-01-2014 10:00:00 9.53333 C 8.18 g/m*3 9.53 C 4.68333 km/h
485 02-01-2014 11:00:00 10.38333 C 8.52 g/m*3 10.38 C 4.66667 km/h
486 02-01-2014 12:00:00 11.01667 C 8.3 g/m*3 11.02 C 9.79167 km/h
487 02-01-2014 13:00:00 10.89167 C 7.94 g/m*3 8.96 C 15.43333 km/h
488 02-01-2014 14:00:00 10.54167 C 7.84 g/m*3 8.63 C 14.63333 km/h
489 02-01-2014 15:00:00 9.29167 C 7.74 g/m*3 8.13 C 8.2 km/h
490 02-01-2014 16:00:00 8.70833 C 7.31 g/m*3 7.23 C 9.275 km/h
491 02-01-2014 17:00:00 7.71111 C 7.08 g/m*3 7.71 C 4.45556 km/h
492 02-01-2014 18:00:00 6.81667 C 7.02 g/m*3 6.82 C 2.8 km/h
493 02-01-2014 19:00:00 6.80833 C 7.14 g/m*3 6.81 C 3.2 km/h
494 02-01-2014 20:00:00 6.31667 C 7.01 g/m*3 6.32 C 2.93333 km/h
495 02-01-2014 21:00:00 6.06667 C 6.88 g/m*3 6.07 C 2.66667 km/h
496 02-01-2014 22:00:00 5.85 C 6.8 g/m*3 5.85 C 2.13333 km/h
497 02-01-2014 23:00:00 4.95833 C 6.43 g/m*3 4.96 C 0.13333 km/h
498 03-01-2014 00:00:00 4.025 C 6.1 g/m*3 4.03 C 0.26667 km/h
499 03-01-2014 01:00:00 3.80833 C 6.06 g/m*3 3.81 C 0.26667 km/h
500 03-01-2014 02:00:00 4.39167 C 6.33 g/m*3 4.39 C 1.73333 km/h
Sensor: Nr:Datum:Temp:Abs-Feuchte:Windchill:Wind:
Aussen-T/F 501 03-01-2014 03:00:00 5.03333 C 6.63 g/m*3 5.03 C 2.26667 km/h
502 03-01-2014 04:00:00 6.08333 C 7.02 g/m*3 6.08 C 3.46667 km/h
503 03-01-2014 05:00:00 5.925 C 6.8 g/m*3 5.93 C 3.48333 km/h
504 03-01-2014 06:00:00 5.71667 C 6.81 g/m*3 5.72 C 3.33333 km/h
505 03-01-2014 07:00:00 5.91667 C 6.9 g/m*3 5.92 C 2.8 km/h
506 03-01-2014 08:00:00 6.175 C 7.05 g/m*3 6.18 C 1.2 km/h
507 03-01-2014 09:00:00 7.31667 C 7.34 g/m*3 7.32 C 4.94167 km/h
508 03-01-2014 10:00:00 9.15 C 7.83 g/m*3 8.38 C 6.43333 km/h
509 03-01-2014 11:00:00 9.28333 C 8.08 g/m*3 8.83 C 5.36667 km/h
510 03-01-2014 12:00:00 10.55 C 8.46 g/m*3 8.95 C 12.225 km/h
511 03-01-2014 13:00:00 11.08333 C 8.48 g/m*3 11.08 C 8.18333 km/h
512 03-01-2014 14:00:00 12.00833 C 8.41 g/m*3 12.01 C 8.59167 km/h
513 03-01-2014 15:00:00 11.86667 C 8.37 g/m*3 11.87 C 4.68333 km/h
514 03-01-2014 16:00:00 11.06667 C 8.28 g/m*3 11.07 C 4.68333 km/h
515 03-01-2014 17:00:00 10.85 C 8.18 g/m*3 10.41 C 6.16667 km/h
516 03-01-2014 18:00:00 10.96667 C 8.17 g/m*3 10.08 C 8.33333 km/h
517 03-01-2014 19:00:00 11.86667 C 8.16 g/m*3 11.87 C 11.01667 km/h
518 03-01-2014 20:00:00 12.36667 C 8.05 g/m*3 12.37 C 20.78333 km/h
519 03-01-2014 21:00:00 12.08333 C 7.84 g/m*3 12.08 C 20.375 km/h
520 03-01-2014 22:00:00 11.55 C 7.49 g/m*3 11.55 C 16.63333 km/h
521 03-01-2014 23:00:00 10.88333 C 6.91 g/m*3 8.92 C 15.7 km/h
522 04-01-2014 00:00:00 9.73333 C 6.63 g/m*3 8.23 C 10.475 km/h
523 04-01-2014 01:00:00 8.58333 C 6.7 g/m*3 8.04 C 5.35 km/h
524 04-01-2014 02:00:00 7.55833 C 6.71 g/m*3 7.56 C 4.80833 km/h
525 04-01-2014 03:00:00 7.925 C 6.75 g/m*3 7.93 C 4.54167 km/h
Sensor: Nr:Datum:Temp:Abs-Feuchte:Windchill:Wind:
Aussen-T/F 526 04-01-2014 04:00:00 7.38333 C 6.81 g/m*3 7.38 C 2.66667 km/h
527 04-01-2014 05:00:00 6.20833 C 6.56 g/m*3 6.21 C 3.2 km/h
528 04-01-2014 06:00:00 5.3 C 6.37 g/m*3 5.3 C 3.6 km/h
529 04-01-2014 07:00:00 6.10833 C 6.59 g/m*3 5.17 C 5.48333 km/h
530 04-01-2014 08:00:00 7.01667 C 6.74 g/m*3 5.8 C 6.85 km/h
531 04-01-2014 09:00:00 7.20833 C 6.81 g/m*3 6.1 C 6.55 km/h
532 04-01-2014 10:00:00 7.91667 C 7.07 g/m*3 6.84 C 6.85 km/h
533 04-01-2014 11:00:00 8.275 C 7.14 g/m*3 7.09 C 7.51667 km/h
534 04-01-2014 12:00:00 9.04167 C 7.23 g/m*3 8.64 C 5.075 km/h
535 04-01-2014 13:00:00 9.41667 C 7.28 g/m*3 8.46 C 7.375 km/h
536 04-01-2014 14:00:00 9.04167 C 7.31 g/m*3 9.04 C 2.40833 km/h
537 04-01-2014 15:00:00 7.9 C 7.63 g/m*3 7.9 C 0.13333 km/h
538 04-01-2014 16:00:00 7.28333 C 7.53 g/m*3 7.28 C 0 km/h
539 04-01-2014 17:00:00 6.71667 C 7.3 g/m*3 6.72 C 0.26667 km/h
540 04-01-2014 18:00:00 6.66667 C 7.32 g/m*3 6.67 C 1.475 km/h
541 04-01-2014 19:00:00 6.59167 C 7.31 g/m*3 6.59 C 2 km/h
542 04-01-2014 20:00:00 6.575 C 7.31 g/m*3 6.58 C 0.4 km/h
543 04-01-2014 21:00:00 7.04167 C 7.54 g/m*3 7.04 C 2.4 km/h
544 04-01-2014 22:00:00 6.89167 C 7.39 g/m*3 6.89 C 2.8 km/h
545 04-01-2014 23:00:00 6.90833 C 7.45 g/m*3 6.91 C 3.73333 km/h
546 05-01-2014 00:00:00 6.85833 C 7.45 g/m*3 6.86 C 3.06667 km/h
547 05-01-2014 01:00:00 7.225 C 7.63 g/m*3 7.23 C 2.66667 km/h
548 05-01-2014 02:00:00 7.45 C 7.68 g/m*3 7.45 C 1.33333 km/h
549 05-01-2014 03:00:00 7.74167 C 7.68 g/m*3 6.75 C 6.425 km/h
550 05-01-2014 04:00:00 7.39167 C 7.46 g/m*3 7.39 C 3.86667 km/h
Sensor: Nr:Datum:Temp:Abs-Feuchte:Windchill:Wind:
Aussen-T/F 551 05-01-2014 05:00:00 7.10833 C 7.45 g/m*3 7.11 C 4.01667 km/h
552 05-01-2014 06:00:00 6.94167 C 7.33 g/m*3 6.94 C 4.4 km/h
553 05-01-2014 07:00:00 6.85833 C 7.1 g/m*3 5.65 C 6.70833 km/h
554 05-01-2014 08:00:00 6.00833 C 6.62 g/m*3 5.01 C 5.61667 km/h
555 05-01-2014 09:00:00 6 C 6.52 g/m*3 5.14 C 5.20833 km/h
556 05-01-2014 10:00:00 6.15833 C 6.48 g/m*3 4.92 C 6.43333 km/h
557 05-01-2014 11:00:00 6.5875 C 6.37 g/m*3 4.8 C 8.8625 km/h
558 05-01-2014 13:00:00 6.46667 C 6.24 g/m*3 4.07 C 11.8 km/h
559 05-01-2014 16:00:00 5.76667 C 6.12 g/m*3 4.82 C 5.36667 km/h
560 05-01-2014 17:00:00 5.6 C 6.23 g/m*3 5.6 C 2.74286 km/h
561 05-01-2014 18:00:00 5.79167 C 6.17 g/m*3 5.79 C 1.86667 km/h
562 05-01-2014 19:00:00 5.875 C 6.13 g/m*3 5.88 C 2.53333 km/h
563 05-01-2014 20:00:00 4.34167 C 5.83 g/m*3 4.34 C 2.26667 km/h
564 05-01-2014 21:00:00 3.85 C 5.76 g/m*3 3.85 C 2.8 km/h
565 05-01-2014 22:00:00 4.71667 C 6.01 g/m*3 4.72 C 2.13333 km/h
566 05-01-2014 23:00:00 3.925 C 5.78 g/m*3 3.93 C 2.93333 km/h
567 06-01-2014 00:00:00 3.31667 C 5.65 g/m*3 3.32 C 2.4 km/h
568 06-01-2014 01:00:00 3.59167 C 5.76 g/m*3 3.59 C 2.40833 km/h
569 06-01-2014 02:00:00 3.8 C 5.87 g/m*3 3.8 C 2.8 km/h
570 06-01-2014 03:00:00 5.075 C 6.28 g/m*3 5.08 C 3.06667 km/h
571 06-01-2014 04:00:00 5.69167 C 6.44 g/m*3 5.69 C 2.4 km/h
572 06-01-2014 05:00:00 5.95 C 6.44 g/m*3 5.95 C 1.73333 km/h
573 06-01-2014 06:00:00 6.25833 C 6.57 g/m*3 6.26 C 1.2 km/h
574 06-01-2014 07:00:00 6.51667 C 6.78 g/m*3 6.52 C 1.6 km/h
575 06-01-2014 08:00:00 7.2 C 7.2 g/m*3 7.2 C 1.46667 km/h
Sensor: Nr:Datum:Temp:Abs-Feuchte:Windchill:Wind:
Aussen-T/F 576 06-01-2014 09:00:00 8.21667 C 7.64 g/m*3 8.22 C 1.46667 km/h
577 06-01-2014 10:00:00 8.8 C 7.88 g/m*3 8.8 C 3.06667 km/h
578 06-01-2014 11:00:00 9.80833 C 8.22 g/m*3 9.81 C 3.475 km/h
579 06-01-2014 12:00:00 11.475 C 8.68 g/m*3 11.48 C 4.66667 km/h
580 06-01-2014 13:00:00 12.00833 C 8.73 g/m*3 12.01 C 3.475 km/h
581 06-01-2014 14:00:00 11.71667 C 8.42 g/m*3 11.72 C 4.00833 km/h
582 06-01-2014 15:00:00 10.71667 C 8.23 g/m*3 10.72 C 2.26667 km/h
583 06-01-2014 16:00:00 10.475 C 7.95 g/m*3 10.48 C 4.54167 km/h
584 06-01-2014 17:00:00 9.81667 C 7.97 g/m*3 9.82 C 2.94167 km/h
585 06-01-2014 18:00:00 10.275 C 8.08 g/m*3 10.28 C 4.80833 km/h
586 06-01-2014 19:00:00 10.65 C 8.52 g/m*3 10.47 C 5.08333 km/h
587 06-01-2014 20:00:00 9.79167 C 8.72 g/m*3 9.79 C 4.13333 km/h
588 06-01-2014 21:00:00 9.74167 C 8.78 g/m*3 9.74 C 3.33333 km/h
589 06-01-2014 22:00:00 9.61667 C 8.68 g/m*3 9.62 C 2.66667 km/h
590 06-01-2014 23:00:00 9.60833 C 8.65 g/m*3 8.68 C 7.38333 km/h
591 07-01-2014 00:00:00 10.76667 C 9.04 g/m*3 8.7 C 16.375 km/h
592 07-01-2014 01:00:00 10.70833 C 8.68 g/m*3 9.49 C 9.94167 km/h
593 07-01-2014 02:00:00 10.325 C 8.74 g/m*3 9.38 C 8.05833 km/h
594 07-01-2014 03:00:00 9.91667 C 8.47 g/m*3 9.45 C 5.74167 km/h
595 07-01-2014 04:00:00 9.28333 C 8.36 g/m*3 9.28 C 3.74167 km/h
596 07-01-2014 05:00:00 10.30833 C 8.25 g/m*3 9.44 C 7.64167 km/h
597 07-01-2014 06:00:00 10.31667 C 8.07 g/m*3 9.83 C 6.03333 km/h
598 07-01-2014 07:00:00 9.64167 C 7.91 g/m*3 9.64 C 4.8 km/h
599 07-01-2014 08:00:00 9.66667 C 7.87 g/m*3 9.27 C 5.35 km/h
600 07-01-2014 09:00:00 10.69167 C 7.91 g/m*3 9.65 C 8.86667 km/h
Sensor: Nr:Datum:Temp:Abs-Feuchte:Windchill:Wind:
Aussen-T/F 601 07-01-2014 10:00:00 11.35833 C 8.12 g/m*3 11.36 C 10.46667 km/h
602 07-01-2014 11:00:00 11.81667 C 8.24 g/m*3 11.82 C 8.59167 km/h
603 07-01-2014 12:00:00 11.84167 C 8.39 g/m*3 11.84 C 6.84167 km/h
604 07-01-2014 13:00:00 11.55 C 8.66 g/m*3 11.55 C 3.34167 km/h
605 07-01-2014 14:00:00 12.93333 C 8.39 g/m*3 12.93 C 6.975 km/h
606 07-01-2014 15:00:00 13.25 C 8.11 g/m*3 13.25 C 6.7 km/h
607 07-01-2014 16:00:00 11.85833 C 8.34 g/m*3 11.86 C 3.06667 km/h
608 07-01-2014 17:00:00 10.63333 C 8.39 g/m*3 10.63 C 2 km/h
609 07-01-2014 18:00:00 10.25 C 8.35 g/m*3 10.25 C 3.06667 km/h
610 07-01-2014 19:00:00 10.4 C 8.66 g/m*3 10.4 C 2.13333 km/h
611 07-01-2014 20:00:00 9.63333 C 8.6 g/m*3 9.63 C 1.86667 km/h
612 07-01-2014 21:00:00 9.79167 C 8.78 g/m*3 9.79 C 2.66667 km/h
613 07-01-2014 22:00:00 10.14167 C 8.8 g/m*3 10.14 C 2.26667 km/h
614 07-01-2014 23:00:00 10.40833 C 8.92 g/m*3 10.41 C 2.93333 km/h
615 08-01-2014 00:00:00 11.3 C 9.06 g/m*3 11.3 C 5.48333 km/h
616 08-01-2014 01:00:00 11.525 C 9.06 g/m*3 11.53 C 7.38333 km/h
617 08-01-2014 02:00:00 11.525 C 9.09 g/m*3 11.53 C 5.35 km/h
618 08-01-2014 03:00:00 11.08333 C 9.06 g/m*3 11.08 C 4.28333 km/h
619 08-01-2014 04:00:00 10.84167 C 9.09 g/m*3 10.84 C 3.34167 km/h
620 08-01-2014 05:00:00 11.51667 C 9.12 g/m*3 11.52 C 10.06667 km/h
621 08-01-2014 06:00:00 12.175 C 9.02 g/m*3 12.18 C 13.56667 km/h
622 08-01-2014 07:00:00 11.95833 C 8.82 g/m*3 11.96 C 10.9 km/h
623 08-01-2014 08:00:00 11.45 C 8.61 g/m*3 11.45 C 9.28333 km/h
624 08-01-2014 09:00:00 11.33333 C 8.48 g/m*3 11.33 C 8.06667 km/h
625 08-01-2014 10:00:00 11.52 C 8.46 g/m*3 11.52 C 9.68 km/h
Sensor: Nr:Datum:Temp:Abs-Feuchte:Windchill:Wind:
Aussen-T/F 626 08-01-2014 11:00:00 11.175 C 8.35 g/m*3 11.18 C 7.375 km/h
627 08-01-2014 12:00:00 11.25833 C 8.27 g/m*3 11.26 C 6.43333 km/h
628 08-01-2014 13:00:00 12.45833 C 8.34 g/m*3 12.46 C 10.06667 km/h
629 08-01-2014 14:00:00 12.03333 C 8.38 g/m*3 12.03 C 8.04167 km/h
630 08-01-2014 15:00:00 11.49167 C 8.25 g/m*3 11.49 C 8.45833 km/h
631 08-01-2014 16:00:00 10.38333 C 8.09 g/m*3 10.13 C 5.20833 km/h
632 08-01-2014 17:00:00 9.00833 C 7.92 g/m*3 9.01 C 2.66667 km/h
633 08-01-2014 18:00:00 8.2 C 7.7 g/m*3 8.2 C 1.33333 km/h
634 08-01-2014 19:00:00 7.325 C 7.47 g/m*3 7.33 C 0.26667 km/h
635 08-01-2014 20:00:00 6.98333 C 7.37 g/m*3 6.98 C 0.13333 km/h
636 08-01-2014 21:00:00 6.63333 C 7.26 g/m*3 6.63 C 0 km/h
637 08-01-2014 22:00:00 6.26667 C 7.09 g/m*3 6.27 C 0 km/h
638 09-01-2014 01:00:00 6.5 C 7.27 g/m*3 6.5 C 0.26667 km/h
639 09-01-2014 02:00:00 6.7 C 7.37 g/m*3 6.7 C 0.26667 km/h
640 09-01-2014 03:00:00 6.68333 C 7.36 g/m*3 6.68 C 0.4 km/h
641 09-01-2014 04:00:00 6.75833 C 7.4 g/m*3 6.76 C 0.8 km/h
642 09-01-2014 05:00:00 7 C 7.59 g/m*3 7 C 1.30909 km/h
643 09-01-2014 07:00:00 9.425 C 8.45 g/m*3 9.1 C 5 km/h
644 09-01-2014 08:00:00 9.53333 C 8.16 g/m*3 9.53 C 2.54167 km/h
645 09-01-2014 09:00:00 9.33333 C 8.2 g/m*3 9.33 C 2.53333 km/h
646 09-01-2014 10:00:00 10.01667 C 8.42 g/m*3 10.02 C 2.53333 km/h
647 09-01-2014 11:00:00 11.28333 C 8.54 g/m*3 11.28 C 8.19167 km/h
648 09-01-2014 12:00:00 12.46667 C 8.55 g/m*3 12.47 C 12.23333 km/h
649 09-01-2014 13:00:00 12.7 C 8.57 g/m*3 12.7 C 13.96667 km/h
650 09-01-2014 14:00:00 12.71667 C 8.6 g/m*3 12.72 C 18.64167 km/h
Sensor: Nr:Datum:Temp:Abs-Feuchte:Windchill:Wind:
Aussen-T/F 651 09-01-2014 15:00:00 11.45833 C 8.59 g/m*3 11.46 C 16.1 km/h
652 09-01-2014 16:00:00 10.44167 C 8.17 g/m*3 8.19 C 17.43333 km/h
653 09-01-2014 17:00:00 9.94167 C 8.04 g/m*3 7.79 C 15.43333 km/h
654 09-01-2014 18:00:00 9.91667 C 7.84 g/m*3 7.49 C 17.83333 km/h
655 09-01-2014 19:00:00 9.71667 C 7.78 g/m*3 7.27 C 17.575 km/h
656 09-01-2014 20:00:00 9.53333 C 7.25 g/m*3 7.35 C 14.9 km/h
657 09-01-2014 21:00:00 8.49167 C 6.36 g/m*3 6.14 C 14.35833 km/h
658 09-01-2014 22:00:00 6.95 C 5.84 g/m*3 5.48 C 7.79167 km/h
659 09-01-2014 23:00:00 6.425 C 5.86 g/m*3 6.43 C 4.275 km/h
660 10-01-2014 00:00:00 5.925 C 6.16 g/m*3 5.93 C 0 km/h
661 10-01-2014 01:00:00 5.7 C 6.3 g/m*3 5.7 C 1.33333 km/h
662 10-01-2014 02:00:00 6.2 C 6.35 g/m*3 6.2 C 3.86667 km/h
663 10-01-2014 03:00:00 5.88333 C 6.22 g/m*3 5.88 C 4.68333 km/h
664 10-01-2014 04:00:00 4.79167 C 5.95 g/m*3 4.79 C 4.80833 km/h
665 10-01-2014 05:00:00 5 C 5.95 g/m*3 3.02 C 8.45 km/h
666 10-01-2014 06:00:00 4.74167 C 5.91 g/m*3 3.76 C 5.075 km/h
667 10-01-2014 07:00:00 5.05833 C 6.02 g/m*3 3.05 C 8.61667 km/h
668 10-01-2014 08:00:00 5.41667 C 6.04 g/m*3 3 C 10.74167 km/h
669 10-01-2014 09:00:00 5.34167 C 6.1 g/m*3 3.7 C 7.38333 km/h
670 10-01-2014 10:00:00 5.69167 C 6.26 g/m*3 4.08 C 7.50833 km/h
671 10-01-2014 11:00:00 6.675 C 6.35 g/m*3 4.14 C 12.88333 km/h
672 10-01-2014 12:00:00 7.5 C 6.5 g/m*3 5.36 C 11.55 km/h
673 10-01-2014 13:00:00 7.71667 C 6.53 g/m*3 5.43 C 12.76667 km/h
674 10-01-2014 14:00:00 7.74167 C 6.59 g/m*3 5.89 C 10.20833 km/h
675 10-01-2014 15:00:00 7.85833 C 6.64 g/m*3 6.57 C 7.65 km/h
Sensor: Nr:Datum:Temp:Abs-Feuchte:Windchill:Wind:
Aussen-T/F 676 10-01-2014 16:00:00 6.5 C 6.37 g/m*3 6.5 C 4.26667 km/h
677 10-01-2014 17:00:00 5.1 C 6.12 g/m*3 5.1 C 3.6 km/h
678 10-01-2014 18:00:00 5.08333 C 6.06 g/m*3 4.15 C 5.06667 km/h
679 10-01-2014 19:00:00 5.36667 C 6.08 g/m*3 4.32 C 5.475 km/h
680 10-01-2014 20:00:00 4.7 C 5.91 g/m*3 4.7 C 4 km/h
681 10-01-2014 21:00:00 4.075 C 5.81 g/m*3 4.08 C 1.46667 km/h
682 10-01-2014 22:00:00 3.25 C 5.64 g/m*3 3.25 C 0.4 km/h
683 10-01-2014 23:00:00 3.05833 C 5.64 g/m*3 3.06 C 0 km/h
684 11-01-2014 00:00:00 2.525 C 5.47 g/m*3 2.53 C 0 km/h
685 11-01-2014 01:00:00 2.08333 C 5.31 g/m*3 2.08 C 0.13333 km/h
686 11-01-2014 02:00:00 1.78333 C 5.25 g/m*3 1.78 C 0.4 km/h
687 11-01-2014 03:00:00 1.54167 C 5.17 g/m*3 1.54 C 0.26667 km/h
688 11-01-2014 04:00:00 1.35 C 5.11 g/m*3 1.35 C 0.4 km/h
689 11-01-2014 05:00:00 0.89167 C 4.97 g/m*3 0.89 C 0 km/h
690 11-01-2014 06:00:00 1.10833 C 5.07 g/m*3 1.11 C 0.66667 km/h
691 11-01-2014 07:00:00 1.4 C 5.17 g/m*3 1.4 C 1.73333 km/h
692 11-01-2014 08:00:00 1.86667 C 5.34 g/m*3 1.87 C 1.2 km/h
693 11-01-2014 09:00:00 2.25833 C 5.49 g/m*3 2.26 C 0 km/h
694 11-01-2014 10:00:00 2.6 C 5.61 g/m*3 2.6 C 0.26667 km/h
695 11-01-2014 11:00:00 3.79167 C 6.12 g/m*3 3.79 C 2.81667 km/h
696 11-01-2014 12:00:00 5.975 C 6.68 g/m*3 3.92 C 9.55833 km/h
697 11-01-2014 13:00:00 6.85 C 6.71 g/m*3 5.14 C 8.73333 km/h
698 11-01-2014 14:00:00 7.66667 C 6.81 g/m*3 5.41 C 12.48333 km/h
699 11-01-2014 15:00:00 7.13333 C 6.79 g/m*3 5.5 C 8.59167 km/h
700 11-01-2014 16:00:00 7.36667 C 6.99 g/m*3 5.47 C 10.09167 km/h
Sensor: Nr:Datum:Temp:Abs-Feuchte:Windchill:Wind:
Aussen-T/F 701 11-01-2014 17:00:00 6.41667 C 7.01 g/m*3 5.56 C 5.36667 km/h
702 11-01-2014 18:00:00 6.24167 C 6.59 g/m*3 5.02 C 6.43333 km/h
703 11-01-2014 19:00:00 5.69167 C 6.31 g/m*3 5.69 C 4.43333 km/h
704 11-01-2014 20:00:00 4.46667 C 6.04 g/m*3 4.47 C 3.06667 km/h
705 11-01-2014 21:00:00 4.33333 C 5.92 g/m*3 4.33 C 4.66667 km/h
706 11-01-2014 22:00:00 3.45833 C 5.63 g/m*3 3.46 C 2.8 km/h
707 11-01-2014 23:00:00 2.49167 C 5.41 g/m*3 2.49 C 2 km/h
708 12-01-2014 00:00:00 2 C 5.28 g/m*3 2 C 3.06667 km/h
709 12-01-2014 01:00:00 1.575 C 5.13 g/m*3 1.58 C 3.74167 km/h
710 12-01-2014 02:00:00 1.1 C 4.97 g/m*3 -1.12 C 6.99167 km/h
711 12-01-2014 03:00:00 0.96667 C 4.97 g/m*3 -1.86 C 8.86667 km/h
712 12-01-2014 04:00:00 1.24167 C 5.07 g/m*3 -1.54 C 8.88333 km/h
713 12-01-2014 05:00:00 1.19167 C 5.05 g/m*3 -1.01 C 6.96667 km/h
714 12-01-2014 06:00:00 0.69167 C 4.88 g/m*3 0.69 C 2.4 km/h
715 12-01-2014 07:00:00 0.54167 C 4.87 g/m*3 0.54 C 3.86667 km/h
716 12-01-2014 08:00:00 0.11667 C 4.74 g/m*3 0.12 C 3.75 km/h
717 12-01-2014 09:00:00 -0.00833 C 4.7 g/m*3 -0.01 C 2 km/h
718 12-01-2014 10:00:00 0.15 C 4.75 g/m*3 0.15 C 4.95 km/h
719 12-01-2014 11:00:00 0.25833 C 4.81 g/m*3 -1.57 C 5.625 km/h
720 12-01-2014 12:00:00 0.46667 C 4.9 g/m*3 0.47 C 2.26667 km/h
721 12-01-2014 13:00:00 0.84167 C 5.03 g/m*3 0.84 C 2.26667 km/h
722 12-01-2014 14:00:00 1.35 C 5.21 g/m*3 1.35 C 2 km/h
723 12-01-2014 15:00:00 1.28571 C 5.19 g/m*3 1.29 C 2.74286 km/h
724 12-01-2014 16:00:00 1 C 5.09 g/m*3 1 C 1.2 km/h
725 12-01-2014 17:00:00 0.1875 C 4.81 g/m*3 0.19 C 0.6 km/h
Sensor: Nr:Datum:Temp:Abs-Feuchte:Windchill:Wind:
Aussen-T/F 726 12-01-2014 18:00:00 -0.26667 C 4.66 g/m*3 -0.27 C 0.8 km/h
727 12-01-2014 19:00:00 -0.55833 C 4.57 g/m*3 -0.56 C 0.4 km/h
728 12-01-2014 20:00:00 -0.80833 C 4.49 g/m*3 -0.81 C 1.2 km/h
729 12-01-2014 21:00:00 -1.225 C 4.36 g/m*3 -1.23 C 2.53333 km/h
730 12-01-2014 22:00:00 -1.55 C 4.26 g/m*3 -1.55 C 2.66667 km/h
731 12-01-2014 23:00:00 -1.7 C 4.22 g/m*3 -1.7 C 2 km/h
732 13-01-2014 00:00:00 -1.7 C 4.22 g/m*3 -1.7 C 0.26667 km/h
733 13-01-2014 01:00:00 -1.68333 C 4.22 g/m*3 -1.68 C 0.26667 km/h
734 13-01-2014 02:00:00 -1.08333 C 4.4 g/m*3 -1.08 C 0.66667 km/h
735 13-01-2014 03:00:00 -0.20833 C 4.68 g/m*3 -0.21 C 2.13333 km/h
736 13-01-2014 04:00:00 0.24167 C 4.83 g/m*3 0.24 C 2.13333 km/h
737 13-01-2014 05:00:00 1.05833 C 5.11 g/m*3 1.06 C 0.53333 km/h
738 13-01-2014 06:00:00 1.825 C 5.38 g/m*3 1.83 C 1.2 km/h
739 13-01-2014 07:00:00 2.33333 C 5.57 g/m*3 2.33 C 0.4 km/h
740 13-01-2014 08:00:00 2.65833 C 5.69 g/m*3 2.66 C 0.53333 km/h
741 13-01-2014 09:00:00 3.18333 C 5.9 g/m*3 3.18 C 0 km/h
742 13-01-2014 10:00:00 3.83333 C 6.19 g/m*3 3.83 C 0.53333 km/h
743 13-01-2014 11:00:00 5.125 C 6.77 g/m*3 5.13 C 2.26667 km/h
744 13-01-2014 12:00:00 6.38333 C 7.31 g/m*3 4.78 C 7.91667 km/h
745 13-01-2014 13:00:00 7.875 C 7.34 g/m*3 6.8 C 6.84167 km/h
746 13-01-2014 14:00:00 8.025 C 7.13 g/m*3 6.87 C 7.24167 km/h
747 13-01-2014 15:00:00 7.38333 C 7.12 g/m*3 7.38 C 1.2 km/h
748 13-01-2014 16:00:00 6.675 C 7.05 g/m*3 6.68 C 2 km/h
749 13-01-2014 17:00:00 6.20833 C 6.97 g/m*3 6.21 C 0.26667 km/h
750 13-01-2014 18:00:00 6.14167 C 6.99 g/m*3 6.14 C 0 km/h
Sensor: Nr:Datum:Temp:Abs-Feuchte:Windchill:Wind:
Aussen-T/F 751 13-01-2014 19:00:00 6.025 C 6.98 g/m*3 6.03 C 0 km/h
752 13-01-2014 20:00:00 5.73333 C 6.85 g/m*3 5.73 C 0.26667 km/h
753 13-01-2014 21:00:00 5.3 C 6.63 g/m*3 5.3 C 0 km/h
754 13-01-2014 22:00:00 4.29167 C 6.22 g/m*3 4.29 C 0.13333 km/h
755 13-01-2014 23:00:00 3.94167 C 6.12 g/m*3 3.94 C 1.2 km/h
756 14-01-2014 00:00:00 3.875 C 6.08 g/m*3 3.88 C 2.13333 km/h
757 14-01-2014 01:00:00 3.5 C 5.96 g/m*3 3.5 C 2 km/h
758 14-01-2014 02:00:00 3.3 C 5.88 g/m*3 3.3 C 1.46667 km/h
759 14-01-2014 03:00:00 4.01667 C 6.2 g/m*3 4.02 C 0.26667 km/h
760 14-01-2014 04:00:00 4.325 C 6.32 g/m*3 4.33 C 1.06667 km/h
761 14-01-2014 05:00:00 5.35 C 6.65 g/m*3 3.99 C 6.41667 km/h
762 14-01-2014 06:00:00 5.18333 C 6.47 g/m*3 5.18 C 4.54167 km/h
763 14-01-2014 07:00:00 4.65 C 6.31 g/m*3 4.65 C 2.54167 km/h
764 14-01-2014 08:00:00 4.275 C 6.22 g/m*3 4.28 C 2.54167 km/h
765 14-01-2014 09:00:00 4.975 C 6.56 g/m*3 4.97 C 2.53333 km/h
766 14-01-2014 10:00:00 5.8 C 6.71 g/m*3 5.8 C 2.93333 km/h
767 14-01-2014 11:00:00 5.88 C 6.77 g/m*3 5.88 C 2.88 km/h
768 14-01-2014 12:00:00 6.9 C 7 g/m*3 6.9 C 2.62727 km/h
769 14-01-2014 13:00:00 7.55833 C 7.16 g/m*3 7.56 C 3.33333 km/h
770 14-01-2014 14:00:00 7.975 C 7.18 g/m*3 7.98 C 2.93333 km/h
771 14-01-2014 15:00:00 7.38333 C 7.13 g/m*3 7.38 C 1.73333 km/h
772 14-01-2014 16:00:00 7.23333 C 6.93 g/m*3 7.23 C 3.2 km/h
773 14-01-2014 17:00:00 6.34167 C 6.82 g/m*3 6.34 C 2.26667 km/h
774 14-01-2014 18:00:00 5.20833 C 6.54 g/m*3 5.21 C 1.33333 km/h
775 14-01-2014 19:00:00 3.575 C 5.93 g/m*3 3.58 C 1.73333 km/h
Sensor: Nr:Datum:Temp:Abs-Feuchte:Windchill:Wind:
Aussen-T/F 776 14-01-2014 20:00:00 3.21667 C 5.84 g/m*3 3.22 C 0 km/h
777 14-01-2014 21:00:00 3.36667 C 5.91 g/m*3 3.37 C 0.53333 km/h
778 14-01-2014 22:00:00 3.81667 C 6.12 g/m*3 3.82 C 0.26667 km/h
779 14-01-2014 23:00:00 4.375 C 6.35 g/m*3 4.38 C 2.13333 km/h
780 15-01-2014 00:00:00 4.8 C 6.48 g/m*3 4.8 C 2.26667 km/h
781 15-01-2014 01:00:00 4.9 C 6.45 g/m*3 4.9 C 2.53333 km/h
782 15-01-2014 02:00:00 4.8 C 6.31 g/m*3 4.8 C 2.53333 km/h
783 15-01-2014 03:00:00 4.75833 C 6.1 g/m*3 3.62 C 5.49167 km/h
784 15-01-2014 04:00:00 4.04167 C 5.61 g/m*3 2.91 C 5.225 km/h
785 15-01-2014 05:00:00 3.16667 C 5.48 g/m*3 3.17 C 2.66667 km/h
786 15-01-2014 06:00:00 2.10833 C 5.22 g/m*3 2.11 C 1.46667 km/h
787 15-01-2014 07:00:00 1.56667 C 5.11 g/m*3 1.57 C 2.53333 km/h
788 15-01-2014 08:00:00 1.74167 C 5.2 g/m*3 1.74 C 0.4 km/h
789 15-01-2014 09:00:00 2.275 C 5.42 g/m*3 2.28 C 0 km/h
790 15-01-2014 10:00:00 3.45833 C 5.67 g/m*3 3.46 C 1.2 km/h
791 15-01-2014 11:00:00 4.61667 C 5.77 g/m*3 4.62 C 1.86667 km/h
792 15-01-2014 12:00:00 5.55 C 5.91 g/m*3 5.55 C 4.40833 km/h
793 15-01-2014 13:00:00 5.89167 C 5.94 g/m*3 4.1 C 8.31667 km/h
794 15-01-2014 14:00:00 5.35833 C 6.01 g/m*3 4.26 C 5.625 km/h
795 15-01-2014 15:00:00 4.81667 C 6.12 g/m*3 4.82 C 1.86667 km/h
796 15-01-2014 16:00:00 4.46667 C 6.08 g/m*3 4.47 C 1.06667 km/h
797 15-01-2014 17:00:00 4.44167 C 6.09 g/m*3 4.44 C 1.86667 km/h
798 15-01-2014 18:00:00 4.725 C 6.04 g/m*3 4.72 C 2 km/h
799 15-01-2014 19:00:00 4.81667 C 6.11 g/m*3 4.82 C 1.6 km/h
800 15-01-2014 20:00:00 4.775 C 6.21 g/m*3 4.78 C 0.53333 km/h
Sensor: Nr:Datum:Temp:Abs-Feuchte:Windchill:Wind:
Aussen-T/F 801 15-01-2014 21:00:00 4.65 C 6.29 g/m*3 4.65 C 0.66667 km/h
802 15-01-2014 22:00:00 4.45833 C 6.29 g/m*3 4.46 C 0 km/h
803 15-01-2014 23:00:00 4.45833 C 6.36 g/m*3 4.46 C 0 km/h
804 16-01-2014 00:00:00 4.5 C 6.38 g/m*3 4.5 C 0 km/h
805 16-01-2014 01:00:00 4.65 C 6.44 g/m*3 4.65 C 0 km/h
806 16-01-2014 02:00:00 4.9 C 6.55 g/m*3 4.9 C 0 km/h
807 16-01-2014 03:00:00 5.11667 C 6.71 g/m*3 5.12 C 0.13333 km/h
808 16-01-2014 04:00:00 5.275 C 6.78 g/m*3 5.28 C 0 km/h
809 16-01-2014 05:00:00 5.4 C 6.84 g/m*3 5.4 C 0.13333 km/h
810 16-01-2014 06:00:00 5.54167 C 6.9 g/m*3 5.54 C 0 km/h
811 16-01-2014 07:00:00 5.64167 C 6.95 g/m*3 5.64 C 0.13333 km/h
812 16-01-2014 08:00:00 5.44167 C 6.86 g/m*3 5.44 C 0.53333 km/h
813 16-01-2014 09:00:00 5.63333 C 6.94 g/m*3 5.63 C 0.53333 km/h
814 16-01-2014 10:00:00 6.10833 C 7.16 g/m*3 6.11 C 0.26667 km/h
815 16-01-2014 11:00:00 6.46667 C 7.13 g/m*3 6.47 C 2.8 km/h
816 16-01-2014 12:00:00 7.55 C 7.36 g/m*3 7.55 C 0.93333 km/h
817 16-01-2014 13:00:00 8.31667 C 7.28 g/m*3 8.32 C 2.26667 km/h
818 16-01-2014 14:00:00 8.075 C 7.41 g/m*3 8.07 C 1.2 km/h
819 16-01-2014 15:00:00 7.94167 C 7.25 g/m*3 7.94 C 3.2 km/h
820 16-01-2014 16:00:00 8.38333 C 7.23 g/m*3 8.38 C 4.825 km/h
821 16-01-2014 17:00:00 8.19167 C 7.28 g/m*3 8.19 C 3.06667 km/h
822 16-01-2014 18:00:00 8.10833 C 7.3 g/m*3 8.11 C 4.95 km/h
823 16-01-2014 19:00:00 8.7 C 7.35 g/m*3 7.97 C 6.01667 km/h
824 16-01-2014 20:00:00 7.54167 C 7.22 g/m*3 7.54 C 2.53333 km/h
825 16-01-2014 21:00:00 7.01667 C 7.19 g/m*3 7.02 C 2 km/h
Sensor: Nr:Datum:Temp:Abs-Feuchte:Windchill:Wind:
Aussen-T/F 826 16-01-2014 22:00:00 6.79167 C 7.11 g/m*3 6.79 C 1.33333 km/h
827 16-01-2014 23:00:00 5.60833 C 6.61 g/m*3 5.61 C 3.2 km/h
828 17-01-2014 00:00:00 5.76667 C 6.8 g/m*3 5.77 C 2.66667 km/h
829 17-01-2014 01:00:00 6.59167 C 7.05 g/m*3 6.59 C 1.46667 km/h
830 17-01-2014 02:00:00 6.875 C 7.1 g/m*3 6.88 C 0.8 km/h
831 17-01-2014 03:00:00 6.8 C 7.22 g/m*3 6.8 C 1.46667 km/h
832 17-01-2014 04:00:00 6.725 C 7.33 g/m*3 6.73 C 0.66667 km/h
833 17-01-2014 05:00:00 6.51667 C 7.28 g/m*3 6.52 C 1.06667 km/h
834 17-01-2014 06:00:00 6.41667 C 7.24 g/m*3 6.42 C 1.46667 km/h
835 17-01-2014 07:00:00 6.1 C 7.07 g/m*3 6.1 C 2.26667 km/h
836 17-01-2014 08:00:00 5.48333 C 6.81 g/m*3 5.48 C 2.8 km/h
837 17-01-2014 09:00:00 6.00833 C 7.04 g/m*3 6.01 C 1.86667 km/h
838 17-01-2014 10:00:00 6.625 C 7.29 g/m*3 6.63 C 2 km/h
839 17-01-2014 11:00:00 8.075 C 7.62 g/m*3 8.07 C 2.66667 km/h
840 17-01-2014 12:00:00 9.18333 C 7.63 g/m*3 9.18 C 4.41667 km/h
841 17-01-2014 13:00:00 9.93333 C 7.76 g/m*3 9.93 C 0.8 km/h
842 17-01-2014 14:00:00 10.025 C 7.94 g/m*3 10.03 C 1.2 km/h
843 17-01-2014 15:00:00 9.28333 C 8.02 g/m*3 9.28 C 2 km/h
844 17-01-2014 16:00:00 8.51667 C 7.54 g/m*3 8.52 C 3.2 km/h
845 17-01-2014 17:00:00 6.68333 C 6.89 g/m*3 6.68 C 3.46667 km/h
846 17-01-2014 18:00:00 6.01667 C 6.76 g/m*3 6.02 C 2.93333 km/h
847 17-01-2014 19:00:00 5.55833 C 6.6 g/m*3 5.56 C 3.06667 km/h
848 17-01-2014 20:00:00 5.21667 C 6.44 g/m*3 5.22 C 3.33333 km/h
849 17-01-2014 21:00:00 4.85833 C 6.28 g/m*3 4.86 C 3.6 km/h
850 17-01-2014 22:00:00 4.54167 C 6.2 g/m*3 4.54 C 3.33333 km/h
Sensor: Nr:Datum:Temp:Abs-Feuchte:Windchill:Wind:
Aussen-T/F 851 17-01-2014 23:00:00 4.2 C 6.08 g/m*3 4.2 C 2.66667 km/h
852 18-01-2014 00:00:00 3.775 C 5.93 g/m*3 3.78 C 2.53333 km/h
853 18-01-2014 01:00:00 3.525 C 5.85 g/m*3 3.53 C 1.73333 km/h
854 18-01-2014 02:00:00 3.00833 C 5.65 g/m*3 3.01 C 0.66667 km/h
855 18-01-2014 03:00:00 2.825 C 5.64 g/m*3 2.83 C 0.13333 km/h
856 18-01-2014 04:00:00 2.60833 C 5.56 g/m*3 2.61 C 0.53333 km/h
857 18-01-2014 05:00:00 1.90833 C 5.3 g/m*3 1.91 C 0.4 km/h
858 18-01-2014 06:00:00 1.93333 C 5.36 g/m*3 1.93 C 1.74167 km/h
859 18-01-2014 07:00:00 2.675 C 5.62 g/m*3 2.68 C 1.06667 km/h
860 18-01-2014 08:00:00 4.2 C 6 g/m*3 2.07 C 8.46667 km/h
861 18-01-2014 09:00:00 4.78333 C 5.96 g/m*3 3.46 C 6.03333 km/h
862 18-01-2014 10:00:00 4.98333 C 6.02 g/m*3 3.6 C 6.30833 km/h
863 18-01-2014 11:00:00 5.91667 C 6.79 g/m*3 4.72 C 6.16667 km/h
864 18-01-2014 12:00:00 6.9 C 6.54 g/m*3 6.9 C 2.4 km/h
865 18-01-2014 13:00:00 7.56667 C 6.59 g/m*3 7.57 C 3.33333 km/h
866 18-01-2014 14:00:00 7.95556 C 6.64 g/m*3 7.96 C 4.44444 km/h
867 18-01-2014 15:00:00 7.825 C 6.72 g/m*3 7.83 C 2.14167 km/h
868 18-01-2014 16:00:00 6.875 C 6.53 g/m*3 6.88 C 2 km/h
869 18-01-2014 17:00:00 5.79167 C 6.18 g/m*3 5.79 C 3.06667 km/h
870 18-01-2014 18:00:00 5.80833 C 6.04 g/m*3 5.81 C 3.46667 km/h
871 18-01-2014 19:00:00 6.04167 C 6.03 g/m*3 5.19 C 5.2 km/h
872 18-01-2014 20:00:00 5.04167 C 5.96 g/m*3 5.04 C 2.93333 km/h
873 18-01-2014 21:00:00 3.34167 C 5.58 g/m*3 3.34 C 1.2 km/h
874 18-01-2014 22:00:00 2.9 C 5.57 g/m*3 2.9 C 1.46667 km/h
875 18-01-2014 23:00:00 3.70833 C 5.88 g/m*3 3.71 C 0.13333 km/h
Sensor: Nr:Datum:Temp:Abs-Feuchte:Windchill:Wind:
Aussen-T/F 876 19-01-2014 00:00:00 4.18333 C 6.05 g/m*3 4.18 C 0.26667 km/h
877 19-01-2014 01:00:00 4.41667 C 6.13 g/m*3 4.42 C 0 km/h
878 19-01-2014 02:00:00 4.65833 C 6.13 g/m*3 4.66 C 1.2 km/h
879 19-01-2014 03:00:00 4.46667 C 5.99 g/m*3 4.47 C 1.86667 km/h
880 19-01-2014 04:00:00 4.2 C 5.94 g/m*3 4.2 C 0.13333 km/h
881 19-01-2014 05:00:00 4.15 C 5.97 g/m*3 4.15 C 0 km/h
882 19-01-2014 06:00:00 4.125 C 5.96 g/m*3 4.13 C 0.4 km/h
883 19-01-2014 07:00:00 3.99167 C 5.9 g/m*3 3.99 C 0.13333 km/h
884 19-01-2014 08:00:00 3.68333 C 5.82 g/m*3 3.68 C 0 km/h
885 19-01-2014 09:00:00 4.06667 C 6 g/m*3 4.07 C 0.53333 km/h
886 19-01-2014 10:00:00 5.025 C 6.18 g/m*3 3.61 C 6.43333 km/h
887 19-01-2014 11:00:00 5.625 C 6.31 g/m*3 4.39 C 6.16667 km/h
888 19-01-2014 12:00:00 6.2 C 6.4 g/m*3 6.2 C 3.46667 km/h
889 19-01-2014 13:00:00 6.775 C 6.59 g/m*3 6.78 C 0.93333 km/h
890 19-01-2014 14:00:00 7.1 C 6.65 g/m*3 5.93 C 6.7 km/h
891 19-01-2014 15:00:00 7.24167 C 6.64 g/m*3 7.24 C 4.40833 km/h
892 19-01-2014 16:00:00 5.74 C 6.92 g/m*3 5.74 C 0.32 km/h
893 19-01-2014 17:00:00 4.20833 C 6 g/m*3 4.21 C 0.8 km/h
894 19-01-2014 18:00:00 3.81667 C 5.93 g/m*3 3.82 C 0.13333 km/h
895 19-01-2014 19:00:00 3.68333 C 5.91 g/m*3 3.68 C 0.13333 km/h
896 19-01-2014 20:00:00 3.41667 C 5.81 g/m*3 3.42 C 1.06667 km/h
897 19-01-2014 21:00:00 3.38333 C 5.8 g/m*3 3.38 C 0 km/h
898 19-01-2014 22:00:00 3.60833 C 5.88 g/m*3 3.61 C 0 km/h
899 19-01-2014 23:00:00 3.79167 C 5.96 g/m*3 3.79 C 0 km/h
900 20-01-2014 00:00:00 4.06667 C 6.07 g/m*3 4.07 C 0 km/h
Sensor: Nr:Datum:Temp:Abs-Feuchte:Windchill:Wind:
Aussen-T/F 901 20-01-2014 01:00:00 4.2 C 6.12 g/m*3 4.2 C 0.26667 km/h
902 20-01-2014 02:00:00 4.2 C 6.06 g/m*3 4.2 C 0.4 km/h
903 20-01-2014 03:00:00 4.2 C 6.06 g/m*3 4.2 C 0 km/h
904 20-01-2014 04:00:00 4.275 C 6.14 g/m*3 4.28 C 0 km/h
905 20-01-2014 05:00:00 4.3 C 6.1 g/m*3 4.3 C 0 km/h
906 20-01-2014 06:00:00 4.3 C 6.1 g/m*3 4.3 C 0 km/h
907 20-01-2014 07:00:00 4.29167 C 6.15 g/m*3 4.29 C 0 km/h
908 20-01-2014 08:00:00 4.2 C 6.12 g/m*3 4.2 C 0 km/h
909 20-01-2014 09:00:00 4.2625 C 6.21 g/m*3 4.26 C 0 km/h
910 20-01-2014 10:00:00 4.36667 C 6.3 g/m*3 4.37 C 0 km/h
911 20-01-2014 11:00:00 4.61 C 6.42 g/m*3 4.61 C 0.48 km/h
912 20-01-2014 12:00:00 4.8 C 6.44 g/m*3 4.8 C 1.14286 km/h
913 20-01-2014 13:00:00 4.79167 C 6.43 g/m*3 4.79 C 1.33333 km/h
914 20-01-2014 14:00:00 4.7 C 6.32 g/m*3 4.7 C 2.93333 km/h
915 20-01-2014 15:00:00 4.61667 C 6.23 g/m*3 4.62 C 1.73333 km/h
916 20-01-2014 16:00:00 4.58333 C 6.21 g/m*3 4.58 C 0.66667 km/h
917 20-01-2014 17:00:00 4.55 C 6.16 g/m*3 4.55 C 1.86667 km/h
918 20-01-2014 18:00:00 4.61667 C 6.13 g/m*3 4.62 C 1.73333 km/h
919 20-01-2014 19:00:00 4.425 C 6.04 g/m*3 3.2 C 5.60833 km/h
920 20-01-2014 20:00:00 4.125 C 5.99 g/m*3 4.13 C 0.8 km/h
921 20-01-2014 21:00:00 3.95 C 5.99 g/m*3 3.95 C 0.13333 km/h
922 20-01-2014 22:00:00 3.80833 C 6.02 g/m*3 3.81 C 0.53333 km/h
923 20-01-2014 23:00:00 3.76667 C 6.01 g/m*3 3.77 C 3.06667 km/h
924 21-01-2014 00:00:00 3.61667 C 5.95 g/m*3 3.62 C 1.33333 km/h
925 21-01-2014 01:00:00 3.49167 C 5.88 g/m*3 3.49 C 2.93333 km/h
Sensor: Nr:Datum:Temp:Abs-Feuchte:Windchill:Wind:
Aussen-T/F 926 21-01-2014 02:00:00 3.4 C 5.67 g/m*3 1.06 C 8.74167 km/h
927 21-01-2014 03:00:00 3.16667 C 5.58 g/m*3 1.12 C 7.51667 km/h
928 21-01-2014 04:00:00 2.94167 C 5.51 g/m*3 1.2 C 6.43333 km/h
929 21-01-2014 05:00:00 2.88333 C 5.46 g/m*3 2.88 C 4.13333 km/h
930 21-01-2014 06:00:00 2.88333 C 5.4 g/m*3 2.88 C 3.875 km/h
931 21-01-2014 07:00:00 2.83333 C 5.39 g/m*3 2.83 C 4.55833 km/h
932 21-01-2014 08:00:00 2.7 C 5.42 g/m*3 2.7 C 3.88333 km/h
933 21-01-2014 09:00:00 2.80833 C 5.52 g/m*3 2.81 C 1.86667 km/h
934 21-01-2014 10:00:00 3.11667 C 5.55 g/m*3 3.12 C 2.66667 km/h
935 21-01-2014 11:00:00 3.3 C 5.63 g/m*3 3.3 C 2.80833 km/h
936 21-01-2014 12:00:00 3.38333 C 5.68 g/m*3 3.38 C 0.4 km/h
937 21-01-2014 13:00:00 3.875 C 5.76 g/m*3 3.88 C 0.93333 km/h
938 21-01-2014 14:00:00 4.175 C 5.85 g/m*3 4.18 C 0.93333 km/h
939 21-01-2014 15:00:00 4.23333 C 5.87 g/m*3 4.23 C 0.53333 km/h
940 21-01-2014 16:00:00 4.01667 C 5.9 g/m*3 4.02 C 0 km/h
941 21-01-2014 17:00:00 3.83333 C 5.94 g/m*3 3.83 C 0 km/h
942 21-01-2014 18:00:00 3.8 C 6.01 g/m*3 3.8 C 0 km/h
943 21-01-2014 19:00:00 3.9 C 6.06 g/m*3 3.9 C 0 km/h
944 21-01-2014 20:00:00 3.975 C 6.09 g/m*3 3.98 C 0 km/h
945 21-01-2014 21:00:00 3.9 C 6.06 g/m*3 3.9 C 0 km/h
946 21-01-2014 22:00:00 3.9 C 6.06 g/m*3 3.9 C 0 km/h
947 21-01-2014 23:00:00 3.81667 C 6.03 g/m*3 3.82 C 0 km/h
948 22-01-2014 00:00:00 3.825 C 6.04 g/m*3 3.83 C 0 km/h
949 22-01-2014 01:00:00 3.91667 C 6.07 g/m*3 3.92 C 0 km/h
950 22-01-2014 02:00:00 4 C 6.17 g/m*3 4 C 0 km/h
Sensor: Nr:Datum:Temp:Abs-Feuchte:Windchill:Wind:
Aussen-T/F 951 22-01-2014 03:00:00 4.025 C 6.18 g/m*3 4.03 C 0 km/h
952 22-01-2014 04:00:00 4.05833 C 6.18 g/m*3 4.06 C 0.66667 km/h
953 22-01-2014 05:00:00 3.825 C 6.02 g/m*3 3.83 C 1.33333 km/h
954 22-01-2014 06:00:00 3.58333 C 5.77 g/m*3 2.34 C 5.35 km/h
955 22-01-2014 07:00:00 3.41667 C 5.64 g/m*3 3.42 C 4.28333 km/h
956 22-01-2014 08:00:00 3.35 C 5.64 g/m*3 3.35 C 2 km/h
957 22-01-2014 12:00:00 4.8 C 5.9 g/m*3 3.73 C 5.33333 km/h
958 22-01-2014 16:00:00 3.4 C 5.8 g/m*3 3.4 C 0.8 km/h
959 22-01-2014 17:00:00 2.975 C 5.63 g/m*3 2.98 C 2.26667 km/h
960 22-01-2014 18:00:00 2.66667 C 5.52 g/m*3 2.67 C 2.4 km/h
961 22-01-2014 19:00:00 2.25 C 5.41 g/m*3 2.25 C 1.33333 km/h
962 22-01-2014 20:00:00 1.73333 C 5.24 g/m*3 1.73 C 0 km/h
963 22-01-2014 21:00:00 1.55833 C 5.21 g/m*3 1.56 C 0.26667 km/h
964 22-01-2014 22:00:00 1.82222 C 5.33 g/m*3 1.82 C 0 km/h
965 23-01-2014 09:00:00 3.48 C 5.71 g/m*3 2.31 C 5.12 km/h
966 23-01-2014 10:00:00 3.65714 C 5.72 g/m*3 1.54 C 8.05714 km/h
967 23-01-2014 11:00:00 3.8 C 5.65 g/m*3 0.78 C 12.1 km/h
968 23-01-2014 12:00:00 4.26667 C 5.65 g/m*3 1.32 C 12.23333 km/h
969 23-01-2014 13:00:00 4.38333 C 5.62 g/m*3 2.33 C 8.31667 km/h
970 23-01-2014 14:00:00 4.325 C 5.55 g/m*3 2.63 C 6.975 km/h
971 23-01-2014 15:00:00 4.59167 C 5.69 g/m*3 3.39 C 5.61667 km/h
972 23-01-2014 16:00:00 4.24167 C 5.85 g/m*3 4.24 C 3.06667 km/h
973 23-01-2014 17:00:00 3.28333 C 5.68 g/m*3 3.28 C 0.4 km/h
974 23-01-2014 18:00:00 2.83333 C 5.61 g/m*3 2.83 C 0.26667 km/h
975 23-01-2014 19:00:00 3.14167 C 5.79 g/m*3 3.14 C 0.66667 km/h
Sensor: Nr:Datum:Temp:Abs-Feuchte:Windchill:Wind:
Aussen-T/F 976 23-01-2014 20:00:00 3.3 C 5.88 g/m*3 3.3 C 1.06667 km/h
977 23-01-2014 21:00:00 3.35 C 5.9 g/m*3 3.35 C 0 km/h
978 23-01-2014 22:00:00 3.54167 C 5.98 g/m*3 3.54 C 0.26667 km/h
979 23-01-2014 23:00:00 3.59167 C 6 g/m*3 3.59 C 0.53333 km/h
980 24-01-2014 00:00:00 3.05833 C 5.75 g/m*3 1.63 C 5.625 km/h
981 24-01-2014 01:00:00 3.025 C 5.72 g/m*3 3.03 C 3.33333 km/h
982 24-01-2014 02:00:00 3.85 C 5.95 g/m*3 1.27 C 10.05833 km/h
983 24-01-2014 03:00:00 4.25 C 5.99 g/m*3 2.46 C 7.25833 km/h
984 24-01-2014 04:00:00 4.3 C 5.96 g/m*3 3.11 C 5.475 km/h
985 24-01-2014 05:00:00 4.29167 C 5.92 g/m*3 3 C 5.75 km/h
986 24-01-2014 06:00:00 4.275 C 5.9 g/m*3 2.75 C 6.43333 km/h
987 24-01-2014 07:00:00 3.825 C 5.8 g/m*3 3.83 C 4.4 km/h
988 24-01-2014 08:00:00 3.83333 C 5.76 g/m*3 3.83 C 4.275 km/h
989 24-01-2014 09:00:00 3.95 C 5.84 g/m*3 3.95 C 0.93333 km/h
990 24-01-2014 10:00:00 4.23636 C 5.96 g/m*3 4.24 C 1.01818 km/h
991 24-01-2014 12:00:00 4.8 C 5.98 g/m*3 4.8 C 1.6 km/h
992 24-01-2014 13:00:00 4.8 C 6.04 g/m*3 4.8 C 1.6 km/h
993 24-01-2014 14:00:00 4.7 C 6 g/m*3 4.7 C 1.2 km/h
994 24-01-2014 15:00:00 4.7 C 6 g/m*3 4.7 C 1.92 km/h
995 24-01-2014 17:00:00 4.1 C 6.08 g/m*3 4.1 C 0.32 km/h
996 24-01-2014 18:00:00 4.1 C 6.08 g/m*3 4.1 C 0 km/h
997 24-01-2014 19:00:00 3.94167 C 6.02 g/m*3 3.94 C 0 km/h
998 24-01-2014 20:00:00 3.85833 C 6 g/m*3 3.86 C 0 km/h
999 24-01-2014 21:00:00 3.66667 C 5.95 g/m*3 3.67 C 0 km/h
1000 24-01-2014 22:00:00 3.5 C 5.9 g/m*3 3.5 C 0 km/h
Sensor: Nr:Datum:Temp:Abs-Feuchte:Windchill:Wind:
Aussen-T/F 1001 24-01-2014 23:00:00 3.20833 C 5.79 g/m*3 3.21 C 0 km/h
1002 25-01-2014 00:00:00 3.14167 C 5.76 g/m*3 3.14 C 0 km/h
1003 25-01-2014 01:00:00 3.1 C 5.75 g/m*3 3.1 C 0.13333 km/h
1004 25-01-2014 02:00:00 3.18333 C 5.78 g/m*3 3.18 C 0 km/h
1005 25-01-2014 03:00:00 2.575 C 5.54 g/m*3 2.58 C 0.66667 km/h
1006 25-01-2014 04:00:00 1.5 C 5.16 g/m*3 1.5 C 0.8 km/h
1007 25-01-2014 05:00:00 1.80833 C 5.32 g/m*3 1.81 C 1.2 km/h
1008 25-01-2014 06:00:00 2.325 C 5.51 g/m*3 2.33 C 0.13333 km/h
1009 25-01-2014 07:00:00 2.29167 C 5.5 g/m*3 2.29 C 0.13333 km/h
1010 25-01-2014 08:00:00 1.93333 C 5.36 g/m*3 1.93 C 0 km/h
1011 25-01-2014 09:00:00 2.175 C 5.44 g/m*3 2.17 C 3.6 km/h
1012 25-01-2014 10:00:00 2.525 C 5.5 g/m*3 2.53 C 1.2 km/h
1013 25-01-2014 11:00:00 3.18333 C 5.66 g/m*3 3.18 C 2.26667 km/h
1014 25-01-2014 12:00:00 3.775 C 5.78 g/m*3 3.78 C 3.33333 km/h
1015 25-01-2014 13:00:00 4.41667 C 5.88 g/m*3 4.42 C 4.66667 km/h
1016 25-01-2014 14:00:00 4.8 C 5.97 g/m*3 4.8 C 4.4 km/h
1017 25-01-2014 17:00:00 3.22 C 5.62 g/m*3 3.22 C 2.88 km/h
1018 25-01-2014 18:00:00 3.2375 C 5.6 g/m*3 3.24 C 0.8 km/h
1019 25-01-2014 22:00:00 3.6 C 5.36 g/m*3 1.06 C 9.66667 km/h
1020 25-01-2014 23:00:00 3.00833 C 5.44 g/m*3 -0.38 C 13.15 km/h
1021 26-01-2014 00:00:00 3.01667 C 5.52 g/m*3 -0.54 C 14.1 km/h
1022 26-01-2014 01:00:00 3.4 C 5.71 g/m*3 0.82 C 9.675 km/h
1023 26-01-2014 02:00:00 4.28333 C 5.9 g/m*3 1.91 C 9.54167 km/h
1024 26-01-2014 03:00:00 5.04167 C 5.9 g/m*3 1.5 C 17.03333 km/h
1025 26-01-2014 04:00:00 5.35833 C 5.89 g/m*3 1.84 C 17.44167 km/h
Sensor: Nr:Datum:Temp:Abs-Feuchte:Windchill:Wind:
Aussen-T/F 1026 26-01-2014 05:00:00 5.9 C 5.76 g/m*3 2.07 C 21.16667 km/h
1027 26-01-2014 06:00:00 6.01667 C 5.77 g/m*3 2.1 C 22.25833 km/h
1028 26-01-2014 07:00:00 6.025 C 5.76 g/m*3 2.95 C 15.43333 km/h
1029 26-01-2014 08:00:00 5.8 C 5.74 g/m*3 3.68 C 9.68333 km/h
1030 26-01-2014 09:00:00 5.65 C 5.71 g/m*3 2.77 C 13.56667 km/h
1031 26-01-2014 10:00:00 5.65833 C 5.72 g/m*3 2.66 C 14.36667 km/h
1032 26-01-2014 11:00:00 5.83333 C 5.68 g/m*3 3 C 13.56667 km/h
1033 26-01-2014 12:00:00 6.06 C 5.58 g/m*3 3.55 C 11.94 km/h
1034 26-01-2014 13:00:00 6.15 C 5.56 g/m*3 3.63 C 12.09167 km/h
1035 26-01-2014 14:00:00 6.2 C 5.47 g/m*3 3.99 C 10.48333 km/h
1036 26-01-2014 15:00:00 6.16667 C 5.45 g/m*3 4.52 C 7.93333 km/h
1037 26-01-2014 16:00:00 5.78333 C 5.34 g/m*3 5.78 C 4.14167 km/h
1038 26-01-2014 17:00:00 5.5 C 5.38 g/m*3 4.42 C 5.625 km/h
1039 26-01-2014 18:00:00 5.2 C 5.51 g/m*3 5.2 C 1.86667 km/h
1040 26-01-2014 19:00:00 4.84167 C 5.68 g/m*3 4.84 C 3.06667 km/h
1041 26-01-2014 20:00:00 4.3 C 5.9 g/m*3 4.3 C 4.13333 km/h
1042 26-01-2014 21:00:00 3.75833 C 5.85 g/m*3 3.76 C 2.66667 km/h
1043 26-01-2014 22:00:00 3.66667 C 5.84 g/m*3 3.67 C 3.2 km/h
1044 26-01-2014 23:00:00 3.78333 C 5.9 g/m*3 3.78 C 4.41667 km/h
1045 27-01-2014 00:00:00 4.1 C 5.97 g/m*3 4.1 C 4.83333 km/h
1046 27-01-2014 01:00:00 4.24167 C 6.13 g/m*3 4.24 C 3.2 km/h
1047 27-01-2014 02:00:00 4.31667 C 6.16 g/m*3 3.03 C 5.75 km/h
1048 27-01-2014 03:00:00 5 C 6.25 g/m*3 2.73 C 9.68333 km/h
1049 27-01-2014 04:00:00 4.19167 C 5.94 g/m*3 4.19 C 4.55833 km/h
1050 27-01-2014 05:00:00 4.28333 C 5.93 g/m*3 2.8 C 6.3 km/h
Sensor: Nr:Datum:Temp:Abs-Feuchte:Windchill:Wind:
Aussen-T/F 1051 27-01-2014 06:00:00 4.11667 C 5.77 g/m*3 4.12 C 4 km/h
1052 27-01-2014 07:00:00 3.14167 C 5.54 g/m*3 3.14 C 3.2 km/h
1053 27-01-2014 08:00:00 3.94167 C 5.5 g/m*3 1.73 C 8.59167 km/h
1054 27-01-2014 09:00:00 4.1 C 5.5 g/m*3 4.1 C 4.8 km/h
1055 27-01-2014 12:00:00 5.12727 C 5.43 g/m*3 2.41 C 12.00909 km/h
1056 27-01-2014 13:00:00 4.45833 C 5.64 g/m*3 2.52 C 7.91667 km/h
1057 27-01-2014 14:00:00 5.08333 C 5.36 g/m*3 2.63 C 10.60833 km/h
1058 27-01-2014 15:00:00 5.30833 C 5.31 g/m*3 3.7 C 7.25 km/h
1059 27-01-2014 16:00:00 5.04167 C 5.33 g/m*3 5.04 C 4.55833 km/h
1060 27-01-2014 17:00:00 4.25833 C 5.39 g/m*3 4.26 C 2.94167 km/h
1061 27-01-2014 18:00:00 4.06364 C 5.33 g/m*3 4.06 C 2.47273 km/h
1062 27-01-2014 21:00:00 4.4 C 6.53 g/m*3 2.53 C 7.65 km/h
1063 28-01-2014 08:00:00 1.4 C 4.96 g/m*3 1.4 C 2.13333 km/h
1064 28-01-2014 10:00:00 3.63333 C 5.25 g/m*3 3.63 C 4.3 km/h
1065 28-01-2014 11:00:00 3.85833 C 5.3 g/m*3 2.5 C 5.75833 km/h
1066 28-01-2014 12:00:00 5.125 C 5.28 g/m*3 3.02 C 9.0625 km/h
1067 28-01-2014 16:00:00 6.6 C 5.66 g/m*3 5.78 C 5.33333 km/h
1068 28-01-2014 17:00:00 3.7 C 5.42 g/m*3 3.7 C 3.2 km/h
1069 28-01-2014 18:00:00 2.69167 C 5.21 g/m*3 2.69 C 3.46667 km/h
1070 28-01-2014 19:00:00 1.925 C 5.02 g/m*3 1.93 C 3.33333 km/h
1071 28-01-2014 20:00:00 1.46667 C 4.93 g/m*3 1.47 C 2.93333 km/h
1072 28-01-2014 21:00:00 1.04167 C 4.84 g/m*3 1.04 C 2.66667 km/h
1073 28-01-2014 22:00:00 0.80833 C 4.77 g/m*3 0.81 C 3.06667 km/h
1074 28-01-2014 23:00:00 0.38333 C 4.72 g/m*3 0.38 C 3.2 km/h
1075 29-01-2014 00:00:00 0.11667 C 4.62 g/m*3 0.12 C 2.8 km/h
Sensor: Nr:Datum:Temp:Abs-Feuchte:Windchill:Wind:
Aussen-T/F 1076 29-01-2014 01:00:00 -0.20833 C 4.53 g/m*3 -0.21 C 3.06667 km/h
1077 29-01-2014 02:00:00 0.20833 C 4.69 g/m*3 0.21 C 2.53333 km/h
1078 29-01-2014 03:00:00 0.2 C 4.67 g/m*3 0.2 C 3.2 km/h
1079 29-01-2014 04:00:00 1.2 C 4.87 g/m*3 1.2 C 2.66667 km/h
1080 29-01-2014 05:00:00 1.36667 C 4.84 g/m*3 1.37 C 2.66667 km/h
1081 29-01-2014 07:00:00 1.62222 C 4.73 g/m*3 1.62 C 2.66667 km/h
1082 29-01-2014 08:00:00 1.76667 C 4.74 g/m*3 1.77 C 2.53333 km/h
1083 29-01-2014 09:00:00 2.05 C 4.74 g/m*3 0.17 C 6.43333 km/h
1084 29-01-2014 13:00:00 4.06667 C 4.81 g/m*3 1.75 C 9.13333 km/h
1085 29-01-2014 14:00:00 3.86667 C 4.64 g/m*3 2.65 C 5.36667 km/h
1086 29-01-2014 15:00:00 3.8 C 4.64 g/m*3 3.8 C 3.2 km/h
1087 29-01-2014 16:00:00 2.9 C 4.49 g/m*3 -0.46 C 12.9 km/h
1088 29-01-2014 17:00:00 2.625 C 4.48 g/m*3 2.63 C 3.6 km/h
1089 29-01-2014 18:00:00 2.01667 C 4.54 g/m*3 2.02 C 1.06667 km/h
1090 29-01-2014 19:00:00 1.78333 C 4.54 g/m*3 1.78 C 3.33333 km/h
1091 29-01-2014 20:00:00 2.23333 C 4.5 g/m*3 2.23 C 4.025 km/h
1092 29-01-2014 21:00:00 1.925 C 4.48 g/m*3 1.93 C 2.53333 km/h
1093 29-01-2014 22:00:00 1.86667 C 4.52 g/m*3 1.87 C 1.86667 km/h
1094 29-01-2014 23:00:00 1.475 C 4.55 g/m*3 1.48 C 1.6 km/h
1095 30-01-2014 00:00:00 2.03333 C 4.57 g/m*3 2.03 C 1.86667 km/h
1096 30-01-2014 01:00:00 1.79167 C 4.6 g/m*3 1.79 C 0.26667 km/h
1097 30-01-2014 02:00:00 1.875 C 4.61 g/m*3 1.88 C 0.8 km/h
1098 30-01-2014 03:00:00 1.9 C 4.56 g/m*3 1.9 C 0.8 km/h
1099 30-01-2014 04:00:00 1.89167 C 4.53 g/m*3 1.89 C 1.86667 km/h
1100 30-01-2014 05:00:00 1.89167 C 4.56 g/m*3 1.89 C 0.13333 km/h
Sensor: Nr:Datum:Temp:Abs-Feuchte:Windchill:Wind:
Aussen-T/F 1101 30-01-2014 06:00:00 1.35833 C 4.51 g/m*3 1.36 C 0.66667 km/h
1102 30-01-2014 07:00:00 0.18333 C 4.31 g/m*3 0.18 C 1.46667 km/h
1103 30-01-2014 08:00:00 0.56667 C 4.45 g/m*3 0.57 C 0.26667 km/h
1104 30-01-2014 09:00:00 1.225 C 4.48 g/m*3 1.23 C 0.93333 km/h
1105 30-01-2014 10:00:00 2.10833 C 4.54 g/m*3 2.11 C 2.93333 km/h
1106 30-01-2014 11:00:00 3.06667 C 4.63 g/m*3 3.07 C 4 km/h
1107 30-01-2014 12:00:00 3.35 C 4.74 g/m*3 3.35 C 3.46667 km/h
1108 30-01-2014 13:00:00 4.10833 C 4.95 g/m*3 4.11 C 4.41667 km/h
1109 30-01-2014 14:00:00 5.35833 C 5.1 g/m*3 5.36 C 3.6 km/h
1110 30-01-2014 15:00:00 4.78333 C 5.36 g/m*3 4.78 C 1.06667 km/h
1111 30-01-2014 16:00:00 4.33333 C 5.37 g/m*3 4.33 C 1.2 km/h
1112 30-01-2014 17:00:00 2.51667 C 4.97 g/m*3 2.52 C 2.4 km/h
1113 30-01-2014 18:00:00 1.54167 C 4.78 g/m*3 1.54 C 2.93333 km/h
1114 30-01-2014 19:00:00 0.91667 C 4.64 g/m*3 0.92 C 2.93333 km/h
1115 30-01-2014 20:00:00 0.58333 C 4.54 g/m*3 0.58 C 2.53333 km/h
1116 30-01-2014 21:00:00 0.225 C 4.43 g/m*3 0.23 C 1.46667 km/h
1117 30-01-2014 22:00:00 0 C 4.41 g/m*3 0 C 1.06667 km/h
1118 30-01-2014 23:00:00 0.05833 C 4.48 g/m*3 0.06 C 0 km/h
1119 31-01-2014 00:00:00 0.23333 C 4.53 g/m*3 0.23 C 0 km/h
1120 31-01-2014 01:00:00 0.33333 C 4.53 g/m*3 0.33 C 0 km/h
1121 31-01-2014 02:00:00 0.225 C 4.49 g/m*3 0.23 C 0 km/h
1122 31-01-2014 03:00:00 -0.01667 C 4.42 g/m*3 -0.02 C 0 km/h
1123 31-01-2014 04:00:00 0.275 C 4.49 g/m*3 0.28 C 0 km/h
1124 31-01-2014 05:00:00 0.13333 C 4.45 g/m*3 0.13 C 0.26667 km/h
1125 31-01-2014 06:00:00 -0.28333 C 4.36 g/m*3 -0.28 C 0.26667 km/h
Sensor: Nr:Datum:Temp:Abs-Feuchte:Windchill:Wind:
Aussen-T/F 1126 31-01-2014 07:00:00 -0.95 C 4.23 g/m*3 -0.95 C 0.13333 km/h
1127 31-01-2014 08:00:00 -1.15 C 4.18 g/m*3 -1.15 C 0 km/h
1128 31-01-2014 09:00:00 -1.06667 C 4.23 g/m*3 -1.07 C 0 km/h
1129 31-01-2014 10:00:00 -0.5 C 4.41 g/m*3 -0.5 C 0 km/h
1130 31-01-2014 11:00:00 0.35 C 4.65 g/m*3 0.35 C 1.2 km/h
1131 31-01-2014 12:00:00 1.35833 C 4.88 g/m*3 1.36 C 1.6 km/h
1132 31-01-2014 13:00:00 2.15833 C 5.06 g/m*3 2.16 C 1.86667 km/h
1133 31-01-2014 14:00:00 2.91667 C 5.29 g/m*3 2.92 C 2.53333 km/h
1134 31-01-2014 15:00:00 3.65833 C 5.45 g/m*3 3.66 C 2.8 km/h
1135 31-01-2014 16:00:00 3.95833 C 5.43 g/m*3 3.96 C 4.275 km/h
1136 31-01-2014 17:00:00 3.3 C 5.21 g/m*3 3.3 C 4.95833 km/h
1137 31-01-2014 18:00:00 1.95833 C 4.99 g/m*3 1.96 C 3.33333 km/h
1138 31-01-2014 19:00:00 1.39167 C 4.9 g/m*3 1.39 C 2.93333 km/h
1139 31-01-2014 20:00:00 1.64167 C 5 g/m*3 1.64 C 4.28333 km/h
1140 31-01-2014 21:00:00 2.63333 C 5.12 g/m*3 0.75 C 6.71667 km/h
1141 31-01-2014 22:00:00 1.425 C 4.89 g/m*3 1.43 C 2.66667 km/h
1142 31-01-2014 23:00:00 0.93333 C 4.82 g/m*3 0.93 C 1.6 km/h
1143 01-02-2014 00:00:00 1.06667 C 4.89 g/m*3 1.07 C 0.93333 km/h
1144 01-02-2014 01:00:00 1.29167 C 4.97 g/m*3 1.29 C 1.46667 km/h
1145 01-02-2014 02:00:00 1.9 C 5.09 g/m*3 1.9 C 3.60833 km/h
1146 01-02-2014 03:00:00 2.20833 C 5.14 g/m*3 2.21 C 2.53333 km/h
1147 01-02-2014 04:00:00 2.98333 C 5.32 g/m*3 2.98 C 4.53333 km/h
1148 01-02-2014 05:00:00 3.48333 C 5.4 g/m*3 3.48 C 4.14167 km/h
1149 01-02-2014 06:00:00 3.68333 C 5.49 g/m*3 3.68 C 3.6 km/h
1150 01-02-2014 07:00:00 4.29167 C 5.54 g/m*3 4.29 C 4.275 km/h
Sensor: Nr:Datum:Temp:Abs-Feuchte:Windchill:Wind:
Aussen-T/F 1151 01-02-2014 08:00:00 4.90833 C 5.56 g/m*3 3.84 C 5.35833 km/h
1152 01-02-2014 09:00:00 5.66667 C 5.75 g/m*3 4.31 C 6.56667 km/h
1153 01-02-2014 10:00:00 4.95833 C 6.18 g/m*3 4.96 C 2.8 km/h
1154 01-02-2014 11:00:00 4.49167 C 6.14 g/m*3 4.49 C 2.26667 km/h
1155 01-02-2014 12:00:00 5.28333 C 6.65 g/m*3 5.28 C 1.6 km/h
1156 01-02-2014 13:00:00 6.35 C 6.75 g/m*3 4.04 C 11.15833 km/h
1157 01-02-2014 14:00:00 6.58333 C 6.65 g/m*3 4.28 C 11.41667 km/h
1158 01-02-2014 15:00:00 7 C 6.69 g/m*3 5 C 10.21667 km/h
1159 01-02-2014 16:00:00 6.90833 C 6.7 g/m*3 6.22 C 5.08333 km/h
1160 01-02-2014 17:00:00 6.45833 C 6.66 g/m*3 5.71 C 5.08333 km/h
1161 01-02-2014 18:00:00 6.25 C 6.59 g/m*3 5.47 C 5.09167 km/h
1162 01-02-2014 19:00:00 5.88333 C 6.55 g/m*3 5.88 C 1.73333 km/h
1163 01-02-2014 20:00:00 5.65833 C 6.51 g/m*3 5.66 C 1.33333 km/h
1164 01-02-2014 21:00:00 5.125 C 6.31 g/m*3 5.13 C 1.2 km/h
1165 01-02-2014 22:00:00 4.70833 C 6.12 g/m*3 4.71 C 2.26667 km/h
1166 01-02-2014 23:00:00 4.175 C 6 g/m*3 4.18 C 1.86667 km/h
1167 02-02-2014 00:00:00 3.80833 C 5.9 g/m*3 3.81 C 0.13333 km/h
1168 02-02-2014 01:00:00 3.79167 C 5.96 g/m*3 3.79 C 0.13333 km/h
1169 02-02-2014 02:00:00 3.70833 C 5.92 g/m*3 3.71 C 0 km/h
1170 02-02-2014 03:00:00 3.70833 C 5.94 g/m*3 3.71 C 0.4 km/h
1171 02-02-2014 04:00:00 3.86667 C 5.99 g/m*3 3.87 C 0.93333 km/h
1172 02-02-2014 05:00:00 4.70833 C 6.23 g/m*3 4.71 C 3.75 km/h
1173 02-02-2014 06:00:00 5.2 C 6.26 g/m*3 5.2 C 1.73333 km/h
1174 02-02-2014 07:00:00 4.44167 C 6.07 g/m*3 4.44 C 1.33333 km/h
1175 02-02-2014 08:00:00 3.3 C 5.73 g/m*3 3.3 C 1.6 km/h
Sensor: Nr:Datum:Temp:Abs-Feuchte:Windchill:Wind:
Aussen-T/F 1176 02-02-2014 09:00:00 3.96667 C 6.05 g/m*3 3.97 C 0.66667 km/h
1177 02-02-2014 10:00:00 4.41667 C 6.13 g/m*3 4.42 C 0.93333 km/h
1178 02-02-2014 11:00:00 5.53333 C 6.14 g/m*3 4.24 C 6.31667 km/h
1179 02-02-2014 12:00:00 5.84167 C 6.09 g/m*3 5.84 C 4.40833 km/h
1180 02-02-2014 13:00:00 6.18333 C 6.13 g/m*3 5.03 C 6.15833 km/h
1181 02-02-2014 14:00:00 7.48333 C 6.14 g/m*3 5.61 C 10.08333 km/h
1182 02-02-2014 15:00:00 7.84167 C 6.08 g/m*3 6.11 C 9.7 km/h
1183 02-02-2014 16:00:00 6.43333 C 5.92 g/m*3 5.44 C 5.775 km/h
1184 02-02-2014 17:00:00 4.48333 C 5.6 g/m*3 4.48 C 3.6 km/h
1185 02-02-2014 18:00:00 3.20833 C 5.37 g/m*3 3.21 C 3.73333 km/h
1186 02-02-2014 19:00:00 2.53333 C 5.27 g/m*3 2.53 C 1.86667 km/h
1187 02-02-2014 20:00:00 1.975 C 5.15 g/m*3 1.98 C 0.53333 km/h
1188 02-02-2014 21:00:00 1.69167 C 5.09 g/m*3 1.69 C 0.8 km/h
1189 02-02-2014 22:00:00 1.00833 C 4.88 g/m*3 1.01 C 0 km/h
1190 02-02-2014 23:00:00 0.3 C 4.68 g/m*3 0.3 C 0.4 km/h
1191 03-02-2014 00:00:00 -0.03333 C 4.59 g/m*3 -0.03 C 0.4 km/h
1192 03-02-2014 01:00:00 -0.49167 C 4.47 g/m*3 -0.49 C 0.26667 km/h
1193 03-02-2014 02:00:00 -0.99167 C 4.34 g/m*3 -0.99 C 0 km/h
1194 03-02-2014 03:00:00 -1.24167 C 4.27 g/m*3 -1.24 C 0 km/h
1195 03-02-2014 04:00:00 -1.40833 C 4.22 g/m*3 -1.41 C 0.13333 km/h
1196 03-02-2014 05:00:00 -1.70833 C 4.14 g/m*3 -1.71 C 0.4 km/h
1197 03-02-2014 06:00:00 -1.8 C 4.15 g/m*3 -1.8 C 0.13333 km/h
1198 03-02-2014 07:00:00 -1.80833 C 4.14 g/m*3 -1.81 C 0.8 km/h
1199 03-02-2014 08:00:00 -1.86667 C 4.13 g/m*3 -1.87 C 0.13333 km/h
1200 03-02-2014 09:00:00 -0.84167 C 4.46 g/m*3 -0.84 C 0.13333 km/h
Sensor: Nr:Datum:Temp:Abs-Feuchte:Windchill:Wind:
Aussen-T/F 1201 03-02-2014 10:00:00 0.3 C 4.84 g/m*3 0.3 C 1.46667 km/h
1202 03-02-2014 11:00:00 0.9 C 5.05 g/m*3 0.9 C 0.4 km/h
1203 03-02-2014 12:00:00 1.80833 C 5.38 g/m*3 1.81 C 1.86667 km/h
1204 03-02-2014 13:00:00 2.525 C 5.62 g/m*3 2.53 C 0.4 km/h
1205 03-02-2014 14:00:00 2.91667 C 5.68 g/m*3 2.92 C 0 km/h
1206 03-02-2014 15:00:00 3.23333 C 5.7 g/m*3 3.23 C 0.13333 km/h
1207 03-02-2014 16:00:00 3.34167 C 5.72 g/m*3 3.34 C 0.13333 km/h
1208 03-02-2014 17:00:00 3.25 C 5.72 g/m*3 3.25 C 0.13333 km/h
1209 03-02-2014 18:00:00 3.25 C 5.74 g/m*3 3.25 C 0 km/h
1210 03-02-2014 19:00:00 3.35833 C 5.77 g/m*3 3.36 C 0.4 km/h
1211 03-02-2014 20:00:00 2.74167 C 5.47 g/m*3 2.74 C 2.53333 km/h
1212 03-02-2014 21:00:00 2.41667 C 5.37 g/m*3 2.42 C 2.13333 km/h
1213 03-02-2014 22:00:00 3.43333 C 5.58 g/m*3 1.96 C 5.9 km/h
1214 03-02-2014 23:00:00 2.94167 C 5.39 g/m*3 2.94 C 3.34167 km/h
1215 04-02-2014 00:00:00 2.73333 C 5.4 g/m*3 2.73 C 3.34167 km/h
1216 04-02-2014 01:00:00 2.575 C 5.34 g/m*3 2.58 C 4.01667 km/h
1217 04-02-2014 02:00:00 2.4 C 5.34 g/m*3 2.4 C 2 km/h
1218 04-02-2014 03:00:00 2.44167 C 5.34 g/m*3 2.44 C 2.66667 km/h
1219 04-02-2014 04:00:00 1.96667 C 5.22 g/m*3 1.97 C 2.8 km/h
1220 04-02-2014 05:00:00 1.675 C 5.17 g/m*3 1.68 C 2.53333 km/h
1221 04-02-2014 06:00:00 2.36667 C 5.43 g/m*3 2.37 C 2.53333 km/h
1222 04-02-2014 07:00:00 2.825 C 5.58 g/m*3 2.83 C 2.80833 km/h
1223 04-02-2014 08:00:00 3.3 C 5.7 g/m*3 3.3 C 1.86667 km/h
1224 04-02-2014 09:00:00 4.95 C 5.87 g/m*3 4.95 C 4.80833 km/h
1225 04-02-2014 10:00:00 5.95833 C 6.01 g/m*3 4.95 C 5.61667 km/h
Sensor: Nr:Datum:Temp:Abs-Feuchte:Windchill:Wind:
Aussen-T/F 1226 04-02-2014 11:00:00 6.24167 C 6.08 g/m*3 5.02 C 6.43333 km/h
1227 04-02-2014 12:00:00 6.84167 C 6.22 g/m*3 6.84 C 4.26667 km/h
1228 04-02-2014 13:00:00 7.5 C 6.36 g/m*3 7.5 C 3.73333 km/h
1229 04-02-2014 14:00:00 8.14167 C 6.56 g/m*3 8.14 C 2.8 km/h
1230 04-02-2014 15:00:00 7.26667 C 6.73 g/m*3 7.27 C 1.6 km/h
1231 04-02-2014 16:00:00 7.175 C 6.63 g/m*3 7.18 C 2 km/h
1232 04-02-2014 17:00:00 5.8 C 6.28 g/m*3 5.8 C 3.33333 km/h
1233 04-02-2014 18:00:00 5.26667 C 6.21 g/m*3 5.27 C 1.33333 km/h
1234 04-02-2014 19:00:00 4.28333 C 5.88 g/m*3 4.28 C 2.40833 km/h
1235 04-02-2014 20:00:00 3.48333 C 5.73 g/m*3 3.48 C 1.86667 km/h
1236 04-02-2014 21:00:00 2.925 C 5.57 g/m*3 2.93 C 2.8 km/h
1237 04-02-2014 22:00:00 2.51667 C 5.47 g/m*3 2.52 C 3.2 km/h
1238 04-02-2014 23:00:00 2.275 C 5.42 g/m*3 2.28 C 2.66667 km/h
1239 05-02-2014 00:00:00 2.25 C 5.43 g/m*3 2.25 C 2.8 km/h
1240 05-02-2014 01:00:00 2.13333 C 5.38 g/m*3 2.13 C 2.66667 km/h
1241 05-02-2014 02:00:00 2.1 C 5.37 g/m*3 2.1 C 3.33333 km/h
1242 05-02-2014 03:00:00 2.66667 C 5.51 g/m*3 2.67 C 4.28333 km/h
1243 05-02-2014 04:00:00 2.8 C 5.47 g/m*3 2.8 C 3.875 km/h
1244 05-02-2014 05:00:00 3.05833 C 5.52 g/m*3 0.99 C 7.51667 km/h
1245 05-02-2014 06:00:00 3.56667 C 5.5 g/m*3 1.18 C 9.00833 km/h
1246 05-02-2014 07:00:00 3.44167 C 5.4 g/m*3 1.92 C 6.03333 km/h
1247 05-02-2014 08:00:00 3.325 C 5.38 g/m*3 3.33 C 3.06667 km/h
1248 05-02-2014 09:00:00 3.20833 C 5.61 g/m*3 3.21 C 1.46667 km/h
1249 05-02-2014 10:00:00 3.89167 C 5.94 g/m*3 3.89 C 2 km/h
1250 05-02-2014 11:00:00 4.93333 C 6.3 g/m*3 4.93 C 2.66667 km/h
Sensor: Nr:Datum:Temp:Abs-Feuchte:Windchill:Wind:
Aussen-T/F 1251 05-02-2014 12:00:00 5.58333 C 6.36 g/m*3 5.58 C 3.6 km/h
1252 05-02-2014 13:00:00 6.69167 C 6.46 g/m*3 5.71 C 5.875 km/h
1253 05-02-2014 14:00:00 6.95 C 6.55 g/m*3 5.95 C 6.03333 km/h
1254 05-02-2014 15:00:00 6.25 C 6.46 g/m*3 6.25 C 4.53333 km/h
1255 05-02-2014 16:00:00 6.025 C 6.28 g/m*3 5.16 C 5.225 km/h
1256 05-02-2014 17:00:00 5.80833 C 6.32 g/m*3 5.81 C 4.14167 km/h
1257 05-02-2014 18:00:00 5.95 C 6.51 g/m*3 5.95 C 1.86667 km/h
1258 05-02-2014 19:00:00 5.64167 C 6.42 g/m*3 5.64 C 1.86667 km/h
1259 05-02-2014 20:00:00 5.43333 C 6.39 g/m*3 5.43 C 1.73333 km/h
1260 05-02-2014 21:00:00 6.44167 C 6.49 g/m*3 5.63 C 5.23333 km/h
1261 05-02-2014 22:00:00 7.8 C 6.43 g/m*3 6.12 C 9.39167 km/h
1262 05-02-2014 23:00:00 7.86667 C 6.48 g/m*3 5.51 C 13.43333 km/h
1263 06-02-2014 00:00:00 7.725 C 6.62 g/m*3 5.44 C 12.75833 km/h
1264 06-02-2014 01:00:00 7.79167 C 6.77 g/m*3 5.42 C 13.41667 km/h
1265 06-02-2014 02:00:00 8.125 C 6.86 g/m*3 6.01 C 12.21667 km/h
1266 06-02-2014 03:00:00 8.29167 C 6.84 g/m*3 6.08 C 13.03333 km/h
1267 06-02-2014 04:00:00 8.26667 C 6.84 g/m*3 6.04 C 13.15833 km/h
1268 06-02-2014 05:00:00 8.05833 C 6.73 g/m*3 5.82 C 12.89167 km/h
1269 06-02-2014 06:00:00 7.66667 C 6.45 g/m*3 5.16 C 14.09167 km/h
1270 06-02-2014 07:00:00 7.05 C 6.28 g/m*3 5.09 C 10.08333 km/h
1271 06-02-2014 08:00:00 6.73333 C 6.18 g/m*3 5.36 C 7.23333 km/h
1272 06-02-2014 09:00:00 7.79167 C 6.38 g/m*3 6.53 C 7.51667 km/h
1273 06-02-2014 10:00:00 8.44167 C 6.51 g/m*3 6.68 C 10.475 km/h
1274 06-02-2014 11:00:00 8.85 C 6.51 g/m*3 6.17 C 17.7 km/h
1275 06-02-2014 12:00:00 9.24167 C 6.48 g/m*3 6.81 C 16.36667 km/h
Sensor: Nr:Datum:Temp:Abs-Feuchte:Windchill:Wind:
Aussen-T/F 1276 06-02-2014 13:00:00 9.93333 C 6.4 g/m*3 8.18 C 12.36667 km/h
1277 06-02-2014 14:00:00 10.41667 C 6.46 g/m*3 9.38 C 8.59167 km/h
1278 06-02-2014 15:00:00 10.20833 C 6.32 g/m*3 9.38 C 7.39167 km/h
1279 06-02-2014 16:00:00 9.06667 C 6.51 g/m*3 9.07 C 2.53333 km/h
1280 06-02-2014 17:00:00 8.66667 C 6.47 g/m*3 8.67 C 4.00833 km/h
1281 06-02-2014 18:00:00 8.40833 C 6.54 g/m*3 8.41 C 4.15 km/h
1282 06-02-2014 19:00:00 8.75 C 6.46 g/m*3 8.75 C 3.46667 km/h
1283 06-02-2014 20:00:00 8.05 C 6.57 g/m*3 8.05 C 2.8 km/h
1284 06-02-2014 21:00:00 8.45 C 6.19 g/m*3 7.57 C 6.43333 km/h
1285 06-02-2014 22:00:00 8.04167 C 6.13 g/m*3 8.04 C 3.74167 km/h
1286 06-02-2014 23:00:00 8.15833 C 6.45 g/m*3 8.16 C 4.40833 km/h
1287 07-02-2014 00:00:00 7.64167 C 6.9 g/m*3 7.64 C 4.4 km/h
1288 07-02-2014 01:00:00 7.76667 C 6.91 g/m*3 7.77 C 3.6 km/h
1289 07-02-2014 02:00:00 8.025 C 6.82 g/m*3 8.03 C 4.14167 km/h
1290 07-02-2014 03:00:00 8.2 C 6.84 g/m*3 8.2 C 4.55 km/h
1291 07-02-2014 04:00:00 7.83333 C 6.96 g/m*3 7.83 C 3.6 km/h
1292 07-02-2014 05:00:00 7.71667 C 6.97 g/m*3 7.72 C 3.60833 km/h
1293 07-02-2014 06:00:00 9.13333 C 7.36 g/m*3 8.13 C 7.38333 km/h
1294 07-02-2014 07:00:00 10.63333 C 7.43 g/m*3 9.56 C 9.00833 km/h
1295 07-02-2014 08:00:00 11.35833 C 7.46 g/m*3 11.36 C 9.40833 km/h
1296 07-02-2014 09:00:00 12.48333 C 7.51 g/m*3 12.48 C 15.03333 km/h
1297 07-02-2014 10:00:00 13.06667 C 7.54 g/m*3 13.07 C 21.575 km/h
1298 07-02-2014 11:00:00 11.65833 C 7.64 g/m*3 11.66 C 28.83333 km/h
1299 07-02-2014 12:00:00 10.76667 C 6.89 g/m*3 7.49 C 31.25833 km/h
1300 07-02-2014 13:00:00 10.35833 C 6.86 g/m*3 7.25 C 27.08333 km/h
Sensor: Nr:Datum:Temp:Abs-Feuchte:Windchill:Wind:
Aussen-T/F 1301 07-02-2014 14:00:00 10.54167 C 6.6 g/m*3 7.08 C 33.25 km/h
1302 07-02-2014 15:00:00 9.85833 C 6.65 g/m*3 6.29 C 31.51667 km/h
1303 07-02-2014 16:00:00 9.25833 C 6.53 g/m*3 6.02 C 24.66667 km/h
1304 07-02-2014 17:00:00 8.64167 C 6.61 g/m*3 6.1 C 16.1 km/h
1305 07-02-2014 18:00:00 7.60833 C 6.6 g/m*3 4.3 C 20.51667 km/h
1306 07-02-2014 19:00:00 6.99167 C 6.36 g/m*3 4.42 C 13.56667 km/h
1307 07-02-2014 20:00:00 6.64167 C 6.22 g/m*3 4.21 C 12.23333 km/h
1308 07-02-2014 21:00:00 5.99167 C 6.14 g/m*3 4.09 C 8.86667 km/h
1309 07-02-2014 22:00:00 5.075 C 5.94 g/m*3 4.08 C 5.225 km/h
1310 07-02-2014 23:00:00 3.74167 C 5.64 g/m*3 3.74 C 2.4 km/h
1311 08-02-2014 00:00:00 2.86667 C 5.46 g/m*3 2.87 C 2.66667 km/h
1312 08-02-2014 01:00:00 2.275 C 5.27 g/m*3 2.28 C 1.33333 km/h
1313 08-02-2014 02:00:00 2.45833 C 5.3 g/m*3 2.46 C 1.6 km/h
1314 08-02-2014 03:00:00 3.55 C 5.53 g/m*3 3.55 C 3.73333 km/h
1315 08-02-2014 04:00:00 5.33333 C 5.86 g/m*3 4 C 6.31667 km/h
1316 08-02-2014 05:00:00 5.925 C 5.98 g/m*3 5.93 C 4.40833 km/h
1317 08-02-2014 06:00:00 6.025 C 6.07 g/m*3 4.94 C 5.88333 km/h
1318 08-02-2014 07:00:00 6.53333 C 6.09 g/m*3 5.02 C 7.64167 km/h
1319 08-02-2014 08:00:00 7.2 C 6.06 g/m*3 5.74 C 7.91667 km/h
1320 08-02-2014 09:00:00 7.78333 C 6.05 g/m*3 6.24 C 8.725 km/h
1321 08-02-2014 10:00:00 8.275 C 6.14 g/m*3 7.03 C 7.79167 km/h
1322 08-02-2014 11:00:00 9.25 C 6.25 g/m*3 8.12 C 8.05 km/h
1323 08-02-2014 12:00:00 9.59167 C 6.55 g/m*3 8.15 C 9.95833 km/h
1324 08-02-2014 13:00:00 8.79167 C 6.91 g/m*3 7.7 C 7.50833 km/h
1325 08-02-2014 14:00:00 8.46667 C 6.95 g/m*3 7.38 C 7.25 km/h
Sensor: Nr:Datum:Temp:Abs-Feuchte:Windchill:Wind:
Aussen-T/F 1326 08-02-2014 15:00:00 7.71667 C 7.05 g/m*3 6.84 C 6.025 km/h
1327 08-02-2014 16:00:00 7.16667 C 7.1 g/m*3 7.17 C 3.34167 km/h
1328 08-02-2014 17:00:00 6.475 C 6.91 g/m*3 6.48 C 2.93333 km/h
1329 08-02-2014 18:00:00 6.05 C 6.79 g/m*3 6.05 C 4.28333 km/h
1330 08-02-2014 19:00:00 6.78333 C 6.83 g/m*3 5.81 C 5.89167 km/h
1331 08-02-2014 20:00:00 7.1 C 6.82 g/m*3 5.72 C 7.525 km/h
1332 08-02-2014 21:00:00 7.125 C 6.52 g/m*3 5.65 C 7.93333 km/h
1333 08-02-2014 22:00:00 7.01667 C 6.33 g/m*3 5.28 C 8.98333 km/h
1334 08-02-2014 23:00:00 6.98333 C 6.06 g/m*3 4.76 C 11.425 km/h
1335 09-02-2014 00:00:00 6.35833 C 6.01 g/m*3 3.16 C 16.90833 km/h
1336 09-02-2014 01:00:00 4.44167 C 5.82 g/m*3 2.1 C 9.525 km/h
1337 09-02-2014 02:00:00 4.44167 C 5.75 g/m*3 2.81 C 6.83333 km/h
1338 09-02-2014 03:00:00 5.75 C 5.8 g/m*3 4.22 C 7.23333 km/h
1339 09-02-2014 04:00:00 5.79167 C 5.84 g/m*3 4.54 C 6.29167 km/h
1340 09-02-2014 05:00:00 5.91667 C 5.88 g/m*3 3.71 C 10.19167 km/h
1341 09-02-2014 06:00:00 5.68333 C 5.86 g/m*3 3.09 C 11.95833 km/h
1342 09-02-2014 07:00:00 5.65 C 5.8 g/m*3 2.73 C 13.825 km/h
1343 09-02-2014 08:00:00 5.725 C 5.78 g/m*3 3.48 C 10.225 km/h
1344 09-02-2014 09:00:00 5.9 C 5.78 g/m*3 3.15 C 13.15 km/h
1345 09-02-2014 10:00:00 6.30833 C 5.79 g/m*3 3.3 C 15.43333 km/h
1346 09-02-2014 11:00:00 6.575 C 5.83 g/m*3 3.36 C 17.43333 km/h
1347 09-02-2014 12:00:00 7.15833 C 5.7 g/m*3 3.66 C 21.175 km/h
1348 09-02-2014 13:00:00 7.725 C 5.55 g/m*3 4.67 C 18.50833 km/h
1349 09-02-2014 14:00:00 6.875 C 5.8 g/m*3 3.82 C 16.775 km/h
1350 09-02-2014 15:00:00 7.31667 C 5.55 g/m*3 4.74 C 14.09167 km/h
Sensor: Nr:Datum:Temp:Abs-Feuchte:Windchill:Wind:
Aussen-T/F 1351 09-02-2014 16:00:00 6.80833 C 5.43 g/m*3 4.55 C 11.425 km/h
1352 09-02-2014 17:00:00 6.25833 C 5.33 g/m*3 4.29 C 9.4 km/h
1353 09-02-2014 18:00:00 4.16667 C 5.26 g/m*3 4.17 C 2.26667 km/h
1354 09-02-2014 19:00:00 3.84167 C 5.35 g/m*3 3.84 C 3.34167 km/h
1355 09-02-2014 20:00:00 2.775 C 5.18 g/m*3 2.78 C 3.06667 km/h
1356 09-02-2014 21:00:00 2.7 C 5.24 g/m*3 2.7 C 2.8 km/h
1357 09-02-2014 22:00:00 2.325 C 5.2 g/m*3 2.33 C 1.33333 km/h
1358 09-02-2014 23:00:00 1.75833 C 5.07 g/m*3 1.76 C 0.4 km/h
1359 10-02-2014 00:00:00 1.425 C 5 g/m*3 1.43 C 0.8 km/h
1360 10-02-2014 01:00:00 1.175 C 4.93 g/m*3 1.18 C 0.93333 km/h
1361 10-02-2014 02:00:00 1.15 C 4.94 g/m*3 1.15 C 2.94167 km/h
1362 10-02-2014 03:00:00 2.84167 C 5.23 g/m*3 0.74 C 7.51667 km/h
1363 10-02-2014 04:00:00 1.50833 C 4.91 g/m*3 1.51 C 2.13333 km/h
1364 10-02-2014 05:00:00 1.775 C 5.05 g/m*3 1.78 C 4.95 km/h
1365 10-02-2014 06:00:00 3.05833 C 5.13 g/m*3 3.06 C 4.96667 km/h
1366 10-02-2014 07:00:00 2.24167 C 5.06 g/m*3 2.24 C 0.93333 km/h
1367 10-02-2014 08:00:00 1.91667 C 5.04 g/m*3 1.92 C 0.26667 km/h
1368 10-02-2014 09:00:00 2.31667 C 5.18 g/m*3 2.32 C 0.13333 km/h
1369 10-02-2014 10:00:00 3.80833 C 5.32 g/m*3 1.95 C 7.25 km/h
1370 10-02-2014 11:00:00 5.95833 C 5.3 g/m*3 3.9 C 9.55 km/h
1371 10-02-2014 12:00:00 6.5 C 4.92 g/m*3 5.44 C 6.025 km/h
1372 10-02-2014 13:00:00 6.66667 C 4.85 g/m*3 5.94 C 5.08333 km/h
1373 10-02-2014 14:00:00 6.78333 C 4.9 g/m*3 6.78 C 4.93333 km/h
1374 10-02-2014 15:00:00 6.01667 C 5.44 g/m*3 6.02 C 4.15833 km/h
1375 10-02-2014 16:00:00 4.5 C 5.92 g/m*3 4.5 C 0.26667 km/h
Sensor: Nr:Datum:Temp:Abs-Feuchte:Windchill:Wind:
Aussen-T/F 1376 10-02-2014 17:00:00 3.775 C 5.87 g/m*3 3.78 C 0 km/h
1377 10-02-2014 18:00:00 3.48333 C 5.83 g/m*3 3.48 C 0 km/h
1378 10-02-2014 19:00:00 3.3 C 5.79 g/m*3 3.3 C 0 km/h
1379 10-02-2014 20:00:00 3.14167 C 5.75 g/m*3 3.14 C 0.8 km/h
1380 10-02-2014 21:00:00 2.63333 C 5.51 g/m*3 2.63 C 1.86667 km/h
1381 10-02-2014 22:00:00 2.63333 C 5.52 g/m*3 2.63 C 2.8 km/h
1382 10-02-2014 23:00:00 2.70833 C 5.53 g/m*3 2.71 C 4.40833 km/h
1383 11-02-2014 00:00:00 2.95 C 5.63 g/m*3 2.95 C 4.275 km/h
1384 11-02-2014 01:00:00 3.64167 C 5.7 g/m*3 0.95 C 10.36667 km/h
1385 11-02-2014 02:00:00 4.10833 C 5.77 g/m*3 1.4 C 10.88333 km/h
1386 11-02-2014 03:00:00 3.875 C 5.75 g/m*3 1.52 C 9.13333 km/h
1387 11-02-2014 04:00:00 3.99167 C 5.78 g/m*3 2.38 C 6.55833 km/h
1388 11-02-2014 05:00:00 3.86667 C 5.76 g/m*3 2.32 C 6.29167 km/h
1389 11-02-2014 06:00:00 4.78333 C 5.94 g/m*3 3.05 C 7.375 km/h
1390 11-02-2014 07:00:00 5.325 C 5.92 g/m*3 2.71 C 11.69167 km/h
1391 11-02-2014 08:00:00 5.425 C 5.81 g/m*3 3.01 C 10.75833 km/h
1392 11-02-2014 09:00:00 5.69167 C 5.64 g/m*3 3.61 C 9.4 km/h
1393 11-02-2014 10:00:00 5.94167 C 5.84 g/m*3 3.88 C 9.54167 km/h
1394 11-02-2014 11:00:00 6.43333 C 6.05 g/m*3 3.67 C 13.96667 km/h
1395 11-02-2014 12:00:00 6.61667 C 5.88 g/m*3 4.07 C 12.89167 km/h
1396 11-02-2014 13:00:00 7.31667 C 5.83 g/m*3 5.6 C 9.14167 km/h
1397 11-02-2014 14:00:00 7.98333 C 5.68 g/m*3 6.66 C 7.9 km/h
1398 11-02-2014 15:00:00 8.38333 C 5.5 g/m*3 6.98 C 8.59167 km/h
1399 11-02-2014 16:00:00 7.3 C 5.54 g/m*3 6.66 C 5.08333 km/h
1400 11-02-2014 17:00:00 5.775 C 5.61 g/m*3 5.78 C 3.2 km/h
Sensor: Nr:Datum:Temp:Abs-Feuchte:Windchill:Wind:
Aussen-T/F 1401 11-02-2014 18:00:00 4.575 C 5.61 g/m*3 4.58 C 3.06667 km/h
1402 11-02-2014 19:00:00 4.65 C 5.64 g/m*3 4.65 C 3.075 km/h
1403 11-02-2014 20:00:00 4.68333 C 5.64 g/m*3 4.68 C 2.26667 km/h
1404 11-02-2014 21:00:00 5.225 C 5.57 g/m*3 5.23 C 3.2 km/h
1405 11-02-2014 22:00:00 5.625 C 5.61 g/m*3 5.63 C 2.53333 km/h
1406 11-02-2014 23:00:00 5.75833 C 5.71 g/m*3 5.76 C 2.66667 km/h
1407 12-02-2014 00:00:00 5.45 C 5.93 g/m*3 5.45 C 2.94167 km/h
1408 12-02-2014 01:00:00 5.31667 C 5.99 g/m*3 3.99 C 6.31667 km/h
1409 12-02-2014 02:00:00 5.15 C 6.02 g/m*3 2.68 C 10.74167 km/h
1410 12-02-2014 03:00:00 5.00833 C 5.98 g/m*3 2.2 C 12.36667 km/h
1411 12-02-2014 04:00:00 4.225 C 5.77 g/m*3 2.6 C 6.71667 km/h
1412 12-02-2014 05:00:00 3.73333 C 5.66 g/m*3 2.07 C 6.58333 km/h
1413 12-02-2014 06:00:00 3.61667 C 5.55 g/m*3 1.85 C 6.84167 km/h
1414 12-02-2014 07:00:00 3.88333 C 5.64 g/m*3 1.81 C 8.05 km/h
1415 12-02-2014 08:00:00 3.55 C 5.55 g/m*3 3.55 C 3.61667 km/h
1416 12-02-2014 09:00:00 3.69167 C 5.62 g/m*3 3.69 C 4.68333 km/h
1417 12-02-2014 10:00:00 5.475 C 5.69 g/m*3 3.1 C 10.61667 km/h
1418 12-02-2014 11:00:00 6.29167 C 5.59 g/m*3 3.46 C 14.225 km/h
1419 12-02-2014 12:00:00 6.75833 C 5.63 g/m*3 4.22 C 13.03333 km/h
1420 12-02-2014 13:00:00 7.95833 C 5.54 g/m*3 5.8 C 12.225 km/h
1421 12-02-2014 14:00:00 8.14167 C 5.5 g/m*3 6.18 C 11.3 km/h
1422 12-02-2014 15:00:00 8.34167 C 5.35 g/m*3 6.56 C 10.48333 km/h
1423 12-02-2014 16:00:00 7.31667 C 5.42 g/m*3 7.32 C 4.275 km/h
1424 12-02-2014 17:00:00 5.75833 C 5.38 g/m*3 4.91 C 5.08333 km/h
1425 12-02-2014 18:00:00 4.54167 C 5.37 g/m*3 4.54 C 2.8 km/h
Sensor: Nr:Datum:Temp:Abs-Feuchte:Windchill:Wind:
Aussen-T/F 1426 12-02-2014 19:00:00 4.33333 C 5.48 g/m*3 4.33 C 1.86667 km/h
1427 12-02-2014 20:00:00 4.58333 C 5.58 g/m*3 4.58 C 3.2 km/h
1428 12-02-2014 21:00:00 4.89167 C 5.64 g/m*3 4.89 C 2.93333 km/h
1429 12-02-2014 22:00:00 6.475 C 5.58 g/m*3 4.76 C 8.45 km/h
1430 12-02-2014 23:00:00 6.075 C 6.02 g/m*3 4.91 C 6.15833 km/h
1431 13-02-2014 00:00:00 5.625 C 6.03 g/m*3 3.63 C 8.99167 km/h
1432 13-02-2014 01:00:00 5.98333 C 6.14 g/m*3 3.63 C 11.025 km/h
1433 13-02-2014 02:00:00 5.925 C 6.32 g/m*3 5.93 C 3.075 km/h
1434 13-02-2014 03:00:00 5.80833 C 6.56 g/m*3 5.81 C 3.08333 km/h
1435 13-02-2014 04:00:00 6.2 C 6.66 g/m*3 4.74 C 7.24167 km/h
1436 13-02-2014 05:00:00 6.16667 C 6.43 g/m*3 4.24 C 9.125 km/h
1437 13-02-2014 06:00:00 5.43333 C 6.23 g/m*3 5.43 C 4.93333 km/h
1438 13-02-2014 07:00:00 5.425 C 6.21 g/m*3 5.43 C 4.81667 km/h
1439 13-02-2014 08:00:00 5.88333 C 6.37 g/m*3 5.88 C 2.8 km/h
1440 13-02-2014 09:00:00 6.30833 C 6.48 g/m*3 6.31 C 2.675 km/h
1441 13-02-2014 10:00:00 7.5 C 6.58 g/m*3 7.5 C 4.14167 km/h
1442 13-02-2014 11:00:00 7.90833 C 6.78 g/m*3 7.91 C 2.13333 km/h
1443 13-02-2014 12:00:00 7.28333 C 7 g/m*3 7.28 C 2.41667 km/h
1444 13-02-2014 13:00:00 5.91667 C 6.6 g/m*3 5.09 C 5.1 km/h
1445 13-02-2014 14:00:00 4.95833 C 6.25 g/m*3 3.85 C 5.49167 km/h
1446 13-02-2014 15:00:00 4.61667 C 6.19 g/m*3 4.62 C 0.4 km/h
1447 13-02-2014 16:00:00 4.55 C 6.19 g/m*3 4.55 C 4.69167 km/h
1448 13-02-2014 17:00:00 4.59167 C 6.18 g/m*3 2.9 C 7.10833 km/h
1449 13-02-2014 18:00:00 5.1 C 6.27 g/m*3 3.24 C 8.05833 km/h
1450 13-02-2014 19:00:00 5.59167 C 6.38 g/m*3 3.29 C 10.34167 km/h
Sensor: Nr:Datum:Temp:Abs-Feuchte:Windchill:Wind:
Aussen-T/F 1451 13-02-2014 20:00:00 5.64167 C 6.29 g/m*3 3.22 C 11.025 km/h
1452 13-02-2014 21:00:00 5.41667 C 5.94 g/m*3 2.49 C 13.56667 km/h
1453 13-02-2014 22:00:00 4.96667 C 5.63 g/m*3 2.75 C 9.40833 km/h
1454 13-02-2014 23:00:00 4.425 C 5.55 g/m*3 2.63 C 7.375 km/h
1455 14-02-2014 00:00:00 4.45833 C 5.6 g/m*3 3 C 6.3 km/h
1456 14-02-2014 01:00:00 4.36667 C 5.58 g/m*3 2.01 C 9.54167 km/h
1457 14-02-2014 02:00:00 4.91667 C 5.62 g/m*3 2.54 C 10.08333 km/h
1458 14-02-2014 03:00:00 4.98333 C 5.59 g/m*3 2.77 C 9.425 km/h
1459 14-02-2014 04:00:00 4.69167 C 5.48 g/m*3 2.83 C 7.8 km/h
1460 14-02-2014 05:00:00 4.19167 C 5.4 g/m*3 2.17 C 8.05 km/h
1461 14-02-2014 06:00:00 3.925 C 5.35 g/m*3 1.89 C 7.91667 km/h
1462 14-02-2014 07:00:00 2.825 C 5.28 g/m*3 2.83 C 2.8 km/h
1463 14-02-2014 08:00:00 3.64167 C 5.6 g/m*3 3.64 C 2.13333 km/h
1464 14-02-2014 09:00:00 5.19167 C 5.8 g/m*3 5.19 C 4.13333 km/h
1465 14-02-2014 10:00:00 5.89167 C 5.89 g/m*3 5.89 C 4.28333 km/h
1466 14-02-2014 11:00:00 6.64167 C 6.05 g/m*3 6.64 C 4.81667 km/h
1467 14-02-2014 12:00:00 7.78333 C 6.27 g/m*3 6.87 C 6.16667 km/h
1468 14-02-2014 13:00:00 8.16667 C 6.34 g/m*3 6.48 C 9.81667 km/h
1469 14-02-2014 14:00:00 8.19167 C 6.41 g/m*3 7.27 C 6.45 km/h
1470 14-02-2014 15:00:00 8.3 C 6.54 g/m*3 8.3 C 4.94167 km/h
1471 14-02-2014 16:00:00 7.83333 C 6.77 g/m*3 7.83 C 3.60833 km/h
1472 14-02-2014 17:00:00 6.25833 C 6.77 g/m*3 6.26 C 2.8 km/h
1473 14-02-2014 18:00:00 5.89167 C 6.5 g/m*3 4.38 C 7.25 km/h
1474 14-02-2014 19:00:00 5.56667 C 6.54 g/m*3 5.57 C 2.53333 km/h
1475 14-02-2014 20:00:00 5.09167 C 6.45 g/m*3 5.09 C 3.86667 km/h
Sensor: Nr:Datum:Temp:Abs-Feuchte:Windchill:Wind:
Aussen-T/F 1476 14-02-2014 21:00:00 5.09167 C 6.51 g/m*3 5.09 C 4.4 km/h
1477 14-02-2014 22:00:00 5.88333 C 6.84 g/m*3 5.88 C 4 km/h
1478 14-02-2014 23:00:00 5.75 C 6.74 g/m*3 5.75 C 3.46667 km/h
1479 15-02-2014 00:00:00 5.76667 C 6.72 g/m*3 5.77 C 4.54167 km/h
1480 15-02-2014 01:00:00 6.44167 C 6.95 g/m*3 6.44 C 4.94167 km/h
1481 15-02-2014 02:00:00 7.75 C 7.38 g/m*3 7.09 C 5.35 km/h
1482 15-02-2014 03:00:00 7.78333 C 7.26 g/m*3 7.78 C 4.54167 km/h
1483 15-02-2014 04:00:00 7.5 C 7.26 g/m*3 7.5 C 4.8 km/h
1484 15-02-2014 05:00:00 8.41667 C 7.65 g/m*3 8.42 C 4.4 km/h
1485 15-02-2014 06:00:00 9.55833 C 7.91 g/m*3 8.48 C 8.05 km/h
1486 15-02-2014 07:00:00 10.88333 C 7.81 g/m*3 9.2 C 13.41667 km/h
1487 15-02-2014 08:00:00 11.34167 C 7.47 g/m*3 11.34 C 13.83333 km/h
1488 15-02-2014 09:00:00 11.79167 C 7.35 g/m*3 11.79 C 22.10833 km/h
1489 15-02-2014 10:00:00 12 C 7.31 g/m*3 12 C 23.76667 km/h
1490 15-02-2014 11:00:00 12.23 C 7.18 g/m*3 12.23 C 23.16 km/h
1491 15-02-2014 12:00:00 12.16667 C 7.03 g/m*3 12.17 C 19.96667 km/h
1492 15-02-2014 13:00:00 12.13333 C 7.19 g/m*3 12.13 C 17.16667 km/h
1493 15-02-2014 14:00:00 12.30833 C 7.45 g/m*3 12.31 C 16.23333 km/h
1494 15-02-2014 15:00:00 11.94167 C 7.26 g/m*3 11.94 C 16.1 km/h
1495 15-02-2014 16:00:00 11.35333 C 7.11 g/m*3 11.35 C 14.28667 km/h
1496 15-02-2014 17:00:00 10.59167 C 7.02 g/m*3 9.07 C 11.7 km/h
1497 15-02-2014 18:00:00 9.96667 C 6.97 g/m*3 8.42 C 11.01667 km/h
1498 15-02-2014 19:00:00 9.16667 C 7.34 g/m*3 7.55 C 10.475 km/h
1499 15-02-2014 20:00:00 7.5 C 7.42 g/m*3 7.5 C 4.275 km/h
1500 15-02-2014 21:00:00 7.81667 C 7.26 g/m*3 6.09 C 9.66667 km/h
Sensor: Nr:Datum:Temp:Abs-Feuchte:Windchill:Wind:
Aussen-T/F 1501 15-02-2014 22:00:00 8.64167 C 7.07 g/m*3 6.47 C 13.29167 km/h
1502 15-02-2014 23:00:00 8.80833 C 6.84 g/m*3 6.24 C 16.63333 km/h
1503 16-02-2014 00:00:00 8.40833 C 6.76 g/m*3 6.09 C 13.975 km/h
1504 16-02-2014 01:00:00 8.45 C 6.63 g/m*3 5.76 C 16.90833 km/h
1505 16-02-2014 02:00:00 8.275 C 6.57 g/m*3 5.82 C 14.76667 km/h
1506 16-02-2014 03:00:00 7.95833 C 6.41 g/m*3 5.78 C 12.36667 km/h
1507 16-02-2014 04:00:00 8.125 C 6.3 g/m*3 5.86 C 13.15833 km/h
1508 16-02-2014 05:00:00 7.775 C 6.31 g/m*3 5.5 C 12.75833 km/h
1509 16-02-2014 06:00:00 7.69167 C 6.37 g/m*3 5.19 C 14.1 km/h
1510 16-02-2014 07:00:00 7.575 C 6.42 g/m*3 5.23 C 12.9 km/h
1511 16-02-2014 08:00:00 7.35833 C 6.37 g/m*3 5.08 C 12.23333 km/h
1512 16-02-2014 09:00:00 7.49167 C 6.53 g/m*3 5.17 C 12.625 km/h
1513 16-02-2014 10:00:00 8.00833 C 6.57 g/m*3 5.6 C 13.96667 km/h
1514 16-02-2014 11:00:00 8.56667 C 6.6 g/m*3 6.14 C 15.04167 km/h
1515 16-02-2014 12:00:00 8.45833 C 6.84 g/m*3 6.33 C 12.75833 km/h
1516 16-02-2014 13:00:00 8.68333 C 6.88 g/m*3 6.32 C 14.76667 km/h
1517 16-02-2014 14:00:00 9.21667 C 6.74 g/m*3 6.84 C 15.83333 km/h
1518 16-02-2014 15:00:00 9.325 C 6.58 g/m*3 7.18 C 14.23333 km/h
1519 16-02-2014 16:00:00 9.625 C 6.6 g/m*3 7.66 C 13.425 km/h
1520 16-02-2014 17:00:00 8.8 C 6.38 g/m*3 7.59 C 8.05 km/h
1521 16-02-2014 18:00:00 6.19167 C 6.26 g/m*3 6.19 C 3.86667 km/h
1522 16-02-2014 19:00:00 5.24167 C 6.1 g/m*3 5.24 C 3.86667 km/h
1523 16-02-2014 20:00:00 4.5 C 5.92 g/m*3 4.5 C 3.06667 km/h
1524 16-02-2014 21:00:00 3.86667 C 5.79 g/m*3 3.87 C 2.8 km/h
1525 16-02-2014 22:00:00 3.81667 C 5.68 g/m*3 3.82 C 3.46667 km/h
Sensor: Nr:Datum:Temp:Abs-Feuchte:Windchill:Wind:
Aussen-T/F 1526 16-02-2014 23:00:00 3.35 C 5.53 g/m*3 3.35 C 2.26667 km/h
1527 17-02-2014 00:00:00 2.775 C 5.39 g/m*3 2.78 C 1.86667 km/h
1528 17-02-2014 01:00:00 1.69167 C 5.11 g/m*3 1.69 C 0.13333 km/h
1529 17-02-2014 02:00:00 1.24167 C 5.01 g/m*3 1.24 C 0.66667 km/h
1530 17-02-2014 03:00:00 0.55833 C 4.79 g/m*3 0.56 C 0 km/h
1531 17-02-2014 04:00:00 0.16667 C 4.71 g/m*3 0.17 C 0 km/h
1532 17-02-2014 05:00:00 -0.04167 C 4.64 g/m*3 -0.04 C 0 km/h
1533 17-02-2014 06:00:00 0.13333 C 4.72 g/m*3 0.13 C 0.26667 km/h
1534 17-02-2014 07:00:00 0.49167 C 4.86 g/m*3 0.49 C 0.13333 km/h
1535 17-02-2014 08:00:00 1.25 C 5.12 g/m*3 1.25 C 2 km/h
1536 17-02-2014 09:00:00 2.24167 C 5.48 g/m*3 2.24 C 1.2 km/h
1537 17-02-2014 10:00:00 3.51667 C 5.95 g/m*3 3.52 C 4.44167 km/h
1538 17-02-2014 11:00:00 4.99167 C 6.36 g/m*3 3.98 C 5.23333 km/h
1539 17-02-2014 12:00:00 6.93333 C 6.79 g/m*3 4.67 C 11.56667 km/h
1540 17-02-2014 13:00:00 7.65833 C 6.75 g/m*3 5.25 C 13.43333 km/h
1541 17-02-2014 14:00:00 8.71667 C 6.81 g/m*3 6.68 C 12.5 km/h
1542 17-02-2014 15:00:00 9.35833 C 6.76 g/m*3 7.6 C 11.56667 km/h
1543 17-02-2014 16:00:00 8.59167 C 6.75 g/m*3 8 C 5.5 km/h
1544 17-02-2014 17:00:00 6.51667 C 6.54 g/m*3 6.52 C 4 km/h
1545 17-02-2014 18:00:00 5.03333 C 6.23 g/m*3 5.03 C 4.13333 km/h
1546 17-02-2014 19:00:00 4.21667 C 6 g/m*3 4.22 C 1.6 km/h
1547 17-02-2014 20:00:00 3.65833 C 5.85 g/m*3 3.66 C 0.26667 km/h
1548 17-02-2014 21:00:00 2.95 C 5.6 g/m*3 2.95 C 0 km/h
1549 17-02-2014 22:00:00 2.09167 C 5.33 g/m*3 2.09 C 0 km/h
1550 17-02-2014 23:00:00 1.625 C 5.2 g/m*3 1.63 C 0 km/h
Sensor: Nr:Datum:Temp:Abs-Feuchte:Windchill:Wind:
Aussen-T/F 1551 18-02-2014 00:00:00 1.3 C 5.09 g/m*3 1.3 C 0.13333 km/h
1552 18-02-2014 01:00:00 0.9 C 4.95 g/m*3 0.9 C 0 km/h
1553 18-02-2014 02:00:00 0.675 C 4.92 g/m*3 0.68 C 0 km/h
1554 18-02-2014 03:00:00 0.51667 C 4.87 g/m*3 0.52 C 0 km/h
1555 18-02-2014 04:00:00 0.425 C 4.84 g/m*3 0.43 C 1.06667 km/h
1556 18-02-2014 05:00:00 0.31667 C 4.8 g/m*3 0.32 C 1.6 km/h
1557 18-02-2014 06:00:00 0.21667 C 4.77 g/m*3 0.22 C 1.2 km/h
1558 18-02-2014 07:00:00 0.1 C 4.73 g/m*3 0.1 C 0 km/h
1559 18-02-2014 08:00:00 0.13333 C 4.76 g/m*3 0.13 C 0.8 km/h
1560 18-02-2014 09:00:00 0.28333 C 4.82 g/m*3 0.28 C 0.13333 km/h
1561 18-02-2014 10:00:00 0.925 C 5.06 g/m*3 0.93 C 1.33333 km/h
1562 18-02-2014 11:00:00 2.46667 C 5.62 g/m*3 2.47 C 1.6 km/h
1563 18-02-2014 12:00:00 3.35 C 5.96 g/m*3 3.35 C 1.46667 km/h
1564 18-02-2014 13:00:00 4.79167 C 6.34 g/m*3 4.79 C 0.93333 km/h
1565 18-02-2014 14:00:00 6.64167 C 6.67 g/m*3 6.64 C 0.66667 km/h
1566 18-02-2014 15:00:00 7.79167 C 6.85 g/m*3 7.79 C 0.8 km/h
1567 18-02-2014 16:00:00 7.85833 C 7.11 g/m*3 7.86 C 0 km/h
1568 18-02-2014 17:00:00 6.95833 C 6.99 g/m*3 6.96 C 0 km/h
1569 18-02-2014 18:00:00 6.54167 C 6.82 g/m*3 6.54 C 1.2 km/h
1570 18-02-2014 19:00:00 6.075 C 6.65 g/m*3 6.08 C 0 km/h
1571 18-02-2014 20:00:00 5.76667 C 6.58 g/m*3 5.77 C 0.66667 km/h
1572 18-02-2014 21:00:00 5.65 C 6.58 g/m*3 5.65 C 0.13333 km/h
1573 18-02-2014 22:00:00 5.75833 C 6.6 g/m*3 5.76 C 0.26667 km/h
1574 18-02-2014 23:00:00 5.85 C 6.56 g/m*3 5.85 C 0.13333 km/h
1575 19-02-2014 00:00:00 5.50833 C 6.51 g/m*3 5.51 C 0 km/h
Sensor: Nr:Datum:Temp:Abs-Feuchte:Windchill:Wind:
Aussen-T/F 1576 19-02-2014 01:00:00 5.3 C 6.44 g/m*3 5.3 C 0.13333 km/h
1577 19-02-2014 02:00:00 5.075 C 6.35 g/m*3 5.08 C 0.4 km/h
1578 19-02-2014 03:00:00 5.06667 C 6.35 g/m*3 5.07 C 1.06667 km/h
1579 19-02-2014 04:00:00 5.45833 C 6.5 g/m*3 5.46 C 0.66667 km/h
1580 19-02-2014 05:00:00 6.9 C 6.78 g/m*3 6.9 C 3.75833 km/h
1581 19-02-2014 06:00:00 6.99167 C 6.91 g/m*3 5.96 C 6.175 km/h
1582 19-02-2014 07:00:00 7.175 C 6.91 g/m*3 6.17 C 6.16667 km/h
1583 19-02-2014 08:00:00 7 C 6.97 g/m*3 6.28 C 5.21667 km/h
1584 19-02-2014 09:00:00 7.83333 C 7.16 g/m*3 7.83 C 4.81667 km/h
1585 19-02-2014 10:00:00 8.63333 C 7.21 g/m*3 6.48 C 13.15833 km/h
1586 19-02-2014 11:00:00 9.175 C 7.15 g/m*3 6.91 C 14.9 km/h
1587 19-02-2014 12:00:00 10.31667 C 7.12 g/m*3 8.4 C 14.23333 km/h
1588 19-02-2014 13:00:00 11.53333 C 7.04 g/m*3 11.53 C 13.16667 km/h
1589 19-02-2014 14:00:00 11.525 C 6.98 g/m*3 11.53 C 13.425 km/h
1590 19-02-2014 15:00:00 10.83333 C 7.06 g/m*3 9.31 C 12.08333 km/h
1591 19-02-2014 16:00:00 9.59167 C 7.44 g/m*3 9.15 C 5.48333 km/h
1592 19-02-2014 17:00:00 9.25833 C 7.29 g/m*3 8.4 C 6.85 km/h
1593 19-02-2014 18:00:00 8.85833 C 7.24 g/m*3 8.15 C 6.025 km/h
1594 19-02-2014 19:00:00 8.19167 C 7.09 g/m*3 8.19 C 4.14167 km/h
1595 19-02-2014 20:00:00 7.76667 C 7.08 g/m*3 7.77 C 3.73333 km/h
1596 19-02-2014 21:00:00 6.825 C 6.83 g/m*3 6.83 C 3.73333 km/h
1597 19-02-2014 22:00:00 6.2 C 6.72 g/m*3 6.2 C 3.6 km/h
1598 19-02-2014 23:00:00 6.78333 C 6.83 g/m*3 6.78 C 3.6 km/h
1599 20-02-2014 00:00:00 6.96667 C 6.81 g/m*3 6.19 C 5.35 km/h
1600 20-02-2014 01:00:00 6.55 C 6.73 g/m*3 5.81 C 5.08333 km/h
Sensor: Nr:Datum:Temp:Abs-Feuchte:Windchill:Wind:
Aussen-T/F 1601 20-02-2014 02:00:00 6.48333 C 6.8 g/m*3 6.48 C 4.01667 km/h
1602 20-02-2014 03:00:00 6.38333 C 6.77 g/m*3 6.38 C 3.61667 km/h
1603 20-02-2014 04:00:00 6.425 C 6.71 g/m*3 6.43 C 3.61667 km/h
1604 20-02-2014 05:00:00 5.86667 C 6.67 g/m*3 5.87 C 1.06667 km/h
1605 20-02-2014 06:00:00 5.96667 C 6.74 g/m*3 5.97 C 0.4 km/h
1606 20-02-2014 07:00:00 6.09167 C 6.79 g/m*3 6.09 C 1.33333 km/h
1607 20-02-2014 08:00:00 6.75 C 6.94 g/m*3 6.75 C 1.73333 km/h
1608 20-02-2014 09:00:00 7.98333 C 7.05 g/m*3 7.98 C 3.60833 km/h
1609 20-02-2014 10:00:00 8.88333 C 7.14 g/m*3 8.88 C 4.275 km/h
1610 20-02-2014 11:00:00 9.73333 C 7.07 g/m*3 8.68 C 8.05 km/h
1611 20-02-2014 12:00:00 10.76667 C 6.9 g/m*3 9.4 C 10.9 km/h
1612 20-02-2014 13:00:00 11.35 C 6.88 g/m*3 11.35 C 10.89167 km/h
1613 20-02-2014 14:00:00 11.225 C 7.08 g/m*3 11.23 C 8.74167 km/h
1614 20-02-2014 15:00:00 11.15 C 7.35 g/m*3 11.15 C 6.30833 km/h
1615 20-02-2014 16:00:00 11.25833 C 7.42 g/m*3 11.26 C 3.075 km/h
1616 20-02-2014 17:00:00 10.875 C 7.51 g/m*3 10.88 C 2.8 km/h
1617 20-02-2014 18:00:00 9.95 C 7.47 g/m*3 9.95 C 1.73333 km/h
1618 20-02-2014 19:00:00 9.75 C 7.35 g/m*3 9.75 C 2.66667 km/h
1619 20-02-2014 20:00:00 9.475 C 7.4 g/m*3 9.48 C 2.53333 km/h
1620 20-02-2014 21:00:00 9.6 C 7.53 g/m*3 9.6 C 2.53333 km/h
1621 20-02-2014 22:00:00 9.65 C 7.67 g/m*3 9.65 C 1.46667 km/h
1622 20-02-2014 23:00:00 9.41667 C 7.81 g/m*3 9.42 C 2.93333 km/h
1623 21-02-2014 00:00:00 9.38333 C 7.94 g/m*3 9.38 C 4.15 km/h
1624 21-02-2014 01:00:00 9.65 C 8.08 g/m*3 9.65 C 2.26667 km/h
1625 21-02-2014 02:00:00 9.73333 C 8.15 g/m*3 9.73 C 4.425 km/h
Sensor: Nr:Datum:Temp:Abs-Feuchte:Windchill:Wind:
Aussen-T/F 1626 21-02-2014 03:00:00 9.45 C 8.05 g/m*3 9.02 C 5.35833 km/h
1627 21-02-2014 04:00:00 9.525 C 7.89 g/m*3 8.52 C 7.65833 km/h
1628 21-02-2014 05:00:00 9.38333 C 7.52 g/m*3 7.98 C 9.53333 km/h
1629 21-02-2014 06:00:00 8.21667 C 7.41 g/m*3 8.22 C 2.94167 km/h
1630 21-02-2014 07:00:00 7.95833 C 7.24 g/m*3 7.41 C 5.075 km/h
1631 21-02-2014 08:00:00 8.25833 C 7.09 g/m*3 6.86 C 8.46667 km/h
1632 21-02-2014 09:00:00 8.9 C 7 g/m*3 6.57 C 14.9 km/h
1633 21-02-2014 10:00:00 9.28333 C 6.98 g/m*3 7.2 C 13.7 km/h
1634 21-02-2014 11:00:00 8.90833 C 6.95 g/m*3 6.55 C 15.175 km/h
1635 21-02-2014 12:00:00 7.91667 C 7.06 g/m*3 5.41 C 14.5 km/h
1636 21-02-2014 13:00:00 8.575 C 6.68 g/m*3 5.71 C 18.775 km/h
1637 21-02-2014 14:00:00 9.03333 C 6.69 g/m*3 6.65 C 15.56667 km/h
1638 21-02-2014 15:00:00 9.21667 C 6.35 g/m*3 6.56 C 18.36667 km/h
1639 21-02-2014 16:00:00 7.69167 C 6.31 g/m*3 5.16 C 14.36667 km/h
1640 21-02-2014 17:00:00 7.125 C 6.2 g/m*3 5.1 C 10.5 km/h
1641 21-02-2014 18:00:00 5.64167 C 6.05 g/m*3 5.64 C 4.4 km/h
1642 21-02-2014 19:00:00 5.1 C 5.95 g/m*3 5.1 C 4.80833 km/h
1643 21-02-2014 20:00:00 4.11667 C 5.82 g/m*3 4.12 C 3.2 km/h
1644 21-02-2014 21:00:00 3.55 C 5.69 g/m*3 3.55 C 2.93333 km/h
1645 21-02-2014 22:00:00 3.225 C 5.63 g/m*3 3.23 C 1.46667 km/h
1646 21-02-2014 23:00:00 3.53333 C 5.73 g/m*3 3.53 C 1.46667 km/h
1647 22-02-2014 00:00:00 2.86667 C 5.5 g/m*3 2.87 C 3.46667 km/h
1648 22-02-2014 01:00:00 2.35 C 5.37 g/m*3 2.35 C 2.4 km/h
1649 22-02-2014 02:00:00 1.96667 C 5.27 g/m*3 1.97 C 1.73333 km/h
1650 22-02-2014 03:00:00 1.675 C 5.16 g/m*3 1.68 C 1.6 km/h
Sensor: Nr:Datum:Temp:Abs-Feuchte:Windchill:Wind:
Aussen-T/F 1651 22-02-2014 04:00:00 1.33333 C 5.04 g/m*3 1.33 C 1.46667 km/h
1652 22-02-2014 05:00:00 1.19167 C 5.02 g/m*3 1.19 C 1.2 km/h
1653 22-02-2014 06:00:00 2.05 C 5.34 g/m*3 2.05 C 2.95 km/h
1654 22-02-2014 07:00:00 3.3 C 5.64 g/m*3 3.3 C 2.66667 km/h
1655 22-02-2014 08:00:00 3.93333 C 5.77 g/m*3 3.93 C 0.8 km/h
1656 22-02-2014 09:00:00 5.05 C 5.96 g/m*3 5.05 C 4.41667 km/h
1657 22-02-2014 10:00:00 6.24167 C 6.11 g/m*3 4.83 C 7.10833 km/h
1658 22-02-2014 11:00:00 7.00833 C 6.16 g/m*3 5.01 C 10.21667 km/h
1659 22-02-2014 12:00:00 7.48333 C 6.35 g/m*3 5.39 C 11.29167 km/h
1660 22-02-2014 13:00:00 7.28333 C 6.36 g/m*3 5.01 C 12.1 km/h
1661 22-02-2014 14:00:00 7.56667 C 6.41 g/m*3 5.35 C 12.08333 km/h
1662 22-02-2014 15:00:00 7.76667 C 6.43 g/m*3 5.85 C 10.625 km/h
1663 22-02-2014 16:00:00 7.775 C 6.45 g/m*3 6.41 C 7.925 km/h
1664 22-02-2014 17:00:00 7.36667 C 6.41 g/m*3 6.21 C 6.84167 km/h
1665 22-02-2014 18:00:00 6.74167 C 6.32 g/m*3 6.74 C 4.00833 km/h
1666 22-02-2014 19:00:00 6.34167 C 6.19 g/m*3 4.94 C 7.11667 km/h
1667 22-02-2014 20:00:00 6.10833 C 6.21 g/m*3 6.11 C 2.53333 km/h
1668 22-02-2014 21:00:00 5.75 C 6.24 g/m*3 5.75 C 1.2 km/h
1669 22-02-2014 22:00:00 5.53333 C 6.21 g/m*3 5.53 C 0.26667 km/h
1670 22-02-2014 23:00:00 5.28333 C 6.13 g/m*3 5.28 C 0.53333 km/h
1671 23-02-2014 00:00:00 5.55 C 6.07 g/m*3 5.55 C 1.86667 km/h
1672 23-02-2014 01:00:00 4.35 C 5.71 g/m*3 4.35 C 2.66667 km/h
1673 23-02-2014 02:00:00 3.04167 C 5.43 g/m*3 3.04 C 3.33333 km/h
1674 23-02-2014 03:00:00 2.88333 C 5.35 g/m*3 2.88 C 4 km/h
1675 23-02-2014 04:00:00 2.19167 C 5.17 g/m*3 2.19 C 0.66667 km/h
Sensor: Nr:Datum:Temp:Abs-Feuchte:Windchill:Wind:
Aussen-T/F 1676 23-02-2014 05:00:00 2.06667 C 5.2 g/m*3 2.07 C 0.8 km/h
1677 23-02-2014 06:00:00 2.91667 C 5.47 g/m*3 2.92 C 2.53333 km/h
1678 23-02-2014 07:00:00 3.725 C 5.63 g/m*3 3.73 C 2.8 km/h
1679 23-02-2014 08:00:00 4.51 C 5.96 g/m*3 4.51 C 0.64 km/h
1680 23-02-2014 09:00:00 6 C 6.1 g/m*3 6 C 1.06667 km/h
1681 23-02-2014 12:00:00 10.125 C 7.13 g/m*3 9.32 C 7.225 km/h
1682 23-02-2014 13:00:00 10.40833 C 6.48 g/m*3 9.04 C 10.49167 km/h
1683 23-02-2014 14:00:00 10.35 C 6.72 g/m*3 8.71 C 12.225 km/h
1684 23-02-2014 15:00:00 9.74167 C 6.78 g/m*3 8.66 C 8.20833 km/h
1685 23-02-2014 16:00:00 9.98333 C 6.61 g/m*3 9.98 C 4.81667 km/h
1686 23-02-2014 17:00:00 9.40833 C 6.71 g/m*3 9.41 C 0.66667 km/h
1687 23-02-2014 18:00:00 8.38333 C 6.5 g/m*3 8.38 C 2 km/h
1688 23-02-2014 19:00:00 7.50833 C 6.55 g/m*3 7.51 C 3.86667 km/h
1689 23-02-2014 20:00:00 6.3 C 6.25 g/m*3 6.3 C 4.53333 km/h
1690 23-02-2014 21:00:00 5.4 C 6.04 g/m*3 5.4 C 4.66667 km/h
1691 23-02-2014 22:00:00 4.675 C 5.87 g/m*3 4.68 C 4.26667 km/h
1692 23-02-2014 23:00:00 3.8 C 5.68 g/m*3 3.8 C 3.2 km/h
1693 24-02-2014 00:00:00 3.28333 C 5.58 g/m*3 3.28 C 3.33333 km/h
1694 24-02-2014 01:00:00 2.84167 C 5.47 g/m*3 2.84 C 4.13333 km/h
1695 24-02-2014 02:00:00 2.05833 C 5.21 g/m*3 2.06 C 0.26667 km/h
1696 24-02-2014 03:00:00 1.29167 C 4.99 g/m*3 1.29 C 0 km/h
1697 24-02-2014 04:00:00 0.61667 C 4.8 g/m*3 0.62 C 0 km/h
1698 24-02-2014 05:00:00 0.15833 C 4.69 g/m*3 0.16 C 0 km/h
1699 24-02-2014 06:00:00 -0.29167 C 4.56 g/m*3 -0.29 C 0.8 km/h
1700 24-02-2014 07:00:00 -0.55833 C 4.47 g/m*3 -0.56 C 0.4 km/h
Sensor: Nr:Datum:Temp:Abs-Feuchte:Windchill:Wind:
Aussen-T/F 1701 24-02-2014 08:00:00 0.64167 C 4.91 g/m*3 0.64 C 4.00833 km/h
1702 24-02-2014 09:00:00 4.45833 C 5.66 g/m*3 2.55 C 7.79167 km/h
1703 24-02-2014 10:00:00 6.31667 C 5.82 g/m*3 4.87 C 7.25833 km/h
1704 24-02-2014 11:00:00 7.65 C 6.17 g/m*3 6.84 C 5.75833 km/h
1705 24-02-2014 12:00:00 10.65833 C 6.33 g/m*3 10.22 C 6.03333 km/h
1706 24-02-2014 13:00:00 12.98333 C 6.4 g/m*3 12.98 C 7.78333 km/h
1707 24-02-2014 14:00:00 13.59167 C 6.36 g/m*3 13.59 C 7.38333 km/h
1708 24-02-2014 15:00:00 13.99167 C 6.4 g/m*3 13.99 C 9.11667 km/h
1709 24-02-2014 16:00:00 13.34167 C 6.38 g/m*3 13.34 C 5.46667 km/h
1710 24-02-2014 17:00:00 11.69167 C 6.39 g/m*3 11.69 C 4.81667 km/h
1711 24-02-2014 18:00:00 7.9 C 6.39 g/m*3 7.9 C 4.66667 km/h
1712 24-02-2014 19:00:00 6.80833 C 6.27 g/m*3 5.76 C 6.15 km/h
1713 24-02-2014 20:00:00 6.30833 C 6.21 g/m*3 5.49 C 5.2 km/h
1714 24-02-2014 21:00:00 5.775 C 6.06 g/m*3 5.78 C 3.46667 km/h
1715 24-02-2014 22:00:00 4.89167 C 5.93 g/m*3 4.89 C 0.53333 km/h
1716 24-02-2014 23:00:00 4.325 C 5.75 g/m*3 4.33 C 0.53333 km/h
1717 25-02-2014 00:00:00 3.79167 C 5.64 g/m*3 3.79 C 1.06667 km/h
1718 25-02-2014 01:00:00 3.24167 C 5.52 g/m*3 3.24 C 0 km/h
1719 25-02-2014 02:00:00 2.725 C 5.4 g/m*3 2.73 C 0.4 km/h
1720 25-02-2014 03:00:00 2.175 C 5.26 g/m*3 2.17 C 0.13333 km/h
1721 25-02-2014 04:00:00 1.75 C 5.16 g/m*3 1.75 C 0 km/h
1722 25-02-2014 05:00:00 1.55833 C 5.12 g/m*3 1.56 C 0 km/h
1723 25-02-2014 06:00:00 1.26667 C 5.03 g/m*3 1.27 C 0 km/h
1724 25-02-2014 07:00:00 1.5 C 5.16 g/m*3 1.5 C 0.4 km/h
1725 25-02-2014 08:00:00 1.96667 C 5.32 g/m*3 1.97 C 0.4 km/h
Sensor: Nr:Datum:Temp:Abs-Feuchte:Windchill:Wind:
Aussen-T/F 1726 25-02-2014 09:00:00 3.30833 C 5.85 g/m*3 3.31 C 0.93333 km/h
1727 25-02-2014 10:00:00 7.58333 C 6.79 g/m*3 7.58 C 3.34167 km/h
1728 25-02-2014 11:00:00 10.35 C 6.55 g/m*3 9.83 C 6.15833 km/h
1729 25-02-2014 12:00:00 11.55833 C 6.71 g/m*3 11.56 C 7.49167 km/h
1730 25-02-2014 13:00:00 10.98333 C 6.78 g/m*3 10.98 C 4 km/h
1731 25-02-2014 14:00:00 11.525 C 6.85 g/m*3 11.53 C 5.75833 km/h
1732 25-02-2014 15:00:00 11.575 C 6.89 g/m*3 11.58 C 7.38333 km/h
1733 25-02-2014 16:00:00 12 C 6.96 g/m*3 12 C 7.79167 km/h
1734 25-02-2014 17:00:00 11.475 C 6.94 g/m*3 11.48 C 6.025 km/h
1735 25-02-2014 18:00:00 9.71667 C 6.78 g/m*3 9.72 C 3.46667 km/h
1736 25-02-2014 19:00:00 8.45833 C 6.69 g/m*3 8.46 C 2.93333 km/h
1737 25-02-2014 20:00:00 8.25833 C 6.81 g/m*3 8.26 C 1.73333 km/h
1738 25-02-2014 21:00:00 7.98333 C 6.76 g/m*3 7.98 C 3.06667 km/h
1739 25-02-2014 22:00:00 7.86667 C 6.77 g/m*3 7.87 C 3.2 km/h
1740 25-02-2014 23:00:00 7.86667 C 6.91 g/m*3 7.87 C 3.46667 km/h
1741 26-02-2014 00:00:00 7.35 C 6.79 g/m*3 7.35 C 4 km/h
1742 26-02-2014 01:00:00 7.55833 C 6.91 g/m*3 7.56 C 2.66667 km/h
1743 26-02-2014 02:00:00 8.13333 C 7.07 g/m*3 8.13 C 2.4 km/h
1744 26-02-2014 03:00:00 7.71667 C 6.97 g/m*3 7.72 C 3.6 km/h
1745 26-02-2014 04:00:00 7.9 C 7.03 g/m*3 7.9 C 2.8 km/h
1746 26-02-2014 05:00:00 8.50833 C 7.03 g/m*3 7.9 C 5.5 km/h
1747 26-02-2014 06:00:00 8.125 C 7.02 g/m*3 8.13 C 4.14167 km/h
1748 26-02-2014 07:00:00 6.85 C 6.72 g/m*3 6.85 C 1.33333 km/h
1749 26-02-2014 08:00:00 7.39167 C 6.95 g/m*3 7.39 C 2.54167 km/h
1750 26-02-2014 09:00:00 7.41667 C 6.93 g/m*3 7.42 C 1.2 km/h
Sensor: Nr:Datum:Temp:Abs-Feuchte:Windchill:Wind:
Aussen-T/F 1751 26-02-2014 10:00:00 8.55 C 7.2 g/m*3 7.35 C 7.8 km/h
1752 26-02-2014 11:00:00 9.675 C 7.06 g/m*3 8.4 C 9.14167 km/h
1753 26-02-2014 12:00:00 10.25833 C 7.12 g/m*3 9.38 C 7.64167 km/h
1754 26-02-2014 13:00:00 10.83333 C 7.03 g/m*3 10.2 C 6.975 km/h
1755 26-02-2014 14:00:00 11.28333 C 7.01 g/m*3 11.28 C 7.79167 km/h
1756 26-02-2014 15:00:00 10.71667 C 6.92 g/m*3 10.29 C 6.03333 km/h
1757 26-02-2014 16:00:00 10.40833 C 7 g/m*3 10.41 C 2.8 km/h
1758 26-02-2014 17:00:00 9.825 C 7.17 g/m*3 9.82 C 0.66667 km/h
1759 26-02-2014 18:00:00 8.73333 C 7.1 g/m*3 8.73 C 3.33333 km/h
1760 26-02-2014 19:00:00 8.09167 C 6.98 g/m*3 8.09 C 3.33333 km/h
1761 26-02-2014 20:00:00 7.50909 C 6.89 g/m*3 7.51 C 1.30909 km/h
1762 26-02-2014 22:00:00 7.49167 C 6.84 g/m*3 7.49 C 1.86667 km/h
1763 26-02-2014 23:00:00 6.96667 C 6.7 g/m*3 6.97 C 2 km/h
1764 27-02-2014 00:00:00 5.95 C 6.46 g/m*3 5.95 C 2.4 km/h
1765 27-02-2014 01:00:00 5 C 6.19 g/m*3 5 C 1.33333 km/h
1766 27-02-2014 02:00:00 4.03333 C 5.92 g/m*3 4.03 C 0.8 km/h
1767 27-02-2014 03:00:00 3.25833 C 5.68 g/m*3 3.26 C 0.13333 km/h
1768 27-02-2014 04:00:00 2.65833 C 5.51 g/m*3 2.66 C 1.2 km/h
1769 27-02-2014 05:00:00 1.91667 C 5.25 g/m*3 1.92 C 0.93333 km/h
1770 27-02-2014 06:00:00 1.575 C 5.18 g/m*3 1.58 C 0.93333 km/h
1771 27-02-2014 07:00:00 1.31667 C 5.09 g/m*3 1.32 C 1.20833 km/h
1772 27-02-2014 08:00:00 1.1 C 5.02 g/m*3 1.1 C 0 km/h
1773 27-02-2014 09:00:00 1.6 C 5.25 g/m*3 1.6 C 1.06667 km/h
1774 27-02-2014 11:00:00 7.525 C 6.85 g/m*3 6.23 C 7.45 km/h
1775 27-02-2014 12:00:00 9.85 C 6.43 g/m*3 8.29 C 11.00833 km/h
Sensor: Nr:Datum:Temp:Abs-Feuchte:Windchill:Wind:
Aussen-T/F 1776 27-02-2014 13:00:00 9.825 C 6.24 g/m*3 8.15 C 11.69167 km/h
1777 27-02-2014 14:00:00 10.04167 C 6.26 g/m*3 8.94 C 8.6 km/h
1778 27-02-2014 15:00:00 10.6 C 6.09 g/m*3 9.43 C 9.54167 km/h
1779 27-02-2014 16:00:00 9.875 C 5.69 g/m*3 9.18 C 6.575 km/h
1780 27-02-2014 17:00:00 9.3 C 5.84 g/m*3 9.3 C 4.54167 km/h
1781 27-02-2014 18:00:00 7.76667 C 6.24 g/m*3 6.31 C 8.325 km/h
1782 27-02-2014 19:00:00 6.35833 C 6.35 g/m*3 6.36 C 4.29167 km/h
1783 27-02-2014 20:00:00 5.475 C 6.4 g/m*3 5.48 C 1.46667 km/h
1784 27-02-2014 21:00:00 4.96667 C 6.41 g/m*3 4.97 C 0.8 km/h
1785 27-02-2014 22:00:00 4.625 C 6.28 g/m*3 4.63 C 1.6 km/h
1786 27-02-2014 23:00:00 4.40833 C 6.08 g/m*3 4.41 C 3.86667 km/h
1787 28-02-2014 00:00:00 4.48333 C 6.1 g/m*3 2.99 C 6.43333 km/h
1788 28-02-2014 01:00:00 4.775 C 6.2 g/m*3 3.5 C 5.88333 km/h
1789 28-02-2014 02:00:00 4.85 C 6.09 g/m*3 2.71 C 9.00833 km/h
1790 28-02-2014 03:00:00 4.1 C 5.88 g/m*3 2.42 C 6.825 km/h
1791 28-02-2014 04:00:00 3.91667 C 5.93 g/m*3 3.92 C 3.73333 km/h
1792 28-02-2014 05:00:00 3.58333 C 5.88 g/m*3 3.58 C 1.6 km/h
1793 28-02-2014 06:00:00 3.86667 C 6.03 g/m*3 3.87 C 1.06667 km/h
1794 28-02-2014 07:00:00 4.125 C 6.14 g/m*3 4.13 C 0.66667 km/h
1795 28-02-2014 08:00:00 4.69167 C 6.28 g/m*3 4.69 C 1.2 km/h
1796 28-02-2014 09:00:00 5.68333 C 6.42 g/m*3 5.68 C 3.06667 km/h
1797 28-02-2014 10:00:00 6.75833 C 6.61 g/m*3 6.76 C 3.73333 km/h
1798 28-02-2014 11:00:00 7.78333 C 6.73 g/m*3 6.55 C 7.38333 km/h
1799 28-02-2014 12:00:00 7.99167 C 6.78 g/m*3 7.15 C 6.03333 km/h
1800 28-02-2014 13:00:00 8.48333 C 6.86 g/m*3 7.43 C 7.10833 km/h
Sensor: Nr:Datum:Temp:Abs-Feuchte:Windchill:Wind:
Aussen-T/F 1801 28-02-2014 14:00:00 9.43333 C 6.71 g/m*3 8.51 C 7.23333 km/h
1802 28-02-2014 15:00:00 9.225 C 6.55 g/m*3 9.23 C 4 km/h
1803 28-02-2014 16:00:00 9.3 C 6.53 g/m*3 8.86 C 5.33333 km/h
1804 28-02-2014 17:00:00 9.07273 C 6.65 g/m*3 9.07 C 4.66364 km/h
1805 28-02-2014 18:00:00 8.1 C 6.74 g/m*3 8.1 C 1.86667 km/h
1806 28-02-2014 19:00:00 7.00833 C 6.61 g/m*3 7.01 C 3.33333 km/h
1807 28-02-2014 20:00:00 6.63333 C 6.66 g/m*3 6.63 C 3.6 km/h
1808 28-02-2014 21:00:00 6.89167 C 6.84 g/m*3 6.89 C 0.8 km/h
1809 28-02-2014 22:00:00 6.3 C 6.88 g/m*3 6.3 C 3.08333 km/h
1810 28-02-2014 23:00:00 5.65 C 6.7 g/m*3 5.65 C 1.86667 km/h
1811 01-03-2014 00:00:00 5.29167 C 6.63 g/m*3 5.29 C 1.06667 km/h
1812 01-03-2014 01:00:00 4.825 C 6.45 g/m*3 4.83 C 0.4 km/h
1813 01-03-2014 02:00:00 4.85 C 6.49 g/m*3 4.85 C 0.66667 km/h
1814 01-03-2014 03:00:00 4.19167 C 6.18 g/m*3 4.19 C 1.6 km/h
1815 01-03-2014 04:00:00 3.675 C 5.97 g/m*3 3.68 C 2.66667 km/h
1816 01-03-2014 05:00:00 2.64167 C 5.57 g/m*3 2.64 C 0.66667 km/h
1817 01-03-2014 06:00:00 2.56667 C 5.58 g/m*3 2.57 C 0 km/h
1818 01-03-2014 07:00:00 2.75 C 5.67 g/m*3 2.75 C 0.26667 km/h
1819 01-03-2014 08:00:00 3.13333 C 5.82 g/m*3 3.13 C 0.13333 km/h
1820 01-03-2014 09:00:00 3.8 C 6.09 g/m*3 3.8 C 0.26667 km/h
1821 01-03-2014 10:00:00 5.41667 C 6.63 g/m*3 5.42 C 1.86667 km/h
1822 01-03-2014 11:00:00 7.21667 C 6.65 g/m*3 7.22 C 2.93333 km/h
1823 01-03-2014 12:00:00 8.25 C 6.78 g/m*3 7.58 C 5.60833 km/h
1824 01-03-2014 13:00:00 8.975 C 6.65 g/m*3 8.01 C 7.10833 km/h
1825 01-03-2014 14:00:00 9.29167 C 6.27 g/m*3 8.76 C 5.625 km/h
Sensor: Nr:Datum:Temp:Abs-Feuchte:Windchill:Wind:
Aussen-T/F 1826 01-03-2014 15:00:00 9.40833 C 6.17 g/m*3 9.02 C 5.21667 km/h
1827 01-03-2014 16:00:00 9.05833 C 6.1 g/m*3 9.06 C 4.01667 km/h
1828 01-03-2014 17:00:00 7.95833 C 6.28 g/m*3 6.69 C 7.66667 km/h
1829 01-03-2014 18:00:00 6.96667 C 6.46 g/m*3 6.97 C 0.66667 km/h
1830 01-03-2014 19:00:00 6.15833 C 6.47 g/m*3 6.16 C 0.53333 km/h
1831 01-03-2014 20:00:00 5.2 C 6.16 g/m*3 5.2 C 1.86667 km/h
1832 01-03-2014 21:00:00 3.575 C 5.66 g/m*3 3.58 C 1.46667 km/h
1833 01-03-2014 22:00:00 2.85833 C 5.51 g/m*3 2.86 C 1.86667 km/h
1834 01-03-2014 23:00:00 2.59167 C 5.42 g/m*3 2.59 C 0.8 km/h
1835 02-03-2014 00:00:00 1.825 C 5.19 g/m*3 1.83 C 0.26667 km/h
1836 02-03-2014 01:00:00 1.50833 C 5.12 g/m*3 1.51 C 0.93333 km/h
1837 02-03-2014 02:00:00 1.425 C 5.11 g/m*3 1.43 C 0.53333 km/h
1838 02-03-2014 03:00:00 1.95833 C 5.32 g/m*3 1.96 C 0.26667 km/h
1839 02-03-2014 04:00:00 1.69167 C 5.2 g/m*3 1.69 C 0.93333 km/h
1840 02-03-2014 05:00:00 0.86667 C 4.93 g/m*3 0.87 C 0.13333 km/h
1841 02-03-2014 06:00:00 0.375 C 4.77 g/m*3 0.38 C 0 km/h
1842 02-03-2014 07:00:00 0.28333 C 4.76 g/m*3 0.28 C 0.93333 km/h
1843 02-03-2014 08:00:00 0.55833 C 4.88 g/m*3 0.56 C 1.6 km/h
1844 02-03-2014 09:00:00 1.23333 C 5.12 g/m*3 1.23 C 0.66667 km/h
1845 02-03-2014 10:00:00 2.81667 C 5.75 g/m*3 2.82 C 2.13333 km/h
1846 02-03-2014 11:00:00 4.40833 C 6.16 g/m*3 3.22 C 5.5 km/h
1847 02-03-2014 12:00:00 6.25833 C 5.79 g/m*3 3.63 C 12.9 km/h
1848 02-03-2014 13:00:00 7.16667 C 5.68 g/m*3 5.36 C 9.41667 km/h
1849 02-03-2014 14:00:00 8.03333 C 5.69 g/m*3 6.56 C 8.61667 km/h
1850 02-03-2014 15:00:00 8.98333 C 5.78 g/m*3 8.15 C 6.56667 km/h
Sensor: Nr:Datum:Temp:Abs-Feuchte:Windchill:Wind:
Aussen-T/F 1851 02-03-2014 16:00:00 9.10833 C 5.7 g/m*3 8.63 C 5.35 km/h
1852 02-03-2014 17:00:00 7.90833 C 5.86 g/m*3 7.91 C 2.93333 km/h
1853 02-03-2014 18:00:00 4.98333 C 5.68 g/m*3 4.98 C 4.93333 km/h
1854 02-03-2014 19:00:00 3.58333 C 5.31 g/m*3 2.34 C 5.33333 km/h
1855 02-03-2014 20:00:00 2.98333 C 5.2 g/m*3 2.98 C 4.4 km/h
1856 02-03-2014 21:00:00 2.65833 C 5.16 g/m*3 2.66 C 4.13333 km/h
1857 02-03-2014 22:00:00 2.525 C 5.22 g/m*3 2.53 C 3.33333 km/h
1858 02-03-2014 23:00:00 2.075 C 5.14 g/m*3 2.08 C 3.33333 km/h
1859 03-03-2014 00:00:00 2.16667 C 5.17 g/m*3 2.17 C 3.33333 km/h
1860 03-03-2014 01:00:00 2.80833 C 5.33 g/m*3 2.81 C 3.6 km/h
1861 03-03-2014 02:00:00 3.41667 C 5.43 g/m*3 3.42 C 4.28333 km/h
1862 03-03-2014 03:00:00 3.14167 C 5.37 g/m*3 3.14 C 3.06667 km/h
1863 03-03-2014 04:00:00 3.325 C 5.53 g/m*3 2.1 C 5.20833 km/h
1864 03-03-2014 05:00:00 4.04167 C 5.64 g/m*3 2.47 C 6.44167 km/h
1865 03-03-2014 06:00:00 3.95833 C 5.61 g/m*3 2.81 C 5.21667 km/h
1866 03-03-2014 07:00:00 4.325 C 5.61 g/m*3 2.06 C 9.125 km/h
1867 03-03-2014 08:00:00 4.80833 C 5.69 g/m*3 4.81 C 3.875 km/h
1868 03-03-2014 09:00:00 5.39167 C 5.86 g/m*3 5.39 C 3.6 km/h
1869 03-03-2014 10:00:00 5.99167 C 6.19 g/m*3 5.03 C 5.48333 km/h
1870 03-03-2014 11:00:00 7.06667 C 6.47 g/m*3 6.17 C 5.75833 km/h
1871 03-03-2014 12:00:00 7.35833 C 6.54 g/m*3 7.36 C 4.54167 km/h
1872 03-03-2014 13:00:00 7.79167 C 6.93 g/m*3 7.79 C 4.80833 km/h
1873 03-03-2014 14:00:00 7.98333 C 7.21 g/m*3 7.98 C 3.2 km/h
1874 03-03-2014 15:00:00 8.86667 C 7.03 g/m*3 8.39 C 5.23333 km/h
1875 03-03-2014 16:00:00 9.29167 C 6.64 g/m*3 9.29 C 3.34167 km/h
Sensor: Nr:Datum:Temp:Abs-Feuchte:Windchill:Wind:
Aussen-T/F 1876 03-03-2014 17:00:00 8.425 C 6.88 g/m*3 8.43 C 2.4 km/h
1877 03-03-2014 18:00:00 6.74167 C 6.55 g/m*3 6.74 C 3.86667 km/h
1878 03-03-2014 19:00:00 5.175 C 6.09 g/m*3 5.18 C 4.26667 km/h
1879 03-03-2014 20:00:00 4.325 C 5.85 g/m*3 4.33 C 4.66667 km/h
1880 03-03-2014 21:00:00 4.09167 C 5.73 g/m*3 4.09 C 4 km/h
1881 03-03-2014 22:00:00 3.575 C 5.6 g/m*3 3.58 C 4.66667 km/h
1882 03-03-2014 23:00:00 2.59167 C 5.34 g/m*3 2.59 C 1.33333 km/h
1883 04-03-2014 00:00:00 1.725 C 5.11 g/m*3 1.73 C 0.26667 km/h
1884 04-03-2014 01:00:00 0.95833 C 4.87 g/m*3 0.96 C 0 km/h
1885 04-03-2014 02:00:00 0.41667 C 4.74 g/m*3 0.42 C 0 km/h
1886 04-03-2014 03:00:00 0.21667 C 4.71 g/m*3 0.22 C 0.4 km/h
1887 04-03-2014 04:00:00 -0.175 C 4.6 g/m*3 -0.18 C 0.26667 km/h
1888 04-03-2014 05:00:00 -0.66667 C 4.44 g/m*3 -0.67 C 0 km/h
1889 04-03-2014 06:00:00 -0.80833 C 4.41 g/m*3 -0.81 C 0.53333 km/h
1890 04-03-2014 07:00:00 -0.88333 C 4.41 g/m*3 -0.88 C 0.26667 km/h
1891 04-03-2014 08:00:00 -0.85833 C 4.43 g/m*3 -0.86 C 0.93333 km/h
1892 04-03-2014 09:00:00 -0.61667 C 4.5 g/m*3 -0.62 C 1.6 km/h
1893 04-03-2014 10:00:00 0.375 C 4.83 g/m*3 0.38 C 0.13333 km/h
1894 04-03-2014 11:00:00 1.85833 C 5.38 g/m*3 1.86 C 0.8 km/h
1895 04-03-2014 12:00:00 5.63333 C 6.64 g/m*3 5.63 C 1.46667 km/h
1896 04-03-2014 13:00:00 9.93333 C 6.99 g/m*3 9.93 C 1.86667 km/h
1897 04-03-2014 14:00:00 11.40833 C 6.43 g/m*3 11.41 C 4.55 km/h
1898 04-03-2014 15:00:00 12.14167 C 5.9 g/m*3 12.14 C 4.81667 km/h
1899 04-03-2014 16:00:00 9.85833 C 6.67 g/m*3 9.86 C 2.8 km/h
1900 04-03-2014 17:00:00 8.95833 C 6.8 g/m*3 8.96 C 2.93333 km/h
Sensor: Nr:Datum:Temp:Abs-Feuchte:Windchill:Wind:
Aussen-T/F 1901 04-03-2014 18:00:00 7.35 C 6.39 g/m*3 7.35 C 4.4 km/h
1902 04-03-2014 19:00:00 7.55833 C 6.43 g/m*3 7.56 C 4.66667 km/h
1903 04-03-2014 20:00:00 8.05 C 6.5 g/m*3 8.05 C 3.73333 km/h
1904 04-03-2014 21:00:00 7.09167 C 6.41 g/m*3 7.09 C 2.66667 km/h
1905 04-03-2014 22:00:00 6.20833 C 6.29 g/m*3 6.21 C 2.8 km/h
1906 04-03-2014 23:00:00 5.475 C 6.08 g/m*3 5.48 C 0.66667 km/h
1907 05-03-2014 00:00:00 4.74167 C 5.88 g/m*3 4.74 C 1.33333 km/h
1908 05-03-2014 01:00:00 3.51667 C 5.57 g/m*3 3.52 C 0.26667 km/h
1909 05-03-2014 02:00:00 2.51667 C 5.35 g/m*3 2.52 C 0.53333 km/h
1910 05-03-2014 03:00:00 2.01667 C 5.22 g/m*3 2.02 C 1.33333 km/h
1911 05-03-2014 04:00:00 1.76667 C 5.16 g/m*3 1.77 C 1.86667 km/h
1912 05-03-2014 05:00:00 1.9 C 5.18 g/m*3 1.9 C 2.26667 km/h
1913 05-03-2014 06:00:00 1.5 C 5.08 g/m*3 1.5 C 0.66667 km/h
1914 05-03-2014 07:00:00 2.19167 C 5.28 g/m*3 2.19 C 4.41667 km/h
1915 05-03-2014 08:00:00 2.23333 C 5.22 g/m*3 2.23 C 4.275 km/h
1916 05-03-2014 09:00:00 2.85833 C 5.48 g/m*3 2.86 C 1.33333 km/h
1917 05-03-2014 10:00:00 4.92 C 6.12 g/m*3 4.92 C 3.06 km/h
1918 05-03-2014 11:00:00 8.6 C 6.79 g/m*3 7.75 C 6.4 km/h
1919 05-03-2014 12:00:00 9.30833 C 6.71 g/m*3 8.4 C 7.10833 km/h
1920 05-03-2014 13:00:00 10.66667 C 7.06 g/m*3 9.48 C 9.7 km/h
1921 05-03-2014 14:00:00 10.1 C 6.34 g/m*3 8.8 C 9.7 km/h
1922 05-03-2014 15:00:00 10.51667 C 6.38 g/m*3 8.83 C 12.76667 km/h
1923 05-03-2014 16:00:00 9.89167 C 6.35 g/m*3 9.2 C 6.575 km/h
1924 05-03-2014 17:00:00 9.56667 C 6.2 g/m*3 8.7 C 7.10833 km/h
1925 05-03-2014 18:00:00 7.45 C 6.06 g/m*3 7.45 C 3.46667 km/h
Sensor: Nr:Datum:Temp:Abs-Feuchte:Windchill:Wind:
Aussen-T/F 1926 05-03-2014 19:00:00 5.46667 C 6.02 g/m*3 4.54 C 5.2 km/h
1927 05-03-2014 20:00:00 4.875 C 5.96 g/m*3 4.88 C 4.8 km/h
1928 05-03-2014 21:00:00 3.75833 C 5.71 g/m*3 3.76 C 1.33333 km/h
1929 05-03-2014 22:00:00 2.925 C 5.51 g/m*3 2.93 C 0.4 km/h
1930 05-03-2014 23:00:00 2.175 C 5.3 g/m*3 2.17 C 0 km/h
1931 06-03-2014 00:00:00 1.71667 C 5.17 g/m*3 1.72 C 0.26667 km/h
1932 06-03-2014 01:00:00 1.25833 C 5.02 g/m*3 1.26 C 0 km/h
1933 06-03-2014 02:00:00 0.675 C 4.85 g/m*3 0.68 C 0.13333 km/h
1934 06-03-2014 03:00:00 0.16667 C 4.71 g/m*3 0.17 C 0.13333 km/h
1935 06-03-2014 04:00:00 -0.2 C 4.59 g/m*3 -0.2 C 0 km/h
1936 06-03-2014 05:00:00 -0.61667 C 4.46 g/m*3 -0.62 C 0 km/h
1937 06-03-2014 06:00:00 -0.24167 C 4.62 g/m*3 -0.24 C 1.6 km/h
1938 06-03-2014 07:00:00 -0.10833 C 4.66 g/m*3 -0.11 C 1.06667 km/h
1939 06-03-2014 08:00:00 0.29167 C 4.8 g/m*3 0.29 C 1.06667 km/h
1940 06-03-2014 09:00:00 0.75833 C 4.95 g/m*3 0.76 C 1.46667 km/h
1941 06-03-2014 10:00:00 1.475 C 5.22 g/m*3 1.48 C 1.86667 km/h
1942 06-03-2014 11:00:00 2.41667 C 5.6 g/m*3 2.42 C 2.4 km/h
1943 06-03-2014 12:00:00 4.25 C 6.34 g/m*3 4.25 C 2.26667 km/h
1944 06-03-2014 13:00:00 7.75 C 7.28 g/m*3 7.75 C 4.26667 km/h
1945 06-03-2014 14:00:00 10.26667 C 7.44 g/m*3 10.27 C 4.54167 km/h
1946 06-03-2014 15:00:00 12.58333 C 7.3 g/m*3 12.58 C 6.41667 km/h
1947 06-03-2014 16:00:00 12.3 C 6.9 g/m*3 12.3 C 5.75833 km/h
1948 06-03-2014 17:00:00 10.175 C 7.01 g/m*3 10.18 C 4.80833 km/h
1949 06-03-2014 18:00:00 7.48333 C 6.47 g/m*3 6.5 C 6.26667 km/h
1950 06-03-2014 19:00:00 6.275 C 6.26 g/m*3 5.32 C 5.6 km/h
Sensor: Nr:Datum:Temp:Abs-Feuchte:Windchill:Wind:
Aussen-T/F 1951 06-03-2014 20:00:00 5.275 C 5.97 g/m*3 5.28 C 4.66667 km/h
1952 06-03-2014 21:00:00 4.05833 C 5.65 g/m*3 4.06 C 1.46667 km/h
1953 06-03-2014 22:00:00 3.10833 C 5.35 g/m*3 3.11 C 0.13333 km/h
1954 06-03-2014 23:00:00 1.99167 C 5.07 g/m*3 1.99 C 0 km/h
1955 07-03-2014 00:00:00 1.275 C 4.93 g/m*3 1.27 C 0 km/h
1956 07-03-2014 01:00:00 0.80833 C 4.82 g/m*3 0.81 C 0 km/h
1957 07-03-2014 02:00:00 0.20833 C 4.67 g/m*3 0.21 C 0 km/h
1958 07-03-2014 03:00:00 -0.15 C 4.56 g/m*3 -0.15 C 0 km/h
1959 07-03-2014 04:00:00 -0.36 C 4.52 g/m*3 -0.36 C 0 km/h
1960 07-03-2014 07:00:00 -0.9 C 4.42 g/m*3 -0.9 C 1.6 km/h
1961 07-03-2014 08:00:00 -0.78333 C 4.45 g/m*3 -0.78 C 0.53333 km/h
1962 07-03-2014 09:00:00 -0.15 C 4.65 g/m*3 -0.15 C 0.8 km/h
1963 07-03-2014 10:00:00 0.99 C 5.04 g/m*3 0.99 C 0.8 km/h
1964 07-03-2014 13:00:00 12.16667 C 7.53 g/m*3 12.17 C 3.73333 km/h
1965 07-03-2014 14:00:00 13.80833 C 7.17 g/m*3 13.81 C 4.275 km/h
1966 07-03-2014 15:00:00 15.15833 C 5.97 g/m*3 15.16 C 7.79167 km/h
1967 07-03-2014 16:00:00 13.975 C 6.67 g/m*3 13.98 C 5.225 km/h
1968 07-03-2014 17:00:00 11.40833 C 7.15 g/m*3 11.41 C 4.26667 km/h
1969 07-03-2014 18:00:00 10.03333 C 6.91 g/m*3 10.03 C 4.93333 km/h
1970 07-03-2014 19:00:00 9.18889 C 6.76 g/m*3 9.19 C 3.91111 km/h
1971 07-03-2014 20:00:00 8.30833 C 6.56 g/m*3 8.31 C 4.14167 km/h
1972 07-03-2014 21:00:00 7.76667 C 6.51 g/m*3 6.86 C 6.15833 km/h
1973 07-03-2014 22:00:00 7.33333 C 6.46 g/m*3 7.33 C 3.6 km/h
1974 07-03-2014 23:00:00 5.49167 C 6.08 g/m*3 5.49 C 0.53333 km/h
1975 08-03-2014 00:00:00 4.8 C 5.9 g/m*3 4.8 C 0.53333 km/h
Sensor: Nr:Datum:Temp:Abs-Feuchte:Windchill:Wind:
Aussen-T/F 1976 08-03-2014 01:00:00 4.40833 C 5.86 g/m*3 4.41 C 1.6 km/h
1977 08-03-2014 02:00:00 4.35 C 5.85 g/m*3 4.35 C 0.53333 km/h
1978 08-03-2014 03:00:00 3.625 C 5.62 g/m*3 3.63 C 0 km/h
1979 08-03-2014 04:00:00 3.00833 C 5.49 g/m*3 3.01 C 0.66667 km/h
1980 08-03-2014 05:00:00 2.3 C 5.31 g/m*3 2.3 C 0.26667 km/h
1981 08-03-2014 06:00:00 1.93333 C 5.21 g/m*3 1.93 C 0.26667 km/h
1982 08-03-2014 07:00:00 1.70833 C 5.18 g/m*3 1.71 C 0.4 km/h
1983 08-03-2014 08:00:00 1.89167 C 5.25 g/m*3 1.89 C 0.66667 km/h
1984 08-03-2014 09:00:00 3.09167 C 5.72 g/m*3 3.09 C 0 km/h
1985 08-03-2014 10:00:00 5.45455 C 6.56 g/m*3 5.45 C 0.43636 km/h
1986 08-03-2014 11:00:00 9.66667 C 7.68 g/m*3 9.67 C 2.13333 km/h
1987 08-03-2014 12:00:00 13.74167 C 7.68 g/m*3 13.74 C 7.65833 km/h
1988 08-03-2014 13:00:00 15.45833 C 7.1 g/m*3 15.46 C 8.31667 km/h
1989 08-03-2014 14:00:00 15.8 C 6.92 g/m*3 15.8 C 8.46667 km/h
1990 08-03-2014 15:00:00 16.18333 C 6.88 g/m*3 16.18 C 8.46667 km/h
1991 08-03-2014 16:00:00 15.40833 C 6.68 g/m*3 15.41 C 6.84167 km/h
1992 08-03-2014 17:00:00 14.025 C 7.02 g/m*3 14.03 C 6.56667 km/h
1993 08-03-2014 18:00:00 10.25833 C 6.89 g/m*3 9.76 C 6.01667 km/h
1994 08-03-2014 19:00:00 8.58333 C 6.67 g/m*3 7.88 C 5.875 km/h
1995 08-03-2014 20:00:00 7.18333 C 6.5 g/m*3 7.18 C 3.46667 km/h
1996 08-03-2014 21:00:00 6.10833 C 6.24 g/m*3 6.11 C 0.66667 km/h
1997 08-03-2014 22:00:00 5.11667 C 5.96 g/m*3 5.12 C 0 km/h
1998 08-03-2014 23:00:00 4.10833 C 5.67 g/m*3 4.11 C 0.13333 km/h
1999 09-03-2014 00:00:00 3.24167 C 5.46 g/m*3 3.24 C 0 km/h
2000 09-03-2014 01:00:00 2.65 C 5.34 g/m*3 2.65 C 0 km/h
Sensor: Nr:Datum:Temp:Abs-Feuchte:Windchill:Wind:
Aussen-T/F 2001 09-03-2014 02:00:00 2.03333 C 5.2 g/m*3 2.03 C 0 km/h
2002 09-03-2014 03:00:00 1.66667 C 5.11 g/m*3 1.67 C 0 km/h
2003 09-03-2014 04:00:00 1.23333 C 4.99 g/m*3 1.23 C 0 km/h
2004 09-03-2014 05:00:00 0.90833 C 4.9 g/m*3 0.91 C 0 km/h
2005 09-03-2014 06:00:00 0.29167 C 4.7 g/m*3 0.29 C 0 km/h
2006 09-03-2014 07:00:00 0.1 C 4.68 g/m*3 0.1 C 0 km/h
2007 09-03-2014 08:00:00 0.175 C 4.71 g/m*3 0.18 C 0.13333 km/h
2008 09-03-2014 09:00:00 0.95833 C 5.01 g/m*3 0.96 C 0.13333 km/h
2009 09-03-2014 10:00:00 3.52222 C 5.93 g/m*3 3.52 C 0.71111 km/h
2010 09-03-2014 11:00:00 7.2 C 6.95 g/m*3 7.2 C 1.2 km/h
2011 09-03-2014 12:00:00 11.70833 C 7.68 g/m*3 11.71 C 3.2 km/h
2012 09-03-2014 13:00:00 16.89167 C 6.15 g/m*3 16.89 C 4.95833 km/h
2013 09-03-2014 14:00:00 19.19167 C 4.97 g/m*3 19.19 C 6.01667 km/h
2014 09-03-2014 15:00:00 20.125 C 4.8 g/m*3 20.13 C 5.61667 km/h
2015 09-03-2014 16:00:00 17.30833 C 6.28 g/m*3 17.31 C 4.14167 km/h
2016 09-03-2014 17:00:00 15.1 C 6.78 g/m*3 15.1 C 5.2 km/h
2017 09-03-2014 18:00:00 12.59167 C 6.53 g/m*3 12.59 C 6.26667 km/h
2018 09-03-2014 19:00:00 10.4 C 6.51 g/m*3 10.15 C 5.2 km/h
2019 09-03-2014 20:00:00 8.61667 C 6.47 g/m*3 8.62 C 2.66667 km/h
2020 09-03-2014 21:00:00 7.29167 C 6.09 g/m*3 7.29 C 0.26667 km/h
2021 09-03-2014 22:00:00 5.89167 C 5.77 g/m*3 5.89 C 0 km/h
2022 09-03-2014 23:00:00 4.50833 C 5.54 g/m*3 4.51 C 0 km/h
2023 10-03-2014 00:00:00 3.70833 C 5.36 g/m*3 3.71 C 0 km/h
2024 10-03-2014 01:00:00 2.775 C 5.21 g/m*3 2.78 C 0 km/h
2025 10-03-2014 02:00:00 2.18333 C 5.09 g/m*3 2.18 C 0 km/h
Sensor: Nr:Datum:Temp:Abs-Feuchte:Windchill:Wind:
Aussen-T/F 2026 10-03-2014 03:00:00 1.775 C 5.02 g/m*3 1.78 C 0 km/h
2027 10-03-2014 04:00:00 1.34167 C 4.91 g/m*3 1.34 C 0.13333 km/h
2028 10-03-2014 05:00:00 1.18333 C 4.89 g/m*3 1.18 C 0.13333 km/h
2029 10-03-2014 06:00:00 0.91667 C 4.84 g/m*3 0.92 C 0.26667 km/h
2030 10-03-2014 07:00:00 0.61667 C 4.77 g/m*3 0.62 C 0.13333 km/h
2031 10-03-2014 08:00:00 0.975 C 4.92 g/m*3 0.98 C 0.13333 km/h
2032 10-03-2014 09:00:00 2.44167 C 5.42 g/m*3 2.44 C 0.53333 km/h
2033 10-03-2014 10:00:00 5.16667 C 6.2 g/m*3 5.17 C 0.13333 km/h
2034 10-03-2014 11:00:00 8.03333 C 7 g/m*3 8.03 C 0.8 km/h
2035 10-03-2014 12:00:00 13.2 C 7.55 g/m*3 13.2 C 1.86667 km/h
2036 10-03-2014 13:00:00 16.99167 C 6.86 g/m*3 16.99 C 4.675 km/h
2037 10-03-2014 14:00:00 17.15 C 6.58 g/m*3 17.15 C 2.8 km/h
2038 10-03-2014 15:00:00 17.825 C 6.54 g/m*3 17.83 C 2.93333 km/h
2039 10-03-2014 16:00:00 16.18333 C 6.61 g/m*3 16.18 C 3.33333 km/h
2040 10-03-2014 17:00:00 14.55833 C 6.69 g/m*3 14.56 C 5.46667 km/h
2041 10-03-2014 18:00:00 12.39167 C 6.22 g/m*3 12.39 C 6.40833 km/h
2042 10-03-2014 19:00:00 10.46667 C 6.2 g/m*3 10.47 C 4.675 km/h
2043 10-03-2014 20:00:00 8.8 C 6.01 g/m*3 8.8 C 1.06667 km/h
2044 10-03-2014 21:00:00 7.61667 C 5.76 g/m*3 7.62 C 0.8 km/h
2045 10-03-2014 22:00:00 6.65 C 5.67 g/m*3 6.65 C 0.66667 km/h
2046 10-03-2014 23:00:00 5.71667 C 5.55 g/m*3 5.72 C 0.53333 km/h
2047 11-03-2014 00:00:00 4.74167 C 5.56 g/m*3 4.74 C 0 km/h
2048 11-03-2014 01:00:00 3.96667 C 5.42 g/m*3 3.97 C 0.26667 km/h
2049 11-03-2014 02:00:00 3.65 C 5.43 g/m*3 3.65 C 0.4 km/h
2050 11-03-2014 03:00:00 3.40833 C 5.43 g/m*3 3.41 C 0.53333 km/h
Sensor: Nr:Datum:Temp:Abs-Feuchte:Windchill:Wind:
Aussen-T/F 2051 11-03-2014 04:00:00 3.125 C 5.37 g/m*3 3.13 C 0 km/h
2052 11-03-2014 05:00:00 3.06667 C 5.35 g/m*3 3.07 C 0.8 km/h
2053 11-03-2014 06:00:00 2.34167 C 5.2 g/m*3 2.34 C 0 km/h
2054 11-03-2014 07:00:00 2.30833 C 5.25 g/m*3 2.31 C 0 km/h
2055 11-03-2014 08:00:00 2.8 C 5.47 g/m*3 2.8 C 0.66667 km/h
2056 11-03-2014 09:00:00 5.525 C 6.44 g/m*3 5.53 C 2.66667 km/h
2057 11-03-2014 10:00:00 7.4 C 6.94 g/m*3 7.4 C 2.26667 km/h
2058 11-03-2014 11:00:00 9.625 C 7.32 g/m*3 9.63 C 2.53333 km/h
2059 11-03-2014 12:00:00 12.76667 C 7.92 g/m*3 12.77 C 3.46667 km/h
2060 11-03-2014 13:00:00 15.29167 C 7.97 g/m*3 15.29 C 3.33333 km/h
2061 11-03-2014 14:00:00 16.30833 C 7.78 g/m*3 16.31 C 4.54167 km/h
2062 11-03-2014 15:00:00 17.9 C 7.67 g/m*3 17.9 C 5.35 km/h
2063 11-03-2014 16:00:00 17.075 C 8.02 g/m*3 17.08 C 7.1 km/h
2064 11-03-2014 17:00:00 14.95 C 8.26 g/m*3 14.95 C 3.73333 km/h
2065 11-03-2014 18:00:00 12.04167 C 8.03 g/m*3 12.04 C 5.06667 km/h
2066 11-03-2014 19:00:00 10.5 C 7.77 g/m*3 10.26 C 5.2 km/h
2067 11-03-2014 20:00:00 9.00833 C 7.07 g/m*3 9.01 C 2.66667 km/h
2068 11-03-2014 21:00:00 8.39167 C 6.71 g/m*3 8.39 C 2.26667 km/h
2069 11-03-2014 22:00:00 7.75 C 6.5 g/m*3 7.75 C 2.66667 km/h
2070 11-03-2014 23:00:00 8.1 C 6.27 g/m*3 8.1 C 4.675 km/h
2071 12-03-2014 00:00:00 7.35833 C 6.18 g/m*3 6.74 C 5.06667 km/h
2072 12-03-2014 01:00:00 6.80833 C 6.22 g/m*3 5.97 C 5.46667 km/h
2073 12-03-2014 02:00:00 6.33333 C 6.26 g/m*3 5.34 C 5.75 km/h
2074 12-03-2014 03:00:00 5.60833 C 6.16 g/m*3 4.75 C 5.06667 km/h
2075 12-03-2014 04:00:00 4.55833 C 5.92 g/m*3 4.56 C 1.46667 km/h
Sensor: Nr:Datum:Temp:Abs-Feuchte:Windchill:Wind:
Aussen-T/F 2076 12-03-2014 05:00:00 3.775 C 5.74 g/m*3 3.78 C 0.4 km/h
2077 12-03-2014 06:00:00 2.975 C 5.54 g/m*3 2.98 C 0.13333 km/h
2078 12-03-2014 07:00:00 2.66667 C 5.5 g/m*3 2.67 C 0 km/h
2079 12-03-2014 08:00:00 3 C 5.66 g/m*3 3 C 0.26667 km/h
2080 12-03-2014 09:00:00 4.30833 C 6.25 g/m*3 4.31 C 0 km/h
2081 12-03-2014 10:00:00 7.23333 C 7.3 g/m*3 7.23 C 0.13333 km/h
2082 12-03-2014 11:00:00 10.46667 C 7.41 g/m*3 10.47 C 2.93333 km/h
2083 12-03-2014 12:00:00 14.89167 C 7.54 g/m*3 14.89 C 4.275 km/h
2084 12-03-2014 13:00:00 17.175 C 6.9 g/m*3 17.18 C 5.34167 km/h
2085 12-03-2014 14:00:00 17.64167 C 6.54 g/m*3 17.64 C 6.15 km/h
2086 12-03-2014 15:00:00 18.89167 C 6.09 g/m*3 18.89 C 6.55833 km/h
2087 12-03-2014 16:00:00 17.50833 C 6.22 g/m*3 17.51 C 3.60833 km/h
2088 12-03-2014 17:00:00 15.11667 C 6.8 g/m*3 15.12 C 4.8 km/h
2089 12-03-2014 18:00:00 12.40833 C 6.46 g/m*3 12.41 C 7.10833 km/h
2090 12-03-2014 19:00:00 10.525 C 6.47 g/m*3 10.04 C 6.15833 km/h
2091 12-03-2014 20:00:00 9.08333 C 6.35 g/m*3 9.08 C 3.73333 km/h
2092 12-03-2014 21:00:00 7.7 C 6.2 g/m*3 7.7 C 0.93333 km/h
2093 12-03-2014 22:00:00 6.33333 C 5.94 g/m*3 6.33 C 0.13333 km/h
2094 12-03-2014 23:00:00 5.50833 C 5.82 g/m*3 5.51 C 0 km/h
2095 13-03-2014 00:00:00 4.44167 C 5.64 g/m*3 4.44 C 0 km/h
2096 13-03-2014 01:00:00 4.11667 C 5.6 g/m*3 4.12 C 0.53333 km/h
2097 13-03-2014 02:00:00 3.56667 C 5.46 g/m*3 3.57 C 0.26667 km/h
2098 13-03-2014 03:00:00 3 C 5.33 g/m*3 3 C 0.4 km/h
2099 13-03-2014 04:00:00 2.325 C 5.16 g/m*3 2.33 C 0.13333 km/h
2100 13-03-2014 05:00:00 1.74167 C 5.04 g/m*3 1.74 C 0.13333 km/h
Sensor: Nr:Datum:Temp:Abs-Feuchte:Windchill:Wind:
Aussen-T/F 2101 13-03-2014 06:00:00 1.28333 C 4.93 g/m*3 1.28 C 0.4 km/h
2102 13-03-2014 07:00:00 1.05 C 4.9 g/m*3 1.05 C 0.4 km/h
2103 13-03-2014 08:00:00 1.64167 C 5.13 g/m*3 1.64 C 0 km/h
2104 13-03-2014 09:00:00 3.00833 C 5.56 g/m*3 3.01 C 0 km/h
2105 13-03-2014 10:00:00 5.69167 C 6.33 g/m*3 5.69 C 0 km/h
2106 13-03-2014 11:00:00 8.54167 C 7.02 g/m*3 8.54 C 0.53333 km/h
2107 13-03-2014 12:00:00 13.825 C 7.66 g/m*3 13.83 C 3.46667 km/h
2108 13-03-2014 13:00:00 17.35 C 7.46 g/m*3 17.35 C 2.66667 km/h
2109 13-03-2014 14:00:00 17.55 C 6.62 g/m*3 17.55 C 2.4 km/h
2110 13-03-2014 15:00:00 18.63333 C 6.35 g/m*3 18.63 C 5.50833 km/h
2111 13-03-2014 16:00:00 18.66667 C 5.55 g/m*3 18.67 C 6.83333 km/h
2112 13-03-2014 17:00:00 17.79167 C 5.3 g/m*3 17.79 C 7.39167 km/h
2113 13-03-2014 18:00:00 12.93333 C 6.15 g/m*3 12.93 C 5.225 km/h
2114 13-03-2014 19:00:00 10.64167 C 5.9 g/m*3 10.24 C 5.88333 km/h
2115 13-03-2014 20:00:00 8.79167 C 5.93 g/m*3 8.79 C 1.73333 km/h
2116 13-03-2014 21:00:00 7.44167 C 5.79 g/m*3 7.44 C 0.53333 km/h
2117 13-03-2014 22:00:00 6.16667 C 5.67 g/m*3 6.17 C 0 km/h
2118 13-03-2014 23:00:00 5.64167 C 5.58 g/m*3 5.64 C 0.26667 km/h
2119 14-03-2014 00:00:00 5.01667 C 5.49 g/m*3 5.02 C 0.66667 km/h
2120 14-03-2014 01:00:00 4.25833 C 5.39 g/m*3 4.26 C 0.4 km/h
2121 14-03-2014 02:00:00 3.49167 C 5.23 g/m*3 3.49 C 0.53333 km/h
2122 14-03-2014 03:00:00 2.64167 C 5.12 g/m*3 2.64 C 0.93333 km/h
2123 14-03-2014 04:00:00 2.00833 C 4.99 g/m*3 2.01 C 0 km/h
2124 14-03-2014 05:00:00 1.65833 C 4.96 g/m*3 1.66 C 0.93333 km/h
2125 14-03-2014 06:00:00 1.25833 C 4.85 g/m*3 1.26 C 1.06667 km/h
Sensor: Nr:Datum:Temp:Abs-Feuchte:Windchill:Wind:
Aussen-T/F 2126 14-03-2014 07:00:00 1.05833 C 4.84 g/m*3 1.06 C 0.4 km/h
2127 14-03-2014 08:00:00 1.475 C 5.03 g/m*3 1.48 C 0.26667 km/h
2128 14-03-2014 09:00:00 3.04167 C 5.54 g/m*3 3.04 C 0 km/h
2129 14-03-2014 10:00:00 6.05 C 6.26 g/m*3 6.05 C 0 km/h
2130 14-03-2014 11:00:00 9.03333 C 6.86 g/m*3 9.03 C 2 km/h
2131 14-03-2014 12:00:00 13.40833 C 7.69 g/m*3 13.41 C 2.8 km/h
2132 14-03-2014 13:00:00 15.81667 C 7.42 g/m*3 15.82 C 3.6 km/h
2133 14-03-2014 14:00:00 16.28333 C 6.78 g/m*3 16.28 C 4.26667 km/h
2134 14-03-2014 15:00:00 17.44167 C 6.61 g/m*3 17.44 C 3.2 km/h
2135 14-03-2014 16:00:00 17.06667 C 6.44 g/m*3 17.07 C 4 km/h
2136 14-03-2014 17:00:00 14.5 C 7.55 g/m*3 14.5 C 2.26667 km/h
2137 14-03-2014 18:00:00 12.15833 C 7.32 g/m*3 12.16 C 5.2 km/h
2138 14-03-2014 19:00:00 10.28333 C 7.12 g/m*3 10.28 C 4.13333 km/h
2139 14-03-2014 20:00:00 9.50833 C 7.16 g/m*3 9.51 C 3.60833 km/h
2140 14-03-2014 21:00:00 8.33333 C 6.93 g/m*3 8.33 C 1.86667 km/h
2141 14-03-2014 22:00:00 7 C 6.65 g/m*3 7 C 1.46667 km/h
2142 14-03-2014 23:00:00 7.275 C 6.56 g/m*3 7.28 C 3.73333 km/h
2143 15-03-2014 00:00:00 6.80833 C 6.38 g/m*3 5.92 C 5.61667 km/h
2144 15-03-2014 01:00:00 7.175 C 6.39 g/m*3 6.06 C 6.56667 km/h
2145 15-03-2014 02:00:00 7.23333 C 6.34 g/m*3 6.2 C 6.3 km/h
2146 15-03-2014 03:00:00 7.175 C 6.22 g/m*3 6.22 C 6.01667 km/h
2147 15-03-2014 04:00:00 7.675 C 6.28 g/m*3 7.04 C 5.21667 km/h
2148 15-03-2014 05:00:00 8.48333 C 6.57 g/m*3 7.88 C 5.5 km/h
2149 15-03-2014 06:00:00 9.2 C 7.03 g/m*3 8.33 C 6.84167 km/h
2150 15-03-2014 07:00:00 9.58333 C 7.16 g/m*3 7.99 C 10.875 km/h
Sensor: Nr:Datum:Temp:Abs-Feuchte:Windchill:Wind:
Aussen-T/F 2151 15-03-2014 08:00:00 9.21667 C 7.44 g/m*3 7.05 C 14.225 km/h
2152 15-03-2014 09:00:00 8.375 C 7.68 g/m*3 6.65 C 10.20833 km/h
2153 15-03-2014 10:00:00 8.525 C 7.65 g/m*3 6.53 C 11.95833 km/h
2154 15-03-2014 11:00:00 7.975 C 7.39 g/m*3 6.33 C 9.39167 km/h
2155 15-03-2014 12:00:00 8.51667 C 7.39 g/m*3 6.97 C 9.41667 km/h
2156 15-03-2014 13:00:00 9.88333 C 7.14 g/m*3 8.01 C 13.16667 km/h
2157 15-03-2014 14:00:00 10.36667 C 6.52 g/m*3 8.24 C 16.1 km/h
2158 15-03-2014 15:00:00 10.8 C 6.13 g/m*3 9.04 C 13.83333 km/h
2159 15-03-2014 16:00:00 10.65833 C 5.96 g/m*3 9.23 C 11.16667 km/h
2160 15-03-2014 17:00:00 10.46667 C 6.14 g/m*3 9.29 C 9.41667 km/h
2161 15-03-2014 18:00:00 10.1 C 6.4 g/m*3 9.51 C 6.28333 km/h
2162 15-03-2014 19:00:00 9.54167 C 6.79 g/m*3 8.97 C 5.89167 km/h
2163 15-03-2014 20:00:00 9.51667 C 6.87 g/m*3 8.37 C 8.33333 km/h
2164 15-03-2014 21:00:00 9.44167 C 6.92 g/m*3 7.77 C 11.15833 km/h
2165 15-03-2014 22:00:00 9.30833 C 6.97 g/m*3 7.91 C 9.43333 km/h
2166 15-03-2014 23:00:00 9.33333 C 6.98 g/m*3 8.02 C 9.00833 km/h
2167 16-03-2014 00:00:00 9.58333 C 7.02 g/m*3 7.7 C 12.76667 km/h
2168 16-03-2014 01:00:00 9.83333 C 7.11 g/m*3 7.82 C 14.1 km/h
2169 16-03-2014 02:00:00 9.70833 C 7.27 g/m*3 7.95 C 12.09167 km/h
2170 16-03-2014 03:00:00 9.875 C 7.36 g/m*3 8.23 C 11.55833 km/h
2171 16-03-2014 04:00:00 10.10833 C 7.51 g/m*3 8.77 C 9.95833 km/h
2172 16-03-2014 05:00:00 10.475 C 7.66 g/m*3 8.71 C 13.3 km/h
2173 16-03-2014 06:00:00 10.33333 C 7.72 g/m*3 8.78 C 11.56667 km/h
2174 16-03-2014 07:00:00 10.68333 C 7.85 g/m*3 9.22 C 11.43333 km/h
2175 16-03-2014 08:00:00 10.66667 C 7.84 g/m*3 9.15 C 11.83333 km/h
Sensor: Nr:Datum:Temp:Abs-Feuchte:Windchill:Wind:
Aussen-T/F 2176 16-03-2014 09:00:00 11 C 7.94 g/m*3 9.27 C 13.96667 km/h
2177 16-03-2014 10:00:00 11.38333 C 8.02 g/m*3 11.38 C 16.36667 km/h
2178 16-03-2014 11:00:00 12.95833 C 8.43 g/m*3 12.96 C 15.16667 km/h
2179 16-03-2014 12:00:00 14.74167 C 8.81 g/m*3 14.74 C 12.1 km/h
2180 16-03-2014 13:00:00 15.04167 C 8.92 g/m*3 15.04 C 9.925 km/h
2181 16-03-2014 14:00:00 15.125 C 8.8 g/m*3 15.13 C 13.56667 km/h
2182 16-03-2014 15:00:00 15.5 C 8.8 g/m*3 15.5 C 17.03333 km/h
2183 16-03-2014 16:00:00 14.69167 C 8.59 g/m*3 14.69 C 16.375 km/h
2184 16-03-2014 17:00:00 14.725 C 8.7 g/m*3 14.73 C 12.23333 km/h
2185 16-03-2014 18:00:00 13.125 C 8.37 g/m*3 13.13 C 4.4 km/h
2186 16-03-2014 19:00:00 10.25 C 7.92 g/m*3 10.25 C 3.86667 km/h
2187 16-03-2014 20:00:00 9.55 C 7.83 g/m*3 9.55 C 3.73333 km/h
2188 16-03-2014 21:00:00 9.40833 C 7.76 g/m*3 9.41 C 3.2 km/h
2189 16-03-2014 22:00:00 9.55833 C 7.72 g/m*3 9.56 C 4.68333 km/h
2190 16-03-2014 23:00:00 7.79167 C 7.24 g/m*3 7.79 C 1.73333 km/h
2191 17-03-2014 00:00:00 7.09167 C 7.09 g/m*3 7.09 C 0.93333 km/h
2192 17-03-2014 01:00:00 7.13333 C 7.13 g/m*3 6.43 C 5.21667 km/h
2193 17-03-2014 02:00:00 7.08333 C 7.13 g/m*3 5.63 C 7.8 km/h
2194 17-03-2014 03:00:00 7.475 C 7.28 g/m*3 6.02 C 8.075 km/h
2195 17-03-2014 04:00:00 7.90833 C 7.39 g/m*3 6.66 C 7.525 km/h
2196 17-03-2014 05:00:00 8.23333 C 7.47 g/m*3 6.8 C 8.61667 km/h
2197 17-03-2014 06:00:00 8.31667 C 7.51 g/m*3 6.9 C 8.59167 km/h
2198 17-03-2014 07:00:00 8.73333 C 7.63 g/m*3 7.45 C 8.34167 km/h
2199 17-03-2014 08:00:00 9.225 C 7.78 g/m*3 8 C 8.48333 km/h
2200 17-03-2014 09:00:00 10 C 7.98 g/m*3 8.99 C 8.06667 km/h
Sensor: Nr:Datum:Temp:Abs-Feuchte:Windchill:Wind:
Aussen-T/F 2201 17-03-2014 10:00:00 11.125 C 8.17 g/m*3 11.13 C 9.29167 km/h
2202 17-03-2014 11:00:00 11.9 C 8.26 g/m*3 11.9 C 11.56667 km/h
2203 17-03-2014 12:00:00 12.66667 C 8.37 g/m*3 12.67 C 8.75 km/h
2204 17-03-2014 13:00:00 13.05 C 8.53 g/m*3 13.05 C 7.25 km/h
2205 17-03-2014 14:00:00 13.84167 C 8.46 g/m*3 13.84 C 9.68333 km/h
2206 17-03-2014 15:00:00 13.725 C 8.18 g/m*3 13.73 C 11.7 km/h
2207 17-03-2014 16:00:00 13.13333 C 7.92 g/m*3 13.13 C 8.05833 km/h
2208 17-03-2014 17:00:00 12.875 C 7.83 g/m*3 12.88 C 6.28333 km/h
2209 17-03-2014 18:00:00 12.28333 C 7.77 g/m*3 12.28 C 5.49167 km/h
2210 17-03-2014 19:00:00 11.225 C 7.7 g/m*3 11.23 C 1.06667 km/h
2211 17-03-2014 20:00:00 10.34167 C 7.68 g/m*3 10.34 C 1.73333 km/h
2212 17-03-2014 21:00:00 9.85833 C 7.71 g/m*3 9.86 C 1.33333 km/h
2213 17-03-2014 22:00:00 9.75833 C 7.7 g/m*3 9.76 C 2.4 km/h
2214 17-03-2014 23:00:00 9.70833 C 7.66 g/m*3 9.71 C 2.26667 km/h
2215 18-03-2014 00:00:00 8.375 C 7.31 g/m*3 8.38 C 0.93333 km/h
2216 18-03-2014 01:00:00 8.3 C 7.44 g/m*3 8.3 C 0.93333 km/h
2217 18-03-2014 02:00:00 8.69167 C 7.51 g/m*3 8.69 C 1.2 km/h
2218 18-03-2014 03:00:00 8.54167 C 7.44 g/m*3 8.54 C 2.26667 km/h
2219 18-03-2014 04:00:00 7.73333 C 7.22 g/m*3 7.73 C 1.2 km/h
2220 18-03-2014 05:00:00 7.53333 C 7.18 g/m*3 7.53 C 1.73333 km/h
2221 18-03-2014 06:00:00 7.65833 C 7.28 g/m*3 7.66 C 3.46667 km/h
2222 18-03-2014 07:00:00 7.98333 C 7.47 g/m*3 7.18 C 5.9 km/h
2223 18-03-2014 08:00:00 8.51667 C 7.62 g/m*3 7.65 C 6.43333 km/h
2224 18-03-2014 09:00:00 8.58333 C 7.69 g/m*3 7.48 C 7.39167 km/h
2225 18-03-2014 10:00:00 8.70833 C 7.62 g/m*3 6.61 C 12.9 km/h
Sensor: Nr:Datum:Temp:Abs-Feuchte:Windchill:Wind:
Aussen-T/F 2226 18-03-2014 11:00:00 8.56667 C 7.75 g/m*3 7.47 C 7.375 km/h
2227 18-03-2014 12:00:00 9.04167 C 7.92 g/m*3 7.6 C 9.40833 km/h
2228 18-03-2014 13:00:00 9.45833 C 7.89 g/m*3 8.7 C 6.56667 km/h
2229 18-03-2014 14:00:00 10.425 C 8 g/m*3 9.44 C 8.31667 km/h
2230 18-03-2014 15:00:00 11.24167 C 8.05 g/m*3 11.24 C 10.63333 km/h
2231 18-03-2014 16:00:00 11.38333 C 7.84 g/m*3 11.38 C 12.1 km/h
2232 18-03-2014 17:00:00 11.44167 C 7.79 g/m*3 11.44 C 6.95833 km/h
2233 18-03-2014 18:00:00 11.38333 C 7.73 g/m*3 11.38 C 11.425 km/h
2234 18-03-2014 19:00:00 11.26667 C 7.41 g/m*3 11.27 C 11.56667 km/h
2235 18-03-2014 20:00:00 10.84167 C 7.05 g/m*3 8.76 C 16.76667 km/h
2236 18-03-2014 21:00:00 10.44167 C 6.88 g/m*3 8.15 C 17.83333 km/h
2237 18-03-2014 22:00:00 9.775 C 7.07 g/m*3 8.01 C 12.23333 km/h
2238 18-03-2014 23:00:00 9.86667 C 7.17 g/m*3 7.95 C 13.43333 km/h
2239 19-03-2014 00:00:00 9.80833 C 7.38 g/m*3 7.99 C 12.625 km/h
2240 19-03-2014 01:00:00 9.75833 C 7.56 g/m*3 7.97 C 12.35833 km/h
2241 19-03-2014 02:00:00 9.63333 C 7.68 g/m*3 8.09 C 10.6 km/h
2242 19-03-2014 03:00:00 9.925 C 7.56 g/m*3 8.15 C 12.5 km/h
2243 19-03-2014 04:00:00 9.9 C 7.52 g/m*3 8.52 C 9.94167 km/h
2244 19-03-2014 05:00:00 9.975 C 7.48 g/m*3 8.29 C 11.96667 km/h
2245 19-03-2014 06:00:00 9.84167 C 7.49 g/m*3 8.57 C 9.26667 km/h
2246 19-03-2014 07:00:00 9.925 C 7.48 g/m*3 9.14 C 6.975 km/h
2247 19-03-2014 08:00:00 10.26667 C 7.57 g/m*3 8.81 C 10.88333 km/h
2248 19-03-2014 09:00:00 10.875 C 7.64 g/m*3 9.68 C 9.95833 km/h
2249 19-03-2014 10:00:00 11.88333 C 7.71 g/m*3 11.88 C 15.16667 km/h
2250 19-03-2014 11:00:00 13.14167 C 7.43 g/m*3 13.14 C 15.03333 km/h
Sensor: Nr:Datum:Temp:Abs-Feuchte:Windchill:Wind:
Aussen-T/F 2251 19-03-2014 12:00:00 14.28333 C 7.51 g/m*3 14.28 C 16.76667 km/h
2252 19-03-2014 13:00:00 15.74167 C 7.71 g/m*3 15.74 C 16.76667 km/h
2253 19-03-2014 14:00:00 15.84167 C 7.75 g/m*3 15.84 C 18.23333 km/h
2254 19-03-2014 15:00:00 16.575 C 7.62 g/m*3 16.58 C 16.23333 km/h
2255 19-03-2014 16:00:00 16.54167 C 7.53 g/m*3 16.54 C 13.56667 km/h
2256 19-03-2014 17:00:00 15.88333 C 7.76 g/m*3 15.88 C 13.3 km/h
2257 19-03-2014 18:00:00 14.56667 C 7.85 g/m*3 14.57 C 9.53333 km/h
2258 19-03-2014 19:00:00 13.35833 C 7.69 g/m*3 13.36 C 8.86667 km/h
2259 19-03-2014 20:00:00 12.35833 C 7.54 g/m*3 12.36 C 8.74167 km/h
2260 19-03-2014 21:00:00 12.08333 C 7.45 g/m*3 12.08 C 9.96667 km/h
2261 19-03-2014 22:00:00 11.675 C 7.39 g/m*3 11.68 C 11.425 km/h
2262 19-03-2014 23:00:00 11.05833 C 7.36 g/m*3 11.06 C 8.59167 km/h
2263 20-03-2014 00:00:00 10.21667 C 7.26 g/m*3 9.42 C 7.25 km/h
2264 20-03-2014 01:00:00 9.23333 C 7.14 g/m*3 8.82 C 5.21667 km/h
2265 20-03-2014 02:00:00 8.69167 C 7.04 g/m*3 7.96 C 6.025 km/h
2266 20-03-2014 03:00:00 7.71667 C 6.81 g/m*3 7.72 C 2.4 km/h
2267 20-03-2014 04:00:00 6.36667 C 6.59 g/m*3 6.37 C 1.46667 km/h
2268 20-03-2014 05:00:00 5.48333 C 6.34 g/m*3 5.48 C 1.2 km/h
2269 20-03-2014 06:00:00 4.775 C 6.18 g/m*3 4.78 C 0.53333 km/h
2270 20-03-2014 07:00:00 4.56667 C 6.19 g/m*3 4.57 C 0 km/h
2271 20-03-2014 08:00:00 5.225 C 6.49 g/m*3 5.23 C 0.53333 km/h
2272 20-03-2014 09:00:00 6.96667 C 7.15 g/m*3 6.97 C 1.86667 km/h
2273 20-03-2014 10:00:00 10.275 C 7.74 g/m*3 10.28 C 3.33333 km/h
2274 20-03-2014 11:00:00 14.79167 C 7.69 g/m*3 14.79 C 5.20833 km/h
2275 20-03-2014 12:00:00 18.85833 C 6.57 g/m*3 18.86 C 10.20833 km/h
Sensor: Nr:Datum:Temp:Abs-Feuchte:Windchill:Wind:
Aussen-T/F 2276 20-03-2014 13:00:00 19.83333 C 6.47 g/m*3 19.83 C 7.78333 km/h
2277 20-03-2014 14:00:00 20.29167 C 6.72 g/m*3 20.29 C 9 km/h
2278 20-03-2014 15:00:00 20.98333 C 6.91 g/m*3 20.98 C 5.61667 km/h
2279 20-03-2014 16:00:00 21.96667 C 6.57 g/m*3 21.97 C 8.60833 km/h
2280 20-03-2014 17:00:00 21.78889 C 6.2 g/m*3 21.79 C 7.52222 km/h
2281 20-03-2014 18:00:00 17.44167 C 6.97 g/m*3 17.44 C 4.93333 km/h
2282 20-03-2014 19:00:00 14.35 C 7.18 g/m*3 14.35 C 5.86667 km/h
2283 20-03-2014 20:00:00 13.8 C 7.37 g/m*3 13.8 C 5.06667 km/h
2284 20-03-2014 21:00:00 13.53333 C 7.54 g/m*3 13.53 C 3.86667 km/h
2285 20-03-2014 22:00:00 12.79167 C 7.61 g/m*3 12.79 C 4.26667 km/h
2286 20-03-2014 23:00:00 12.21667 C 7.68 g/m*3 12.22 C 2.8 km/h
2287 21-03-2014 00:00:00 11.66667 C 7.72 g/m*3 11.67 C 2.93333 km/h
2288 21-03-2014 01:00:00 10.79167 C 7.64 g/m*3 10.79 C 1.2 km/h
2289 21-03-2014 02:00:00 9.78333 C 7.45 g/m*3 9.78 C 2.8 km/h
2290 21-03-2014 03:00:00 12.85 C 7.95 g/m*3 12.85 C 10.85833 km/h
2291 21-03-2014 04:00:00 15.675 C 8.06 g/m*3 15.68 C 15.7 km/h
2292 21-03-2014 05:00:00 15.5 C 8.02 g/m*3 15.5 C 17.43333 km/h
2293 21-03-2014 06:00:00 15.31667 C 7.82 g/m*3 15.32 C 21.73333 km/h
2294 21-03-2014 07:00:00 15.3 C 7.94 g/m*3 15.3 C 23.46667 km/h
2295 21-03-2014 08:00:00 15.45 C 7.78 g/m*3 15.45 C 22.78333 km/h
2296 21-03-2014 09:00:00 15.725 C 7.49 g/m*3 15.73 C 25.075 km/h
2297 21-03-2014 10:00:00 16.00833 C 7.27 g/m*3 16.01 C 20.78333 km/h
2298 21-03-2014 11:00:00 16.88333 C 7.05 g/m*3 16.88 C 21.44167 km/h
2299 21-03-2014 12:00:00 16.70833 C 7.71 g/m*3 16.71 C 21.43333 km/h
2300 21-03-2014 13:00:00 15.81667 C 7.87 g/m*3 15.82 C 19.975 km/h
Sensor: Nr:Datum:Temp:Abs-Feuchte:Windchill:Wind:
Aussen-T/F 2301 21-03-2014 14:00:00 14.88333 C 8.24 g/m*3 14.88 C 19.03333 km/h
2302 21-03-2014 15:00:00 14.375 C 8.34 g/m*3 14.38 C 17.43333 km/h
2303 21-03-2014 16:00:00 13.78333 C 7.28 g/m*3 13.78 C 16.10833 km/h
2304 21-03-2014 17:00:00 12.08333 C 7.34 g/m*3 12.08 C 9 km/h
2305 21-03-2014 18:00:00 11.125 C 7.05 g/m*3 11.13 C 6.15833 km/h
2306 21-03-2014 19:00:00 9.93333 C 6.88 g/m*3 9.93 C 0.66667 km/h
2307 21-03-2014 20:00:00 9.19167 C 6.79 g/m*3 9.19 C 1.86667 km/h
2308 21-03-2014 21:00:00 8.91667 C 6.76 g/m*3 8.92 C 2.4 km/h
2309 21-03-2014 22:00:00 8.78333 C 6.95 g/m*3 8.78 C 0.93333 km/h
2310 21-03-2014 23:00:00 8.75 C 7.26 g/m*3 8.75 C 0.53333 km/h
2311 22-03-2014 00:00:00 8.575 C 7.34 g/m*3 8.57 C 1.33333 km/h
2312 22-03-2014 01:00:00 7.83333 C 7.29 g/m*3 7.83 C 1.2 km/h
2313 22-03-2014 02:00:00 7.76667 C 7.26 g/m*3 7.77 C 2.4 km/h
2314 22-03-2014 03:00:00 7.45 C 7.26 g/m*3 7.45 C 1.86667 km/h
2315 22-03-2014 04:00:00 8.21667 C 7.57 g/m*3 8.22 C 0.13333 km/h
2316 22-03-2014 05:00:00 8.3 C 7.55 g/m*3 8.3 C 0 km/h
2317 22-03-2014 06:00:00 8.45 C 7.78 g/m*3 8.45 C 1.6 km/h
2318 22-03-2014 07:00:00 8.475 C 7.86 g/m*3 8.48 C 1.6 km/h
2319 22-03-2014 08:00:00 9.74167 C 7.6 g/m*3 9.03 C 6.575 km/h
2320 22-03-2014 09:00:00 10.5 C 7.06 g/m*3 8.8 C 12.89167 km/h
2321 22-03-2014 10:00:00 11.01667 C 6.81 g/m*3 11.02 C 13.03333 km/h
2322 22-03-2014 11:00:00 11.06667 C 6.75 g/m*3 11.07 C 9 km/h
2323 22-03-2014 12:00:00 12.41667 C 6.93 g/m*3 12.42 C 11.95 km/h
2324 22-03-2014 13:00:00 12.95833 C 6.64 g/m*3 12.96 C 11.95833 km/h
2325 22-03-2014 14:00:00 12.51667 C 6.77 g/m*3 12.52 C 7.79167 km/h
Sensor: Nr:Datum:Temp:Abs-Feuchte:Windchill:Wind:
Aussen-T/F 2326 22-03-2014 15:00:00 10.475 C 7.69 g/m*3 9.02 C 11.14167 km/h
2327 22-03-2014 16:00:00 11.01667 C 7.38 g/m*3 11.02 C 12.49167 km/h
2328 22-03-2014 17:00:00 7.75 C 6.93 g/m*3 5.73 C 11.14167 km/h
2329 22-03-2014 18:00:00 6.24167 C 6.76 g/m*3 6.24 C 2.8 km/h
2330 22-03-2014 19:00:00 5.675 C 6.72 g/m*3 5.68 C 3.06667 km/h
2331 22-03-2014 20:00:00 5.75 C 6.73 g/m*3 5.75 C 2.53333 km/h
2332 22-03-2014 21:00:00 5.51667 C 6.6 g/m*3 5.52 C 2 km/h
2333 22-03-2014 22:00:00 4.89167 C 6.4 g/m*3 4.89 C 3.2 km/h
2334 22-03-2014 23:00:00 5.05 C 6.44 g/m*3 5.05 C 3.86667 km/h
2335 23-03-2014 00:00:00 4.64167 C 6.28 g/m*3 4.64 C 3.46667 km/h
2336 23-03-2014 01:00:00 4.73333 C 6.36 g/m*3 4.73 C 1.6 km/h
2337 23-03-2014 02:00:00 4.66667 C 6.33 g/m*3 4.67 C 1.06667 km/h
2338 23-03-2014 03:00:00 4.26667 C 6.21 g/m*3 4.27 C 0.26667 km/h
2339 23-03-2014 04:00:00 5.00833 C 6.49 g/m*3 5.01 C 3.21667 km/h
2340 23-03-2014 05:00:00 5.10833 C 6.32 g/m*3 5.11 C 2.4 km/h
2341 23-03-2014 06:00:00 4.06667 C 5.94 g/m*3 4.07 C 1.33333 km/h
2342 23-03-2014 07:00:00 3.99167 C 6 g/m*3 3.99 C 1.86667 km/h
2343 23-03-2014 08:00:00 5.25833 C 6.12 g/m*3 3.49 C 7.8 km/h
2344 23-03-2014 09:00:00 5.925 C 5.87 g/m*3 3.38 C 11.95833 km/h
2345 23-03-2014 10:00:00 6.96667 C 5.83 g/m*3 4.51 C 12.75833 km/h
2346 23-03-2014 11:00:00 7.13333 C 5.64 g/m*3 4.59 C 13.56667 km/h
2347 23-03-2014 12:00:00 8.25 C 5.59 g/m*3 5.68 C 15.56667 km/h
2348 23-03-2014 13:00:00 8.69167 C 5.46 g/m*3 6.26 C 15.3 km/h
2349 23-03-2014 14:00:00 8.89167 C 5.5 g/m*3 6.6 C 14.63333 km/h
2350 23-03-2014 15:00:00 8.84167 C 5.43 g/m*3 6.79 C 12.76667 km/h
Sensor: Nr:Datum:Temp:Abs-Feuchte:Windchill:Wind:
Aussen-T/F 2351 23-03-2014 16:00:00 8.73333 C 5.59 g/m*3 6.66 C 12.76667 km/h
2352 23-03-2014 17:00:00 8.41667 C 5.68 g/m*3 6.73 C 10.075 km/h
2353 23-03-2014 18:00:00 8.09167 C 5.93 g/m*3 8.09 C 2.53333 km/h
2354 23-03-2014 19:00:00 6.48333 C 5.91 g/m*3 6.48 C 2.53333 km/h
2355 23-03-2014 20:00:00 5.75 C 5.81 g/m*3 5.75 C 1.2 km/h
2356 23-03-2014 21:00:00 4.71667 C 5.62 g/m*3 4.72 C 2.93333 km/h
2357 23-03-2014 22:00:00 3.44167 C 5.42 g/m*3 3.44 C 2.13333 km/h
2358 23-03-2014 23:00:00 2.76667 C 5.35 g/m*3 2.77 C 0.66667 km/h
2359 24-03-2014 00:00:00 3.24167 C 5.43 g/m*3 3.24 C 1.73333 km/h
2360 24-03-2014 01:00:00 3.38333 C 5.42 g/m*3 3.38 C 4.3 km/h
2361 24-03-2014 02:00:00 3.14167 C 5.38 g/m*3 3.14 C 1.74167 km/h
2362 24-03-2014 03:00:00 3.05 C 5.37 g/m*3 3.05 C 0.4 km/h
2363 24-03-2014 04:00:00 3.35 C 5.38 g/m*3 3.35 C 1.6 km/h
2364 24-03-2014 05:00:00 3.21667 C 5.34 g/m*3 3.22 C 0.53333 km/h
2365 24-03-2014 06:00:00 3.03333 C 5.34 g/m*3 3.03 C 0.8 km/h
2366 24-03-2014 07:00:00 3.3 C 5.39 g/m*3 3.3 C 3.86667 km/h
2367 24-03-2014 08:00:00 4.14167 C 5.65 g/m*3 2.73 C 6.01667 km/h
2368 24-03-2014 09:00:00 4.78333 C 5.68 g/m*3 3.61 C 5.60833 km/h
2369 24-03-2014 10:00:00 5.48333 C 5.83 g/m*3 5.48 C 3.86667 km/h
2370 24-03-2014 11:00:00 6.875 C 6 g/m*3 6.18 C 5.08333 km/h
2371 24-03-2014 12:00:00 8.4 C 5.89 g/m*3 7.37 C 6.96667 km/h
2372 24-03-2014 13:00:00 9.425 C 5.89 g/m*3 8.23 C 8.475 km/h
2373 24-03-2014 14:00:00 9.925 C 5.62 g/m*3 8.5 C 10.225 km/h
2374 24-03-2014 15:00:00 9.075 C 5.71 g/m*3 7.61 C 9.54167 km/h
2375 24-03-2014 16:00:00 9.35 C 5.75 g/m*3 8.61 C 6.43333 km/h
Sensor: Nr:Datum:Temp:Abs-Feuchte:Windchill:Wind:
Aussen-T/F 2376 24-03-2014 17:00:00 9.18333 C 5.78 g/m*3 9.18 C 3.74167 km/h
2377 24-03-2014 18:00:00 6.20833 C 5.79 g/m*3 6.21 C 4 km/h
2378 24-03-2014 19:00:00 6.275 C 5.85 g/m*3 6.28 C 1.6 km/h
2379 24-03-2014 20:00:00 6.18333 C 5.89 g/m*3 6.18 C 2.675 km/h
2380 24-03-2014 21:00:00 4.41667 C 5.47 g/m*3 4.42 C 2.93333 km/h
2381 24-03-2014 22:00:00 3.31667 C 5.31 g/m*3 3.32 C 1.06667 km/h
2382 24-03-2014 23:00:00 2.21667 C 5.09 g/m*3 2.22 C 0 km/h
2383 25-03-2014 00:00:00 1.66667 C 4.99 g/m*3 1.67 C 0.13333 km/h
2384 25-03-2014 01:00:00 1.05833 C 4.84 g/m*3 1.06 C 0.66667 km/h
2385 25-03-2014 02:00:00 0.75833 C 4.79 g/m*3 0.76 C 0.26667 km/h
2386 25-03-2014 03:00:00 0.29167 C 4.67 g/m*3 0.29 C 0.26667 km/h
2387 25-03-2014 04:00:00 0.58333 C 4.82 g/m*3 0.58 C 0.26667 km/h
2388 25-03-2014 05:00:00 0.28333 C 4.73 g/m*3 0.28 C 0.66667 km/h
2389 25-03-2014 06:00:00 0.34167 C 4.76 g/m*3 0.34 C 0.8 km/h
2390 25-03-2014 07:00:00 0.76667 C 4.9 g/m*3 0.77 C 1.33333 km/h
2391 25-03-2014 08:00:00 1.23333 C 5.06 g/m*3 1.23 C 2.93333 km/h
2392 25-03-2014 09:00:00 2.39167 C 5.45 g/m*3 2.39 C 3.2 km/h
2393 25-03-2014 10:00:00 3.94167 C 5.72 g/m*3 3.94 C 1.6 km/h
2394 25-03-2014 11:00:00 6.825 C 6.19 g/m*3 6.83 C 4.68333 km/h
2395 25-03-2014 12:00:00 8.68333 C 5.9 g/m*3 8.23 C 5.08333 km/h
2396 25-03-2014 13:00:00 8.88333 C 5.74 g/m*3 8.88 C 3.73333 km/h
2397 25-03-2014 14:00:00 8.525 C 5.27 g/m*3 7.23 C 8.2 km/h
2398 25-03-2014 15:00:00 9.2 C 5.34 g/m*3 8.37 C 6.7 km/h
2399 25-03-2014 16:00:00 10.4 C 5.48 g/m*3 9.34 C 8.71667 km/h
2400 25-03-2014 17:00:00 9.88333 C 5.69 g/m*3 8.74 C 8.625 km/h
Sensor: Nr:Datum:Temp:Abs-Feuchte:Windchill:Wind:
Aussen-T/F 2401 25-03-2014 18:00:00 7.91667 C 5.54 g/m*3 7.32 C 5.20833 km/h
2402 25-03-2014 19:00:00 5.34167 C 5.18 g/m*3 4.11 C 6.00833 km/h
2403 25-03-2014 20:00:00 3.99167 C 5.18 g/m*3 3.99 C 3.86667 km/h
2404 25-03-2014 21:00:00 3.05833 C 5.09 g/m*3 3.06 C 2 km/h
2405 25-03-2014 22:00:00 2.35833 C 5.01 g/m*3 2.36 C 1.06667 km/h
2406 25-03-2014 23:00:00 1.51667 C 4.81 g/m*3 1.52 C 0.53333 km/h
2407 26-03-2014 00:00:00 0.88333 C 4.68 g/m*3 0.88 C 0 km/h
2408 26-03-2014 01:00:00 0.36667 C 4.58 g/m*3 0.37 C 0 km/h
2409 26-03-2014 02:00:00 0.10833 C 4.56 g/m*3 0.11 C 0 km/h
2410 26-03-2014 03:00:00 0.30833 C 4.64 g/m*3 0.31 C 0.13333 km/h
2411 26-03-2014 04:00:00 -0.24167 C 4.48 g/m*3 -0.24 C 0.13333 km/h
2412 26-03-2014 05:00:00 -0.54167 C 4.4 g/m*3 -0.54 C 0.13333 km/h
2413 26-03-2014 06:00:00 -0.76667 C 4.36 g/m*3 -0.77 C 0 km/h
2414 26-03-2014 07:00:00 -0.725 C 4.38 g/m*3 -0.73 C 0.26667 km/h
2415 26-03-2014 08:00:00 -0.01667 C 4.64 g/m*3 -0.02 C 0 km/h
2416 26-03-2014 09:00:00 1.76667 C 5.24 g/m*3 1.77 C 0 km/h
2417 26-03-2014 10:00:00 4.50833 C 5.74 g/m*3 4.51 C 0.93333 km/h
2418 26-03-2014 11:00:00 7.60833 C 5.86 g/m*3 7.61 C 4.675 km/h
2419 26-03-2014 12:00:00 10.36667 C 5.83 g/m*3 9.01 C 10.35 km/h
2420 26-03-2014 13:00:00 10.375 C 5.22 g/m*3 9.18 C 9.425 km/h
2421 26-03-2014 14:00:00 11.20833 C 4.91 g/m*3 11.21 C 9.54167 km/h
2422 26-03-2014 15:00:00 11.55833 C 4.81 g/m*3 11.56 C 6.025 km/h
2423 26-03-2014 16:00:00 10.24167 C 5.16 g/m*3 10.24 C 4.66667 km/h
2424 26-03-2014 17:00:00 10.80833 C 4.99 g/m*3 10.81 C 4.675 km/h
2425 26-03-2014 18:00:00 8.30833 C 5.24 g/m*3 8.31 C 3.74167 km/h
Sensor: Nr:Datum:Temp:Abs-Feuchte:Windchill:Wind:
Aussen-T/F 2426 26-03-2014 19:00:00 5.85 C 5.38 g/m*3 5.85 C 4.53333 km/h
2427 26-03-2014 20:00:00 4.58333 C 5.31 g/m*3 4.58 C 2.8 km/h
2428 26-03-2014 21:00:00 4.36667 C 5.41 g/m*3 4.37 C 1.2 km/h
2429 26-03-2014 22:00:00 4.38333 C 5.55 g/m*3 4.38 C 0.53333 km/h
2430 26-03-2014 23:00:00 4.15 C 5.87 g/m*3 4.15 C 1.73333 km/h
2431 27-03-2014 00:00:00 4.175 C 6.01 g/m*3 4.18 C 0.13333 km/h
2432 27-03-2014 01:00:00 4.14167 C 5.97 g/m*3 4.14 C 0.53333 km/h
2433 27-03-2014 02:00:00 3.79167 C 5.83 g/m*3 3.79 C 0.4 km/h
2434 27-03-2014 03:00:00 3.375 C 5.61 g/m*3 3.38 C 1.46667 km/h
2435 27-03-2014 04:00:00 2.5 C 5.3 g/m*3 2.5 C 2 km/h
2436 27-03-2014 05:00:00 1.89167 C 5.14 g/m*3 1.89 C 0.4 km/h
2437 27-03-2014 06:00:00 1.46667 C 5.04 g/m*3 1.47 C 0 km/h
2438 27-03-2014 07:00:00 2.06667 C 5.24 g/m*3 2.07 C 1.6 km/h
2439 27-03-2014 08:00:00 3.1 C 5.52 g/m*3 3.1 C 2.4 km/h
2440 27-03-2014 09:00:00 5.325 C 6.05 g/m*3 3.72 C 7.24167 km/h
2441 27-03-2014 10:00:00 8.2 C 6.24 g/m*3 7.29 C 6.4 km/h
2442 27-03-2014 11:00:00 10.825 C 6.15 g/m*3 9.42 C 11.3 km/h
2443 27-03-2014 12:00:00 13.6 C 6.38 g/m*3 13.6 C 13.03333 km/h
2444 27-03-2014 13:00:00 14.70833 C 6.29 g/m*3 14.71 C 11.96667 km/h
2445 27-03-2014 14:00:00 15.35 C 5.91 g/m*3 15.35 C 11.425 km/h
2446 27-03-2014 15:00:00 15.80833 C 5.8 g/m*3 15.81 C 10.89167 km/h
2447 27-03-2014 16:00:00 15.71667 C 5.79 g/m*3 15.72 C 9.81667 km/h
2448 27-03-2014 17:00:00 15.73333 C 5.7 g/m*3 15.73 C 5.63333 km/h
2449 27-03-2014 18:00:00 12 C 6.05 g/m*3 12 C 5.35 km/h
2450 27-03-2014 19:00:00 9.51667 C 6.07 g/m*3 8.64 C 7.10833 km/h
Sensor: Nr:Datum:Temp:Abs-Feuchte:Windchill:Wind:
Aussen-T/F 2451 27-03-2014 20:00:00 8.625 C 6.3 g/m*3 7.85 C 6.13333 km/h
2452 27-03-2014 21:00:00 8.01667 C 6.35 g/m*3 7.35 C 5.46667 km/h
2453 27-03-2014 22:00:00 7.625 C 6.39 g/m*3 7.04 C 5.06667 km/h
2454 27-03-2014 23:00:00 7.99167 C 6.37 g/m*3 7.99 C 4.53333 km/h
2455 28-03-2014 00:00:00 7.24167 C 6.22 g/m*3 7.24 C 4.66667 km/h
2456 28-03-2014 01:00:00 6.525 C 6.07 g/m*3 6.53 C 4.53333 km/h
2457 28-03-2014 02:00:00 5.825 C 5.98 g/m*3 4.9 C 5.33333 km/h
2458 28-03-2014 03:00:00 5.40833 C 5.93 g/m*3 5.41 C 4.53333 km/h
2459 28-03-2014 04:00:00 4.83333 C 5.85 g/m*3 4.83 C 3.46667 km/h
2460 28-03-2014 05:00:00 4.1 C 5.66 g/m*3 4.1 C 1.06667 km/h
2461 28-03-2014 06:00:00 3.5 C 5.51 g/m*3 3.5 C 0.13333 km/h
2462 28-03-2014 07:00:00 3.66667 C 5.71 g/m*3 3.67 C 0.26667 km/h
2463 28-03-2014 08:00:00 5.26667 C 6.16 g/m*3 5.27 C 3.73333 km/h
2464 28-03-2014 09:00:00 8.20833 C 6.61 g/m*3 8.21 C 3.2 km/h
2465 28-03-2014 10:00:00 11.275 C 6.73 g/m*3 11.28 C 6.16667 km/h
2466 28-03-2014 11:00:00 13.61667 C 6.84 g/m*3 13.62 C 6.03333 km/h
2467 28-03-2014 12:00:00 15.75 C 6.92 g/m*3 15.75 C 6.70833 km/h
2468 28-03-2014 13:00:00 17.85 C 6.63 g/m*3 17.85 C 10.75 km/h
2469 28-03-2014 14:00:00 18.21667 C 6.09 g/m*3 18.22 C 11.025 km/h
2470 28-03-2014 15:00:00 18.79167 C 5.9 g/m*3 18.79 C 9.825 km/h
2471 28-03-2014 16:00:00 19.175 C 5.79 g/m*3 19.18 C 12.76667 km/h
2472 28-03-2014 17:00:00 16.79167 C 6.13 g/m*3 16.79 C 5.35833 km/h
2473 28-03-2014 18:00:00 13.78333 C 6.62 g/m*3 13.78 C 4.93333 km/h
2474 28-03-2014 19:00:00 13.15 C 6.31 g/m*3 13.15 C 4.81667 km/h
2475 28-03-2014 20:00:00 12.1 C 6.04 g/m*3 12.1 C 8.85833 km/h
Sensor: Nr:Datum:Temp:Abs-Feuchte:Windchill:Wind:
Aussen-T/F 2476 28-03-2014 21:00:00 10.96667 C 6.05 g/m*3 9.91 C 9.26667 km/h
2477 28-03-2014 22:00:00 10.1 C 6.26 g/m*3 8.81 C 9.675 km/h
2478 28-03-2014 23:00:00 8.49167 C 6.29 g/m*3 8.49 C 3.73333 km/h
2479 29-03-2014 00:00:00 6.69167 C 6.18 g/m*3 6.69 C 3.6 km/h
2480 29-03-2014 01:00:00 5.93333 C 6.14 g/m*3 5.93 C 4.13333 km/h
2481 29-03-2014 02:00:00 5.5 C 6.12 g/m*3 5.5 C 3.46667 km/h
2482 29-03-2014 03:00:00 5.025 C 6.03 g/m*3 5.03 C 3.6 km/h
2483 29-03-2014 04:00:00 4.33333 C 5.89 g/m*3 4.33 C 0.93333 km/h
2484 29-03-2014 05:00:00 3.7 C 5.72 g/m*3 3.7 C 0 km/h
2485 29-03-2014 06:00:00 3.15 C 5.6 g/m*3 3.15 C 0 km/h
2486 29-03-2014 07:00:00 3.18333 C 5.66 g/m*3 3.18 C 0 km/h
2487 29-03-2014 08:00:00 4.1 C 6.06 g/m*3 4.1 C 0 km/h
2488 29-03-2014 09:00:00 6.75 C 6.94 g/m*3 6.75 C 2.8 km/h
2489 29-03-2014 10:00:00 10.55833 C 7.46 g/m*3 9.97 C 6.56667 km/h
2490 29-03-2014 11:00:00 14.25833 C 7.57 g/m*3 14.26 C 8.49167 km/h
2491 29-03-2014 12:00:00 17.34167 C 7.75 g/m*3 17.34 C 10.63333 km/h
2492 29-03-2014 13:00:00 18.58333 C 7.58 g/m*3 18.58 C 10.35833 km/h
2493 29-03-2014 14:00:00 19.66667 C 6.86 g/m*3 19.67 C 8.2 km/h
2494 29-03-2014 15:00:00 20.26667 C 6.01 g/m*3 20.27 C 10.75833 km/h
2495 29-03-2014 16:00:00 20.79167 C 5.66 g/m*3 20.79 C 8.46667 km/h
2496 29-03-2014 17:00:00 20.8 C 5.46 g/m*3 20.8 C 7.14286 km/h
2497 29-03-2014 18:00:00 14.1 C 6.55 g/m*3 14.1 C 8.1 km/h
2498 29-03-2014 19:00:00 12.84167 C 6.2 g/m*3 12.84 C 5.875 km/h
2499 29-03-2014 20:00:00 11.575 C 6.54 g/m*3 11.58 C 3.33333 km/h
2500 29-03-2014 21:00:00 10.375 C 6.63 g/m*3 10.38 C 0.4 km/h
Sensor: Nr:Datum:Temp:Abs-Feuchte:Windchill:Wind:
Aussen-T/F 2501 29-03-2014 22:00:00 8.99167 C 6.37 g/m*3 8.99 C 0 km/h
2502 29-03-2014 23:00:00 7.66667 C 6.17 g/m*3 7.67 C 0.26667 km/h
2503 30-03-2014 00:00:00 6.86667 C 6.11 g/m*3 6.87 C 0.8 km/h
2504 30-03-2014 01:00:00 6.1 C 5.98 g/m*3 6.1 C 0.26667 km/h
2505 30-03-2014 02:00:00 5.00833 C 5.84 g/m*3 5.01 C 0.13333 km/h
2506 30-03-2014 04:00:00 4.35833 C 5.72 g/m*3 4.36 C 0 km/h
2507 30-03-2014 05:00:00 3.75833 C 5.61 g/m*3 3.76 C 0.13333 km/h
2508 30-03-2014 06:00:00 3.28333 C 5.53 g/m*3 3.28 C 0 km/h
2509 30-03-2014 07:00:00 2.91667 C 5.48 g/m*3 2.92 C 0.13333 km/h
2510 30-03-2014 08:00:00 3.375 C 5.66 g/m*3 3.38 C 0.4 km/h
2511 30-03-2014 09:00:00 4.04286 C 5.93 g/m*3 4.04 C 0.22857 km/h
2512 30-03-2014 10:00:00 7.47 C 6.75 g/m*3 7.47 C 0.48 km/h
2513 30-03-2014 11:00:00 10.175 C 7.24 g/m*3 10.18 C 0.66667 km/h
2514 30-03-2014 12:00:00 13.90833 C 7.96 g/m*3 13.91 C 2.4 km/h
2515 30-03-2014 13:00:00 18.48333 C 8.67 g/m*3 18.48 C 3.86667 km/h
2516 30-03-2014 14:00:00 20.73333 C 7.34 g/m*3 20.73 C 7.23333 km/h
2517 30-03-2014 15:00:00 20.74 C 6.86 g/m*3 20.74 C 3.52 km/h
2518 30-03-2014 20:00:00 13.97 C 7.45 g/m*3 13.97 C 3.04 km/h
2519 30-03-2014 21:00:00 12.46 C 7.48 g/m*3 12.46 C 0.48 km/h
2520 30-03-2014 22:00:00 11.59167 C 7.23 g/m*3 11.59 C 0.13333 km/h
2521 30-03-2014 23:00:00 10.425 C 7.17 g/m*3 10.43 C 0 km/h
2522 31-03-2014 00:00:00 9.775 C 7.07 g/m*3 9.78 C 0.4 km/h
2523 31-03-2014 01:00:00 8.83333 C 7 g/m*3 8.83 C 0.53333 km/h
2524 31-03-2014 02:00:00 8.325 C 6.96 g/m*3 8.32 C 0.4 km/h
2525 31-03-2014 03:00:00 8.06667 C 6.95 g/m*3 8.07 C 0.26667 km/h
Sensor: Nr:Datum:Temp:Abs-Feuchte:Windchill:Wind:
Aussen-T/F 2526 31-03-2014 04:00:00 7.525 C 6.87 g/m*3 7.53 C 0 km/h
2527 31-03-2014 05:00:00 7.09167 C 6.84 g/m*3 7.09 C 0.13333 km/h
2528 31-03-2014 06:00:00 6.71667 C 6.71 g/m*3 6.72 C 0 km/h
2529 31-03-2014 07:00:00 6.225 C 6.62 g/m*3 6.23 C 0 km/h
2530 31-03-2014 08:00:00 6.6 C 6.85 g/m*3 6.6 C 0 km/h
2531 31-03-2014 09:00:00 7.74167 C 7.15 g/m*3 7.74 C 0.66667 km/h
2532 31-03-2014 10:00:00 9.29167 C 7.45 g/m*3 9.29 C 0.26667 km/h
2533 31-03-2014 11:00:00 11.4 C 7.89 g/m*3 11.4 C 1.6 km/h
2534 31-03-2014 12:00:00 14.65 C 8.39 g/m*3 14.65 C 3.86667 km/h
2535 31-03-2014 13:00:00 17.93333 C 8.49 g/m*3 17.93 C 3.2 km/h
2536 31-03-2014 14:00:00 20.25833 C 7.22 g/m*3 20.26 C 4.53333 km/h
2537 31-03-2014 15:00:00 22.14167 C 4.83 g/m*3 22.14 C 6.83333 km/h
2538 31-03-2014 16:00:00 22.95 C 5.79 g/m*3 22.95 C 9.68333 km/h
2539 31-03-2014 17:00:00 22.94167 C 5.8 g/m*3 22.94 C 8.475 km/h
2540 31-03-2014 18:00:00 21.44167 C 6.14 g/m*3 21.44 C 3.2 km/h
2541 31-03-2014 19:00:00 17.40833 C 6.49 g/m*3 17.41 C 5.2 km/h
2542 31-03-2014 20:00:00 15.14167 C 6.14 g/m*3 15.14 C 5.6 km/h
2543 31-03-2014 21:00:00 14.075 C 7.35 g/m*3 14.08 C 3.73333 km/h
2544 31-03-2014 22:00:00 12.625 C 7.7 g/m*3 12.63 C 0.26667 km/h
2545 31-03-2014 23:00:00 12.01667 C 7.45 g/m*3 12.02 C 0.53333 km/h
2546 01-04-2014 00:00:00 10.94167 C 7.4 g/m*3 10.94 C 0.8 km/h
2547 01-04-2014 01:00:00 10.78333 C 7.49 g/m*3 10.78 C 0.8 km/h
2548 01-04-2014 02:00:00 10.525 C 7.55 g/m*3 10.53 C 0.26667 km/h
2549 01-04-2014 03:00:00 9.56667 C 7.34 g/m*3 9.57 C 0.26667 km/h
2550 01-04-2014 04:00:00 9.04167 C 7.22 g/m*3 9.04 C 0.13333 km/h
Sensor: Nr:Datum:Temp:Abs-Feuchte:Windchill:Wind:
Aussen-T/F 2551 01-04-2014 05:00:00 8.53333 C 7.14 g/m*3 8.53 C 0 km/h
2552 01-04-2014 06:00:00 8.00833 C 7 g/m*3 8.01 C 0.13333 km/h
2553 01-04-2014 07:00:00 7.65833 C 6.99 g/m*3 7.66 C 0.26667 km/h
2554 01-04-2014 08:00:00 8.38333 C 7.37 g/m*3 8.38 C 0.13333 km/h
2555 01-04-2014 09:00:00 9.8 C 7.69 g/m*3 9.8 C 0.13333 km/h
2556 01-04-2014 10:00:00 11.6 C 8.03 g/m*3 11.6 C 0 km/h
2557 01-04-2014 11:00:00 14.09167 C 8.27 g/m*3 14.09 C 0.26667 km/h
2558 01-04-2014 12:00:00 17.36667 C 8.31 g/m*3 17.37 C 0.93333 km/h
2559 01-04-2014 13:00:00 21.06667 C 8.6 g/m*3 21.07 C 3.2 km/h
2560 01-04-2014 14:00:00 22.1 C 7.78 g/m*3 22.1 C 5.06667 km/h
2561 01-04-2014 15:00:00 21.95833 C 7.44 g/m*3 21.96 C 4.425 km/h
2562 01-04-2014 16:00:00 23.06667 C 7.24 g/m*3 23.07 C 5.35833 km/h
2563 01-04-2014 17:00:00 22.76 C 6.89 g/m*3 22.76 C 7.76 km/h
2564 01-04-2014 19:00:00 17.84286 C 8.65 g/m*3 17.84 C 5.25714 km/h
2565 01-04-2014 20:00:00 17 C 8.69 g/m*3 17 C 4.13333 km/h
2566 01-04-2014 21:00:00 15.3 C 9.15 g/m*3 15.3 C 3.68 km/h
2567 01-04-2014 22:00:00 13.91667 C 8.02 g/m*3 13.92 C 2.4 km/h
2568 01-04-2014 23:00:00 12.70833 C 7.86 g/m*3 12.71 C 1.33333 km/h
2569 02-04-2014 00:00:00 11.51667 C 7.59 g/m*3 11.52 C 0 km/h
2570 02-04-2014 01:00:00 10.63333 C 7.48 g/m*3 10.63 C 1.06667 km/h
2571 02-04-2014 02:00:00 9.41667 C 7.3 g/m*3 9.42 C 0.13333 km/h
2572 02-04-2014 03:00:00 8.75833 C 7.16 g/m*3 8.76 C 0.26667 km/h
2573 02-04-2014 04:00:00 7.96667 C 7.05 g/m*3 7.97 C 0.26667 km/h
2574 02-04-2014 05:00:00 7.28333 C 6.89 g/m*3 7.28 C 0.26667 km/h
2575 02-04-2014 06:00:00 6.60833 C 6.78 g/m*3 6.61 C 0.26667 km/h
Sensor: Nr:Datum:Temp:Abs-Feuchte:Windchill:Wind:
Aussen-T/F 2576 02-04-2014 07:00:00 6.78333 C 6.88 g/m*3 6.78 C 0.13333 km/h
2577 02-04-2014 08:00:00 7.00833 C 7 g/m*3 7.01 C 1.06667 km/h
2578 02-04-2014 09:00:00 8.04167 C 7.36 g/m*3 8.04 C 0.13333 km/h
2579 02-04-2014 10:00:00 10.375 C 7.99 g/m*3 10.38 C 0.26667 km/h
2580 02-04-2014 11:00:00 13.45833 C 8.76 g/m*3 13.46 C 0.93333 km/h
2581 02-04-2014 12:00:00 17.03636 C 8.96 g/m*3 17.04 C 4.52727 km/h
2582 02-04-2014 13:00:00 20.98889 C 8.75 g/m*3 20.99 C 8.41111 km/h
2583 02-04-2014 14:00:00 22.40833 C 7.93 g/m*3 22.41 C 12.49167 km/h
2584 02-04-2014 15:00:00 22.66667 C 7.86 g/m*3 22.67 C 12.1 km/h
2585 02-04-2014 16:00:00 23.2 C 7.78 g/m*3 23.2 C 9.525 km/h
2586 02-04-2014 17:00:00 23.36667 C 7.63 g/m*3 23.37 C 8.86667 km/h
2587 02-04-2014 18:00:00 22.54167 C 8.08 g/m*3 22.54 C 6.96667 km/h
2588 02-04-2014 19:00:00 18.53333 C 9.1 g/m*3 18.53 C 2.8 km/h
2589 02-04-2014 20:00:00 15.90833 C 8.9 g/m*3 15.91 C 3.86667 km/h
2590 02-04-2014 21:00:00 14.90833 C 8.88 g/m*3 14.91 C 2.8 km/h
2591 02-04-2014 22:00:00 13.64167 C 8.79 g/m*3 13.64 C 0.8 km/h
2592 02-04-2014 23:00:00 12.69167 C 8.54 g/m*3 12.69 C 0.4 km/h
2593 03-04-2014 00:00:00 11.5 C 8.33 g/m*3 11.5 C 0 km/h
2594 03-04-2014 01:00:00 11.39167 C 8.38 g/m*3 11.39 C 1.33333 km/h
2595 03-04-2014 02:00:00 10.91667 C 8.28 g/m*3 10.92 C 0.4 km/h
2596 03-04-2014 03:00:00 10.46667 C 8.23 g/m*3 10.47 C 0 km/h
2597 03-04-2014 04:00:00 9.51667 C 7.87 g/m*3 9.52 C 0 km/h
2598 03-04-2014 05:00:00 8.575 C 7.66 g/m*3 8.57 C 0.26667 km/h
2599 03-04-2014 06:00:00 8.21667 C 7.59 g/m*3 8.22 C 0.4 km/h
2600 03-04-2014 07:00:00 8.09167 C 7.63 g/m*3 8.09 C 0.26667 km/h
Sensor: Nr:Datum:Temp:Abs-Feuchte:Windchill:Wind:
Aussen-T/F 2601 03-04-2014 08:00:00 9.03333 C 8.03 g/m*3 9.03 C 0.26667 km/h
2602 03-04-2014 09:00:00 10.18333 C 8.29 g/m*3 10.18 C 0.13333 km/h
2603 03-04-2014 10:00:00 11.55833 C 8.63 g/m*3 11.56 C 1.33333 km/h
2604 03-04-2014 11:00:00 13.675 C 9.07 g/m*3 13.68 C 1.46667 km/h
2605 03-04-2014 12:00:00 17.08333 C 9.89 g/m*3 17.08 C 3.73333 km/h
2606 03-04-2014 13:00:00 20.50833 C 8.44 g/m*3 20.51 C 8.74167 km/h
2607 03-04-2014 14:00:00 21.35 C 8.26 g/m*3 21.35 C 7.5 km/h
2608 03-04-2014 18:00:00 20.4 C 9.02 g/m*3 20.4 C 1.6 km/h
2609 03-04-2014 19:00:00 19.575 C 9.14 g/m*3 19.58 C 3.6 km/h
2610 03-04-2014 20:00:00 16.14286 C 9.25 g/m*3 16.14 C 5.04286 km/h
2611 03-04-2014 21:00:00 15.4 C 8.58 g/m*3 15.4 C 2.66667 km/h
2612 03-04-2014 22:00:00 14.44167 C 8.66 g/m*3 14.44 C 0.93333 km/h
2613 03-04-2014 23:00:00 13.175 C 8.54 g/m*3 13.18 C 0 km/h
2614 04-04-2014 00:00:00 12.34167 C 8.45 g/m*3 12.34 C 0.13333 km/h
2615 04-04-2014 01:00:00 12.79167 C 8.67 g/m*3 12.79 C 1.6 km/h
2616 04-04-2014 02:00:00 12.76667 C 8.73 g/m*3 12.77 C 0.13333 km/h
2617 04-04-2014 03:00:00 12.31667 C 8.79 g/m*3 12.32 C 0.13333 km/h
2618 04-04-2014 04:00:00 12.1 C 8.83 g/m*3 12.1 C 0.26667 km/h
2619 04-04-2014 05:00:00 11.525 C 8.7 g/m*3 11.53 C 0.66667 km/h
2620 04-04-2014 06:00:00 11.3 C 8.72 g/m*3 11.3 C 0.4 km/h
2621 04-04-2014 07:00:00 11.225 C 8.72 g/m*3 11.23 C 0.66667 km/h
2622 04-04-2014 08:00:00 11.05 C 8.79 g/m*3 11.05 C 0 km/h
2623 04-04-2014 09:00:00 11.88333 C 9.07 g/m*3 11.88 C 0.26667 km/h
2624 04-04-2014 10:00:00 13.21667 C 9.37 g/m*3 13.22 C 0.66667 km/h
2625 04-04-2014 11:00:00 14.99167 C 9.87 g/m*3 14.99 C 2.4 km/h
Sensor: Nr:Datum:Temp:Abs-Feuchte:Windchill:Wind:
Aussen-T/F 2626 04-04-2014 12:00:00 16.99167 C 10.15 g/m*3 16.99 C 2.26667 km/h
2627 04-04-2014 13:00:00 18.975 C 10.29 g/m*3 18.98 C 3.20833 km/h
2628 04-04-2014 14:00:00 20.21667 C 9.9 g/m*3 20.22 C 6.425 km/h
2629 04-04-2014 15:00:00 20.58333 C 10.03 g/m*3 20.58 C 8.86667 km/h
2630 04-04-2014 16:00:00 20.39167 C 10.17 g/m*3 20.39 C 8.59167 km/h
2631 04-04-2014 17:00:00 20.22857 C 10.53 g/m*3 20.23 C 7.84286 km/h
2632 04-04-2014 18:00:00 19.27143 C 11.92 g/m*3 19.27 C 7.6 km/h
2633 04-04-2014 19:00:00 17.96667 C 9.66 g/m*3 17.97 C 10.08333 km/h
2634 04-04-2014 20:00:00 16.70833 C 9.83 g/m*3 16.71 C 6.7 km/h
2635 04-04-2014 21:00:00 15.28333 C 10.03 g/m*3 15.28 C 5.475 km/h
2636 04-04-2014 22:00:00 14.9 C 10.09 g/m*3 14.9 C 3.475 km/h
2637 04-04-2014 23:00:00 14 C 10.02 g/m*3 14 C 2 km/h
2638 05-04-2014 00:00:00 13.95833 C 10.22 g/m*3 13.96 C 8.58333 km/h
2639 05-04-2014 01:00:00 13.43333 C 10.13 g/m*3 13.43 C 7.09167 km/h
2640 05-04-2014 02:00:00 13.2 C 9.99 g/m*3 13.2 C 6.44167 km/h
2641 05-04-2014 03:00:00 12.91667 C 9.88 g/m*3 12.92 C 5.34167 km/h
2642 05-04-2014 04:00:00 12.74167 C 9.71 g/m*3 12.74 C 8.05 km/h
2643 05-04-2014 05:00:00 12.53333 C 9.65 g/m*3 12.53 C 8.325 km/h
2644 05-04-2014 06:00:00 12.125 C 9.68 g/m*3 12.13 C 3.86667 km/h
2645 05-04-2014 07:00:00 12.00833 C 9.6 g/m*3 12.01 C 4.95833 km/h
2646 05-04-2014 08:00:00 12.04167 C 9.62 g/m*3 12.04 C 5.35 km/h
2647 05-04-2014 09:00:00 12.2 C 9.66 g/m*3 12.2 C 6.16667 km/h
2648 05-04-2014 10:00:00 12.13333 C 9.62 g/m*3 12.13 C 8.74167 km/h
2649 05-04-2014 11:00:00 12.36667 C 9.6 g/m*3 12.37 C 5.75833 km/h
2650 05-04-2014 12:00:00 13.075 C 9.89 g/m*3 13.08 C 5.36667 km/h
Sensor: Nr:Datum:Temp:Abs-Feuchte:Windchill:Wind:
Aussen-T/F 2651 05-04-2014 13:00:00 13.9 C 10.43 g/m*3 13.9 C 5.86667 km/h
2652 05-04-2014 15:00:00 15.43333 C 10.09 g/m*3 15.43 C 5.86667 km/h
2653 05-04-2014 16:00:00 15.125 C 9.85 g/m*3 15.13 C 7.25 km/h
2654 05-04-2014 17:00:00 14.88889 C 10.06 g/m*3 14.89 C 6.42222 km/h
2655 05-04-2014 18:00:00 14.7 C 9.82 g/m*3 14.7 C 6.4 km/h
2656 05-04-2014 19:00:00 14.29167 C 10.09 g/m*3 14.29 C 0.93333 km/h
2657 05-04-2014 20:00:00 13.38333 C 9.75 g/m*3 13.38 C 3.06667 km/h
2658 05-04-2014 21:00:00 13.06667 C 9.74 g/m*3 13.07 C 2.26667 km/h
2659 05-04-2014 22:00:00 12.70833 C 9.66 g/m*3 12.71 C 0.8 km/h
2660 05-04-2014 23:00:00 11.26667 C 8.99 g/m*3 11.27 C 2.93333 km/h
2661 06-04-2014 00:00:00 10.08333 C 8.63 g/m*3 10.08 C 0.93333 km/h
2662 06-04-2014 01:00:00 9.2 C 8.3 g/m*3 9.2 C 0.13333 km/h
2663 06-04-2014 02:00:00 8.45 C 8.04 g/m*3 8.45 C 0.13333 km/h
2664 06-04-2014 03:00:00 7.9 C 7.8 g/m*3 7.9 C 0.26667 km/h
2665 06-04-2014 04:00:00 7.19167 C 7.49 g/m*3 7.19 C 0 km/h
2666 06-04-2014 05:00:00 7.00833 C 7.46 g/m*3 7.01 C 0 km/h
2667 06-04-2014 06:00:00 7.2 C 7.59 g/m*3 7.2 C 1.2 km/h
2668 06-04-2014 07:00:00 7.21667 C 7.62 g/m*3 7.22 C 0.66667 km/h
2669 06-04-2014 08:00:00 7.71667 C 7.87 g/m*3 7.72 C 0 km/h
2670 06-04-2014 09:00:00 8.19167 C 8.12 g/m*3 8.19 C 0.66667 km/h
2671 06-04-2014 10:00:00 10.23333 C 8.96 g/m*3 10.23 C 2.93333 km/h
2672 06-04-2014 11:00:00 13.87778 C 9.11 g/m*3 13.88 C 9.85556 km/h
2673 06-04-2014 12:00:00 16.50833 C 8.75 g/m*3 16.51 C 13.96667 km/h
2674 06-04-2014 13:00:00 18.53333 C 9.09 g/m*3 18.53 C 11.28889 km/h
2675 06-04-2014 14:00:00 19.44 C 9 g/m*3 19.44 C 13.06 km/h
Sensor: Nr:Datum:Temp:Abs-Feuchte:Windchill:Wind:
Aussen-T/F 2676 06-04-2014 15:00:00 19.08571 C 9.06 g/m*3 19.09 C 11.3 km/h
2677 06-04-2014 16:00:00 18.9 C 9.07 g/m*3 18.9 C 14.5 km/h
2678 06-04-2014 17:00:00 18.3 C 9.07 g/m*3 18.3 C 10.32 km/h
2679 06-04-2014 19:00:00 16.45 C 9.47 g/m*3 16.45 C 3.48333 km/h
2680 06-04-2014 20:00:00 14.9 C 9.28 g/m*3 14.9 C 3.46667 km/h
2681 06-04-2014 21:00:00 13.825 C 9.25 g/m*3 13.83 C 2.26667 km/h
2682 06-04-2014 22:00:00 13.9 C 9.37 g/m*3 13.9 C 2.66667 km/h
2683 06-04-2014 23:00:00 13.99167 C 9.32 g/m*3 13.99 C 2.4 km/h
2684 07-04-2014 00:00:00 13.875 C 9.32 g/m*3 13.88 C 1.86667 km/h
2685 07-04-2014 01:00:00 13.21667 C 9.37 g/m*3 13.22 C 0.26667 km/h
2686 07-04-2014 02:00:00 12.99167 C 9.44 g/m*3 12.99 C 0.53333 km/h
2687 07-04-2014 03:00:00 12.675 C 9.42 g/m*3 12.68 C 0 km/h
2688 07-04-2014 04:00:00 12.5 C 9.43 g/m*3 12.5 C 0.13333 km/h
2689 07-04-2014 05:00:00 12.4 C 9.44 g/m*3 12.4 C 0.8 km/h
2690 07-04-2014 06:00:00 12.38333 C 9.56 g/m*3 12.38 C 0.13333 km/h
2691 07-04-2014 07:00:00 12.26667 C 9.59 g/m*3 12.27 C 0.53333 km/h
2692 07-04-2014 08:00:00 12.95 C 9.85 g/m*3 12.95 C 1.6 km/h
2693 07-04-2014 09:00:00 14.15833 C 10.32 g/m*3 14.16 C 3.35 km/h
2694 07-04-2014 10:00:00 16.19167 C 10.98 g/m*3 16.19 C 9.40833 km/h
2695 07-04-2014 11:00:00 17.8 C 11.41 g/m*3 17.8 C 9.15 km/h
2696 07-04-2014 12:00:00 19.51667 C 11.45 g/m*3 19.52 C 8.875 km/h
2697 07-04-2014 13:00:00 20.51667 C 11.12 g/m*3 20.52 C 7.125 km/h
2698 07-04-2014 14:00:00 21.20833 C 11.29 g/m*3 21.21 C 7.925 km/h
2699 07-04-2014 15:00:00 21.54167 C 10.71 g/m*3 21.54 C 7.525 km/h
2700 07-04-2014 16:00:00 22.16667 C 9.93 g/m*3 22.17 C 8.06667 km/h
Sensor: Nr:Datum:Temp:Abs-Feuchte:Windchill:Wind:
Aussen-T/F 2701 07-04-2014 18:00:00 23.36667 C 17.35 g/m*3 23.37 C 6.71667 km/h
2702 07-04-2014 19:00:00 17.9 C 10.04 g/m*3 17.9 C 4.4 km/h
2703 07-04-2014 20:00:00 16.87 C 9.36 g/m*3 16.87 C 4.48 km/h
2704 07-04-2014 21:00:00 16.20909 C 9.62 g/m*3 16.21 C 4.07273 km/h
2705 07-04-2014 22:00:00 16.03333 C 9.12 g/m*3 16.03 C 3.2 km/h
2706 07-04-2014 23:00:00 16.125 C 9.24 g/m*3 16.13 C 3.475 km/h
2707 08-04-2014 00:00:00 15.48333 C 9.38 g/m*3 15.48 C 3.73333 km/h
2708 08-04-2014 01:00:00 15.59167 C 9.87 g/m*3 15.59 C 1.86667 km/h
2709 08-04-2014 02:00:00 16.025 C 9.85 g/m*3 16.02 C 4.69167 km/h
2710 08-04-2014 03:00:00 15.20833 C 9.75 g/m*3 15.21 C 3.075 km/h
2711 08-04-2014 04:00:00 14.66667 C 9.66 g/m*3 14.67 C 4.69167 km/h
2712 08-04-2014 05:00:00 15.5 C 9.25 g/m*3 15.5 C 10.06667 km/h
2713 08-04-2014 06:00:00 13.175 C 9.53 g/m*3 13.18 C 9.80833 km/h
2714 08-04-2014 07:00:00 11.525 C 7.72 g/m*3 11.53 C 19.16667 km/h
2715 08-04-2014 08:00:00 10.99167 C 6.79 g/m*3 9 C 16.23333 km/h
2716 08-04-2014 09:00:00 11.075 C 6.48 g/m*3 11.08 C 16.23333 km/h
2717 08-04-2014 10:00:00 11.725 C 6.55 g/m*3 11.73 C 15.83333 km/h
2718 08-04-2014 11:00:00 12.28333 C 6.59 g/m*3 12.28 C 15.3 km/h
2719 08-04-2014 12:00:00 12.64167 C 6.53 g/m*3 12.64 C 19.45 km/h
2720 08-04-2014 13:00:00 12.64167 C 6.27 g/m*3 12.64 C 17.43333 km/h
2721 08-04-2014 14:00:00 12.15833 C 6.07 g/m*3 12.16 C 20.375 km/h
2722 08-04-2014 15:00:00 12.63333 C 5.68 g/m*3 12.63 C 19.83333 km/h
2723 08-04-2014 16:00:00 12.6 C 5.43 g/m*3 12.6 C 19.84167 km/h
2724 08-04-2014 17:00:00 10.68333 C 6.09 g/m*3 8.56 C 16.76667 km/h
2725 08-04-2014 18:00:00 10.65833 C 6.2 g/m*3 9.21 C 11.3 km/h
Sensor: Nr:Datum:Temp:Abs-Feuchte:Windchill:Wind:
Aussen-T/F 2726 08-04-2014 19:00:00 10.26667 C 6.16 g/m*3 8.1 C 16.24167 km/h
2727 08-04-2014 20:00:00 9.26667 C 6.28 g/m*3 7.69 C 10.4 km/h
2728 08-04-2014 21:00:00 8.75 C 6.46 g/m*3 8.26 C 5.225 km/h
2729 08-04-2014 22:00:00 8.00833 C 6.4 g/m*3 8.01 C 3.46667 km/h
2730 08-04-2014 23:00:00 7.79091 C 6.27 g/m*3 7.12 C 5.39091 km/h
2731 09-04-2014 00:00:00 6.06667 C 6.63 g/m*3 6.07 C 2.66667 km/h
2732 09-04-2014 01:00:00 5.65833 C 6.57 g/m*3 4.75 C 5.21667 km/h
2733 09-04-2014 02:00:00 5.425 C 6.55 g/m*3 5.43 C 3.6 km/h
2734 09-04-2014 03:00:00 4.9 C 6.33 g/m*3 4.9 C 2 km/h
2735 09-04-2014 04:00:00 4.88333 C 6.32 g/m*3 4.88 C 2.93333 km/h
2736 09-04-2014 05:00:00 5.05833 C 6.29 g/m*3 5.06 C 1.73333 km/h
2737 09-04-2014 06:00:00 4.375 C 6.12 g/m*3 4.38 C 1.2 km/h
2738 09-04-2014 07:00:00 4.18 C 6.05 g/m*3 4.18 C 2.9 km/h
2739 09-04-2014 08:00:00 4.64167 C 6.3 g/m*3 4.64 C 2.13333 km/h
2740 09-04-2014 09:00:00 6.81667 C 6.87 g/m*3 5.12 C 8.61667 km/h
2741 09-04-2014 10:00:00 8.54167 C 7.23 g/m*3 7.37 C 7.65833 km/h
2742 09-04-2014 11:00:00 10.29167 C 7.34 g/m*3 8.92 C 10.35 km/h
2743 09-04-2014 12:00:00 11.375 C 7.23 g/m*3 11.38 C 9.68333 km/h
2744 09-04-2014 13:00:00 12.96667 C 6.67 g/m*3 12.97 C 8.6 km/h
2745 09-04-2014 14:00:00 13.64167 C 6.49 g/m*3 13.64 C 8.06667 km/h
2746 09-04-2014 15:00:00 14.43333 C 6.06 g/m*3 14.43 C 9.28333 km/h
2747 09-04-2014 16:00:00 14.325 C 6.08 g/m*3 14.33 C 9.95833 km/h
2748 09-04-2014 17:00:00 14.80833 C 6.44 g/m*3 14.81 C 9.01667 km/h
2749 09-04-2014 18:00:00 14.58333 C 6.46 g/m*3 14.58 C 8.46667 km/h
2750 09-04-2014 19:00:00 13.15833 C 6.8 g/m*3 13.16 C 3.2 km/h
Sensor: Nr:Datum:Temp:Abs-Feuchte:Windchill:Wind:
Aussen-T/F 2751 09-04-2014 20:00:00 10.35833 C 7.02 g/m*3 10.36 C 3.86667 km/h
2752 09-04-2014 21:00:00 9.15 C 6.95 g/m*3 9.15 C 3.06667 km/h
2753 09-04-2014 22:00:00 9 C 6.92 g/m*3 9 C 2.26667 km/h
2754 09-04-2014 23:00:00 8.56667 C 6.77 g/m*3 8.57 C 2 km/h
2755 10-04-2014 00:00:00 9.05833 C 6.74 g/m*3 8.54 C 5.48333 km/h
2756 10-04-2014 01:00:00 8.23333 C 6.68 g/m*3 8.23 C 4.55833 km/h
2757 10-04-2014 02:00:00 7.93333 C 6.75 g/m*3 7.93 C 2.94167 km/h
2758 10-04-2014 03:00:00 8.29167 C 6.87 g/m*3 8.29 C 1.2 km/h
2759 10-04-2014 04:00:00 7.925 C 6.84 g/m*3 7.93 C 0.53333 km/h
2760 10-04-2014 05:00:00 7.13333 C 6.73 g/m*3 7.13 C 1.2 km/h
2761 10-04-2014 06:00:00 6.48333 C 6.62 g/m*3 6.48 C 0.26667 km/h
2762 10-04-2014 07:00:00 6.50833 C 6.73 g/m*3 6.51 C 0.93333 km/h
2763 10-04-2014 08:00:00 7.35556 C 6.93 g/m*3 6.15 C 6.98889 km/h
2764 10-04-2014 09:00:00 8.65 C 7.67 g/m*3 7.59 C 7.25 km/h
2765 10-04-2014 10:00:00 9.85556 C 7.38 g/m*3 9.86 C 4.11111 km/h
2766 10-04-2014 13:00:00 16.3 C 8.42 g/m*3 16.3 C 6.43333 km/h
2767 10-04-2014 14:00:00 17.6 C 8.7 g/m*3 17.6 C 9.7 km/h
2768 10-04-2014 15:00:00 17.66 C 8.52 g/m*3 17.66 C 7.42 km/h
2769 10-04-2014 16:00:00 18.52 C 9.95 g/m*3 18.52 C 9.04 km/h
2770 10-04-2014 17:00:00 17.91667 C 8.48 g/m*3 17.92 C 8.08333 km/h
2771 10-04-2014 18:00:00 16.5 C 8.31 g/m*3 16.5 C 8.18333 km/h
2772 10-04-2014 19:00:00 16.2 C 8.27 g/m*3 16.2 C 4.8 km/h
2773 11-04-2014 08:00:00 6.86 C 7.29 g/m*3 6.86 C 1.28 km/h
2774 11-04-2014 09:00:00 8.29167 C 8 g/m*3 8.29 C 0.13333 km/h
2775 11-04-2014 10:00:00 11.43333 C 8.82 g/m*3 11.43 C 0 km/h
Sensor: Nr:Datum:Temp:Abs-Feuchte:Windchill:Wind:
Aussen-T/F 2776 11-04-2014 11:00:00 15.75 C 9.06 g/m*3 15.75 C 9.7 km/h
2777 11-04-2014 12:00:00 16.90833 C 9.09 g/m*3 16.91 C 4 km/h
2778 11-04-2014 13:00:00 18.85556 C 9.21 g/m*3 18.86 C 5.7 km/h
2779 11-04-2014 14:00:00 18.53333 C 9.04 g/m*3 18.53 C 7.51667 km/h
2780 11-04-2014 16:00:00 19.54286 C 9.71 g/m*3 19.54 C 7.35714 km/h
2781 11-04-2014 17:00:00 18.01667 C 9.63 g/m*3 18.02 C 9.825 km/h
2782 11-04-2014 18:00:00 16.775 C 9.14 g/m*3 16.77 C 11.7 km/h
2783 11-04-2014 19:00:00 15.29167 C 9.16 g/m*3 15.29 C 8.48333 km/h
2784 11-04-2014 20:00:00 14.31667 C 8.94 g/m*3 14.32 C 6.15833 km/h
2785 11-04-2014 21:00:00 13.6 C 9 g/m*3 13.6 C 6.43333 km/h
2786 11-04-2014 22:00:00 12.85833 C 8.81 g/m*3 12.86 C 6.575 km/h
2787 11-04-2014 23:00:00 12.325 C 8.65 g/m*3 12.33 C 4.825 km/h
2788 12-04-2014 00:00:00 11.46667 C 8.45 g/m*3 11.47 C 3.2 km/h
2789 12-04-2014 01:00:00 10.175 C 8.26 g/m*3 10.18 C 1.86667 km/h
2790 12-04-2014 02:00:00 9.86667 C 8.14 g/m*3 9.87 C 0.66667 km/h
2791 12-04-2014 03:00:00 9.825 C 7.92 g/m*3 9.82 C 1.20833 km/h
2792 12-04-2014 04:00:00 9.85 C 7.77 g/m*3 9.85 C 1.33333 km/h
2793 12-04-2014 05:00:00 9.26667 C 7.75 g/m*3 9.27 C 0.4 km/h
2794 12-04-2014 06:00:00 9.21667 C 7.72 g/m*3 9.22 C 0.13333 km/h
2795 12-04-2014 07:00:00 9.09167 C 7.71 g/m*3 9.09 C 0.66667 km/h
2796 12-04-2014 08:00:00 9.375 C 7.63 g/m*3 9.38 C 2.13333 km/h
2797 12-04-2014 09:00:00 10.05833 C 7.75 g/m*3 10.06 C 3.06667 km/h
2798 12-04-2014 10:00:00 11.45833 C 8.16 g/m*3 11.46 C 5.20833 km/h
2799 12-04-2014 11:00:00 12.66667 C 8.36 g/m*3 12.67 C 6.825 km/h
2800 12-04-2014 12:00:00 13.96667 C 8.63 g/m*3 13.97 C 5.88333 km/h
Sensor: Nr:Datum:Temp:Abs-Feuchte:Windchill:Wind:
Aussen-T/F 2801 12-04-2014 13:00:00 16.03333 C 8.67 g/m*3 16.03 C 6.98333 km/h
2802 12-04-2014 14:00:00 16.95833 C 7.93 g/m*3 16.96 C 9.26667 km/h
2803 12-04-2014 15:00:00 17.55 C 7.8 g/m*3 17.55 C 9.15 km/h
2804 12-04-2014 16:00:00 18.20833 C 6.97 g/m*3 18.21 C 8.05 km/h
2805 12-04-2014 17:00:00 17.225 C 6.95 g/m*3 17.23 C 10.09167 km/h
2806 12-04-2014 18:00:00 15.78333 C 7.02 g/m*3 15.78 C 8.06667 km/h
2807 12-04-2014 19:00:00 15.16667 C 6.91 g/m*3 15.17 C 7.88889 km/h
2808 12-04-2014 20:00:00 14.08333 C 6.75 g/m*3 14.08 C 5.35 km/h
2809 12-04-2014 21:00:00 13.28333 C 7.11 g/m*3 13.28 C 2.93333 km/h
2810 12-04-2014 22:00:00 11.95 C 7.15 g/m*3 11.95 C 0.66667 km/h
2811 12-04-2014 23:00:00 11.79167 C 7.01 g/m*3 11.79 C 1.33333 km/h
2812 13-04-2014 00:00:00 11.44167 C 7.25 g/m*3 11.44 C 0.4 km/h
2813 13-04-2014 01:00:00 11.075 C 7.36 g/m*3 11.08 C 1.86667 km/h
2814 13-04-2014 02:00:00 10.81667 C 7.33 g/m*3 10.82 C 1.33333 km/h
2815 13-04-2014 03:00:00 9.96667 C 7.27 g/m*3 9.97 C 0.93333 km/h
2816 13-04-2014 04:00:00 9.69167 C 7.25 g/m*3 9.69 C 0.8 km/h
2817 13-04-2014 05:00:00 8.63333 C 7.03 g/m*3 8.63 C 0.8 km/h
2818 13-04-2014 06:00:00 7.41667 C 6.82 g/m*3 7.42 C 0.8 km/h
2819 13-04-2014 07:00:00 6.75833 C 6.71 g/m*3 6.76 C 0.53333 km/h
2820 13-04-2014 08:00:00 7.3 C 6.97 g/m*3 7.3 C 1.06667 km/h
2821 13-04-2014 09:00:00 9.475 C 7.35 g/m*3 9.48 C 2.8 km/h
2822 13-04-2014 10:00:00 11 C 7.42 g/m*3 11 C 2.93333 km/h
2823 13-04-2014 11:00:00 12.75833 C 7.5 g/m*3 12.76 C 5.76667 km/h
2824 13-04-2014 12:00:00 14.14444 C 7.57 g/m*3 14.14 C 6.43333 km/h
2825 13-04-2014 13:00:00 14.65455 C 7.81 g/m*3 14.65 C 8.2 km/h
Sensor: Nr:Datum:Temp:Abs-Feuchte:Windchill:Wind:
Aussen-T/F 2826 13-04-2014 14:00:00 14.675 C 7.98 g/m*3 14.68 C 6.16667 km/h
2827 13-04-2014 15:00:00 14.9 C 7.97 g/m*3 14.9 C 11.00833 km/h
2828 13-04-2014 16:00:00 14.93333 C 7.91 g/m*3 14.93 C 9.14167 km/h
2829 13-04-2014 17:00:00 15.01667 C 7.35 g/m*3 15.02 C 10.09167 km/h
2830 13-04-2014 18:00:00 15.1 C 7.03 g/m*3 15.1 C 9.675 km/h
2831 13-04-2014 19:00:00 13.84167 C 6.98 g/m*3 13.84 C 8.6 km/h
2832 13-04-2014 20:00:00 13 C 7.29 g/m*3 13 C 3.60833 km/h
2833 13-04-2014 21:00:00 11.98333 C 7.35 g/m*3 11.98 C 2 km/h
2834 13-04-2014 22:00:00 11.10833 C 7.2 g/m*3 11.11 C 3.6 km/h
2835 13-04-2014 23:00:00 9.75833 C 7.02 g/m*3 9.76 C 3.06667 km/h
2836 14-04-2014 00:00:00 8.85833 C 6.92 g/m*3 8.86 C 3.2 km/h
2837 14-04-2014 01:00:00 9.30833 C 6.96 g/m*3 8.9 C 5.21667 km/h
2838 14-04-2014 02:00:00 8.825 C 6.92 g/m*3 8.82 C 2.66667 km/h
2839 14-04-2014 03:00:00 7.375 C 6.72 g/m*3 7.38 C 4.7 km/h
2840 14-04-2014 04:00:00 7.575 C 6.74 g/m*3 5.82 C 9.55 km/h
2841 14-04-2014 05:00:00 7.875 C 6.79 g/m*3 6.2 C 9.43333 km/h
2842 14-04-2014 06:00:00 8.43333 C 6.89 g/m*3 7.12 C 8.19167 km/h
2843 14-04-2014 07:00:00 8.60833 C 6.97 g/m*3 7.75 C 6.45 km/h
2844 14-04-2014 08:00:00 8.85 C 7.11 g/m*3 7.47 C 8.88333 km/h
2845 14-04-2014 09:00:00 9.825 C 7.05 g/m*3 8.68 C 8.6 km/h
2846 14-04-2014 10:00:00 10.49167 C 6.66 g/m*3 8.33 C 16.64167 km/h
2847 14-04-2014 11:00:00 9.94167 C 6.9 g/m*3 8.46 C 10.60833 km/h
2848 14-04-2014 12:00:00 11.4 C 6.34 g/m*3 11.4 C 16.36667 km/h
2849 14-04-2014 13:00:00 12.83333 C 6.07 g/m*3 12.83 C 17.03333 km/h
2850 14-04-2014 14:00:00 13.39167 C 5.99 g/m*3 13.39 C 21.58333 km/h
Sensor: Nr:Datum:Temp:Abs-Feuchte:Windchill:Wind:
Aussen-T/F 2851 14-04-2014 15:00:00 13.20833 C 5.96 g/m*3 13.21 C 22.8 km/h
2852 14-04-2014 16:00:00 12.89167 C 6.4 g/m*3 12.89 C 19.05 km/h
2853 14-04-2014 17:00:00 13.31667 C 6.05 g/m*3 13.32 C 18.63333 km/h
2854 14-04-2014 18:00:00 12.76667 C 5.76 g/m*3 12.77 C 18.76667 km/h
2855 14-04-2014 19:00:00 11.6 C 5.45 g/m*3 11.6 C 19.70833 km/h
2856 14-04-2014 20:00:00 7.96667 C 6.32 g/m*3 5.95 C 11.4 km/h
2857 14-04-2014 21:00:00 6.58889 C 6.34 g/m*3 5.32 C 6.78889 km/h
2858 14-04-2014 22:00:00 5.9 C 6.07 g/m*3 4.8 C 5.88333 km/h
2859 14-04-2014 23:00:00 5.6 C 6.15 g/m*3 5.6 C 2.26667 km/h
2860 15-04-2014 00:00:00 6.11667 C 6.18 g/m*3 5 C 6.03333 km/h
2861 15-04-2014 01:00:00 5.65833 C 5.95 g/m*3 4.38 C 6.30833 km/h
2862 15-04-2014 02:00:00 5.025 C 5.75 g/m*3 5.03 C 4.95 km/h
2863 15-04-2014 03:00:00 4.64444 C 5.72 g/m*3 4.64 C 1.95556 km/h
2864 15-04-2014 04:00:00 4.04167 C 5.62 g/m*3 4.04 C 2.8 km/h
2865 15-04-2014 05:00:00 3.91667 C 5.62 g/m*3 3.92 C 4.275 km/h
2866 15-04-2014 06:00:00 4.125 C 5.69 g/m*3 4.13 C 2.54167 km/h
2867 15-04-2014 07:00:00 4.01667 C 5.66 g/m*3 4.02 C 4.95833 km/h
2868 15-04-2014 08:00:00 4.9 C 5.84 g/m*3 2.62 C 9.65 km/h
2869 15-04-2014 09:00:00 6.175 C 6.01 g/m*3 3.76 C 11.56667 km/h
2870 15-04-2014 10:00:00 7.16667 C 5.82 g/m*3 5.03 C 11.16667 km/h
2871 15-04-2014 11:00:00 7.175 C 5.59 g/m*3 5.11 C 10.76667 km/h
2872 15-04-2014 12:00:00 7.99167 C 5.41 g/m*3 6.14 C 10.48333 km/h
2873 15-04-2014 13:00:00 9.2 C 5.31 g/m*3 7.66 C 10.08333 km/h
2874 15-04-2014 14:00:00 9.4 C 5.26 g/m*3 7.72 C 11.15833 km/h
2875 15-04-2014 15:00:00 9.44167 C 5.17 g/m*3 7.75 C 11.3 km/h
Sensor: Nr:Datum:Temp:Abs-Feuchte:Windchill:Wind:
Aussen-T/F 2876 15-04-2014 16:00:00 9.55833 C 5.22 g/m*3 8.34 C 8.73333 km/h
2877 15-04-2014 17:00:00 10.09167 C 5.21 g/m*3 8.28 C 13.03333 km/h
2878 15-04-2014 18:00:00 10.56667 C 5.87 g/m*3 9 C 12.01111 km/h
2879 15-04-2014 19:00:00 9.64167 C 7.02 g/m*3 9.32 C 5.09167 km/h
2880 15-04-2014 20:00:00 9.02 C 5.42 g/m*3 9.02 C 3.86 km/h
2881 16-04-2014 11:00:00 9.8 C 5.98 g/m*3 9.13 C 6.45 km/h
2882 16-04-2014 12:00:00 11.3 C 5.57 g/m*3 11.3 C 8.86667 km/h
2883 16-04-2014 13:00:00 13.9 C 5.52 g/m*3 13.9 C 9.54167 km/h
2884 16-04-2014 14:00:00 15.10833 C 5.45 g/m*3 15.11 C 10.21667 km/h
2885 16-04-2014 15:00:00 15.9 C 5.46 g/m*3 15.9 C 9.275 km/h
2886 16-04-2014 16:00:00 16.69167 C 5.29 g/m*3 16.69 C 9.80833 km/h
2887 16-04-2014 17:00:00 16.81667 C 5.26 g/m*3 16.82 C 11.16667 km/h
2888 16-04-2014 18:00:00 16.64167 C 5.16 g/m*3 16.64 C 9.00833 km/h
2889 16-04-2014 19:00:00 15.75 C 5.21 g/m*3 15.75 C 6.70833 km/h
2890 16-04-2014 20:00:00 11.13333 C 5.67 g/m*3 11.13 C 4 km/h
2891 16-04-2014 21:00:00 8.55 C 5.44 g/m*3 8.09 C 5.06667 km/h
2892 16-04-2014 22:00:00 7.675 C 5.45 g/m*3 7.68 C 4.66667 km/h
2893 16-04-2014 23:00:00 6.725 C 5.44 g/m*3 6.73 C 2.53333 km/h
2894 17-04-2014 00:00:00 5.65 C 5.33 g/m*3 5.65 C 0 km/h
2895 17-04-2014 01:00:00 4.85833 C 5.27 g/m*3 4.86 C 0 km/h
2896 17-04-2014 02:00:00 4.08333 C 5.17 g/m*3 4.08 C 0.4 km/h
2897 17-04-2014 03:00:00 3.4 C 5.24 g/m*3 3.4 C 0.4 km/h
2898 17-04-2014 04:00:00 2.60833 C 5.06 g/m*3 2.61 C 0 km/h
2899 17-04-2014 05:00:00 1.88333 C 4.92 g/m*3 1.88 C 0.13333 km/h
2900 17-04-2014 06:00:00 1.5 C 4.89 g/m*3 1.5 C 0 km/h
Sensor: Nr:Datum:Temp:Abs-Feuchte:Windchill:Wind:
Aussen-T/F 2901 17-04-2014 07:00:00 1.39167 C 4.9 g/m*3 1.39 C 0 km/h
2902 17-04-2014 08:00:00 2.10833 C 5.14 g/m*3 2.11 C 0 km/h
2903 17-04-2014 09:00:00 4.18333 C 5.6 g/m*3 4.18 C 0.26667 km/h
2904 17-04-2014 10:00:00 7.04167 C 6.11 g/m*3 7.04 C 0.53333 km/h
2905 17-04-2014 11:00:00 10.525 C 5.93 g/m*3 10.53 C 4.84167 km/h
2906 17-04-2014 12:00:00 13.66667 C 5.5 g/m*3 13.67 C 7.91667 km/h
2907 17-04-2014 13:00:00 15.53333 C 5.23 g/m*3 15.53 C 8.61667 km/h
2908 17-04-2014 14:00:00 16.15833 C 5.26 g/m*3 16.16 C 6.425 km/h
2909 17-04-2014 15:00:00 16.98333 C 5.41 g/m*3 16.98 C 6.15833 km/h
2910 17-04-2014 16:00:00 18.75833 C 5.48 g/m*3 18.76 C 10.2 km/h
2911 17-04-2014 17:00:00 19.475 C 5.21 g/m*3 19.48 C 9.825 km/h
2912 17-04-2014 18:00:00 19.54167 C 5.41 g/m*3 19.54 C 4.95833 km/h
2913 17-04-2014 19:00:00 16.58333 C 6.37 g/m*3 16.58 C 3.46667 km/h
2914 17-04-2014 20:00:00 12.6 C 6.32 g/m*3 12.6 C 3.46667 km/h
2915 17-04-2014 21:00:00 12.46667 C 5.97 g/m*3 12.47 C 2.66667 km/h
2916 17-04-2014 22:00:00 12.91667 C 5.71 g/m*3 12.92 C 3.2 km/h
2917 17-04-2014 23:00:00 12.55833 C 6.03 g/m*3 12.56 C 2.53333 km/h
2918 18-04-2014 00:00:00 11.76667 C 6.27 g/m*3 11.77 C 3.075 km/h
2919 18-04-2014 01:00:00 11.38333 C 7.25 g/m*3 11.38 C 5.09167 km/h
2920 18-04-2014 02:00:00 10.95 C 7.37 g/m*3 10.43 C 6.56667 km/h
2921 18-04-2014 03:00:00 11.55833 C 7.46 g/m*3 11.56 C 10.75 km/h
2922 18-04-2014 04:00:00 10.13333 C 7.71 g/m*3 8.69 C 10.61667 km/h
2923 18-04-2014 05:00:00 8.80833 C 7.54 g/m*3 7.72 C 7.51667 km/h
2924 18-04-2014 06:00:00 8.4 C 7.43 g/m*3 7.15 C 7.90833 km/h
2925 18-04-2014 07:00:00 8.38333 C 7.19 g/m*3 6.95 C 8.725 km/h
Sensor: Nr:Datum:Temp:Abs-Feuchte:Windchill:Wind:
Aussen-T/F 2926 18-04-2014 08:00:00 8.54167 C 6.86 g/m*3 6.53 C 12.09167 km/h
2927 18-04-2014 09:00:00 9.05833 C 6.36 g/m*3 6.8 C 14.63333 km/h
2928 18-04-2014 10:00:00 9.225 C 6.36 g/m*3 7.08 C 14.09167 km/h
2929 18-04-2014 11:00:00 9.49167 C 6.54 g/m*3 7.67 C 12.225 km/h
2930 18-04-2014 12:00:00 10.00833 C 6.63 g/m*3 8.13 C 13.425 km/h
2931 18-04-2014 13:00:00 12.375 C 6.14 g/m*3 12.38 C 15.03333 km/h
2932 18-04-2014 14:00:00 13.325 C 5.62 g/m*3 13.33 C 14.9 km/h
2933 18-04-2014 15:00:00 13.6 C 5.09 g/m*3 13.6 C 17.7 km/h
2934 18-04-2014 16:00:00 14.55 C 4.82 g/m*3 14.55 C 17.3 km/h
2935 18-04-2014 17:00:00 14.13333 C 4.85 g/m*3 14.13 C 17.16667 km/h
2936 18-04-2014 18:00:00 13.90833 C 4.9 g/m*3 13.91 C 14.9 km/h
2937 18-04-2014 19:00:00 13.19167 C 4.8 g/m*3 13.19 C 9.54167 km/h
2938 18-04-2014 20:00:00 10.21667 C 5.22 g/m*3 10.22 C 2.275 km/h
2939 18-04-2014 21:00:00 8.725 C 5.64 g/m*3 8.73 C 1.46667 km/h
2940 18-04-2014 22:00:00 8.20833 C 5.85 g/m*3 8.21 C 1.86667 km/h
2941 18-04-2014 23:00:00 7.35 C 6.01 g/m*3 7.35 C 1.33333 km/h
2942 19-04-2014 00:00:00 7.725 C 6.19 g/m*3 7.73 C 0 km/h
2943 19-04-2014 01:00:00 6.825 C 6.07 g/m*3 6.83 C 1.06667 km/h
2944 19-04-2014 02:00:00 5.83333 C 5.95 g/m*3 5.83 C 2.13333 km/h
2945 19-04-2014 03:00:00 5.14167 C 5.86 g/m*3 5.14 C 1.46667 km/h
2946 19-04-2014 04:00:00 5.16667 C 5.93 g/m*3 5.17 C 0.4 km/h
2947 19-04-2014 05:00:00 4.15833 C 5.69 g/m*3 4.16 C 0.4 km/h
2948 19-04-2014 06:00:00 4.08333 C 5.79 g/m*3 4.08 C 0 km/h
2949 19-04-2014 07:00:00 4.35833 C 5.93 g/m*3 4.36 C 0 km/h
2950 19-04-2014 08:00:00 4.95833 C 6.1 g/m*3 4.96 C 0.53333 km/h
Sensor: Nr:Datum:Temp:Abs-Feuchte:Windchill:Wind:
Aussen-T/F 2951 19-04-2014 09:00:00 6.06667 C 6.45 g/m*3 6.07 C 0.13333 km/h
2952 19-04-2014 10:00:00 8.76667 C 6.74 g/m*3 7.7 C 7.39167 km/h
2953 19-04-2014 11:00:00 10.48333 C 6.6 g/m*3 9.02 C 11.15833 km/h
2954 19-04-2014 12:00:00 11.96667 C 6.51 g/m*3 11.97 C 13.29167 km/h
2955 19-04-2014 13:00:00 14.75 C 6.8 g/m*3 14.75 C 14.23333 km/h
2956 19-04-2014 14:00:00 16.4 C 7.06 g/m*3 16.4 C 13.16667 km/h
2957 19-04-2014 15:00:00 17.75 C 7.15 g/m*3 17.75 C 17.3 km/h
2958 19-04-2014 16:00:00 18.675 C 7.77 g/m*3 18.68 C 15.43333 km/h
2959 19-04-2014 17:00:00 18.325 C 8.01 g/m*3 18.33 C 14.63333 km/h
2960 19-04-2014 18:00:00 17.90833 C 8.26 g/m*3 17.91 C 11.01667 km/h
2961 19-04-2014 19:00:00 17.09167 C 8.38 g/m*3 17.09 C 8.86667 km/h
2962 19-04-2014 20:00:00 14.75 C 8.49 g/m*3 14.75 C 2.53333 km/h
2963 19-04-2014 21:00:00 13.825 C 8.46 g/m*3 13.83 C 5.36667 km/h
2964 19-04-2014 22:00:00 12.74167 C 8.58 g/m*3 12.74 C 3.34167 km/h
2965 19-04-2014 23:00:00 11.94167 C 8.69 g/m*3 11.94 C 2.93333 km/h
2966 20-04-2014 00:00:00 11.43333 C 8.8 g/m*3 11.43 C 2.66667 km/h
2967 20-04-2014 01:00:00 11.35 C 8.96 g/m*3 11.35 C 2.26667 km/h
2968 20-04-2014 02:00:00 11.375 C 9.03 g/m*3 11.38 C 2.8 km/h
2969 20-04-2014 03:00:00 11.19167 C 9.06 g/m*3 11.19 C 2.93333 km/h
2970 20-04-2014 04:00:00 11.23333 C 9.08 g/m*3 11.23 C 2.4 km/h
2971 20-04-2014 05:00:00 11.025 C 8.98 g/m*3 11.03 C 2.53333 km/h
2972 20-04-2014 06:00:00 10.50833 C 8.9 g/m*3 10.51 C 2 km/h
2973 20-04-2014 07:00:00 10.43333 C 8.96 g/m*3 10.43 C 0.53333 km/h
2974 20-04-2014 08:00:00 11.18889 C 9.35 g/m*3 11.19 C 1.06667 km/h
2975 20-04-2014 09:00:00 12.6 C 9.72 g/m*3 12.6 C 2.80833 km/h
Sensor: Nr:Datum:Temp:Abs-Feuchte:Windchill:Wind:
Aussen-T/F 2976 20-04-2014 10:00:00 15.28333 C 9.63 g/m*3 15.28 C 7.91667 km/h
2977 20-04-2014 11:00:00 17.14167 C 9.55 g/m*3 17.14 C 9.13333 km/h
2978 20-04-2014 12:00:00 18.75833 C 9.08 g/m*3 18.76 C 10.09167 km/h
2979 20-04-2014 13:00:00 20.65 C 8.68 g/m*3 20.65 C 12.625 km/h
2980 20-04-2014 14:00:00 20.39167 C 8.31 g/m*3 20.39 C 10.20833 km/h
2981 20-04-2014 15:00:00 20.6 C 8.2 g/m*3 20.6 C 8.325 km/h
2982 20-04-2014 16:00:00 21.6 C 7.9 g/m*3 21.6 C 8.60833 km/h
2983 20-04-2014 17:00:00 21.86667 C 7.8 g/m*3 21.87 C 8.2 km/h
2984 20-04-2014 18:00:00 19.4 C 8.19 g/m*3 19.4 C 3.08333 km/h
2985 20-04-2014 19:00:00 16.3 C 8.51 g/m*3 16.3 C 2.53333 km/h
2986 20-04-2014 20:00:00 14.39167 C 7.97 g/m*3 14.39 C 4.4 km/h
2987 20-04-2014 21:00:00 13.40833 C 7.82 g/m*3 13.41 C 3.6 km/h
2988 20-04-2014 22:00:00 12.96667 C 7.88 g/m*3 12.97 C 2.53333 km/h
2989 20-04-2014 23:00:00 12.00833 C 7.84 g/m*3 12.01 C 2.53333 km/h
2990 21-04-2014 00:00:00 10.99167 C 7.64 g/m*3 10.99 C 1.6 km/h
2991 21-04-2014 01:00:00 10.09167 C 7.55 g/m*3 10.09 C 1.2 km/h
2992 21-04-2014 02:00:00 9.73333 C 7.43 g/m*3 9.73 C 2.13333 km/h
2993 21-04-2014 03:00:00 8.88333 C 7.31 g/m*3 8.88 C 1.06667 km/h
2994 21-04-2014 04:00:00 8.46667 C 7.25 g/m*3 8.47 C 0.26667 km/h
2995 21-04-2014 05:00:00 7.54167 C 7.07 g/m*3 7.54 C 0 km/h
2996 21-04-2014 06:00:00 6.76667 C 6.96 g/m*3 6.77 C 0.26667 km/h
2997 21-04-2014 07:00:00 6.45 C 6.94 g/m*3 6.45 C 0 km/h
2998 21-04-2014 08:00:00 7.125 C 7.34 g/m*3 7.13 C 0 km/h
2999 21-04-2014 09:00:00 9.025 C 8.12 g/m*3 9.03 C 0 km/h
3000 21-04-2014 10:00:00 11.71667 C 8.83 g/m*3 11.72 C 2.66667 km/h
Sensor: Nr:Datum:Temp:Abs-Feuchte:Windchill:Wind:
Aussen-T/F 3001 21-04-2014 11:00:00 15.35 C 8.73 g/m*3 15.35 C 5.075 km/h
3002 21-04-2014 12:00:00 17.86667 C 8.46 g/m*3 17.87 C 8.45833 km/h
3003 21-04-2014 13:00:00 19.8 C 8.45 g/m*3 19.8 C 6.96667 km/h
3004 21-04-2014 14:00:00 18.94167 C 9.34 g/m*3 18.94 C 8.18333 km/h
3005 21-04-2014 15:00:00 18.15833 C 10.47 g/m*3 18.16 C 5.35 km/h
3006 21-04-2014 16:00:00 19.575 C 9.31 g/m*3 19.58 C 8.325 km/h
3007 21-04-2014 17:00:00 20.69167 C 8.7 g/m*3 20.69 C 11.29167 km/h
3008 21-04-2014 18:00:00 17.23333 C 9.18 g/m*3 17.23 C 9.66667 km/h
3009 21-04-2014 19:00:00 13.68333 C 9.67 g/m*3 13.68 C 8.30833 km/h
3010 21-04-2014 20:00:00 11.16667 C 9.42 g/m*3 11.17 C 2.4 km/h
3011 21-04-2014 21:00:00 10.91667 C 9.45 g/m*3 10.92 C 0.26667 km/h
3012 21-04-2014 22:00:00 10.14167 C 9.05 g/m*3 10.14 C 0.8 km/h
3013 21-04-2014 23:00:00 9.55833 C 8.77 g/m*3 9.56 C 0.13333 km/h
3014 22-04-2014 00:00:00 8.925 C 8.43 g/m*3 8.93 C 0.13333 km/h
3015 22-04-2014 01:00:00 8.79167 C 8.42 g/m*3 8.79 C 0.66667 km/h
3016 22-04-2014 02:00:00 8.81667 C 8.45 g/m*3 8.82 C 0.4 km/h
3017 22-04-2014 03:00:00 8.575 C 8.32 g/m*3 8.57 C 0 km/h
3018 22-04-2014 04:00:00 8.30833 C 8.18 g/m*3 8.31 C 0.26667 km/h
3019 22-04-2014 05:00:00 8.68333 C 8.42 g/m*3 8.68 C 2.14167 km/h
3020 22-04-2014 06:00:00 8.69167 C 8.38 g/m*3 8.69 C 0.26667 km/h
3021 22-04-2014 07:00:00 9.13333 C 8.69 g/m*3 9.13 C 0 km/h
3022 22-04-2014 08:00:00 10.125 C 9.27 g/m*3 10.13 C 3.075 km/h
3023 22-04-2014 09:00:00 11.05833 C 9.5 g/m*3 11.06 C 9.40833 km/h
3024 22-04-2014 10:00:00 12.68333 C 9.69 g/m*3 12.68 C 11.025 km/h
3025 22-04-2014 11:00:00 13.48333 C 9.77 g/m*3 13.48 C 7.375 km/h
Sensor: Nr:Datum:Temp:Abs-Feuchte:Windchill:Wind:
Aussen-T/F 3026 22-04-2014 12:00:00 14.11667 C 9.92 g/m*3 14.12 C 6.30833 km/h
3027 22-04-2014 13:00:00 15.80833 C 10.57 g/m*3 15.81 C 4.95 km/h
3028 22-04-2014 14:00:00 17.46667 C 10.54 g/m*3 17.47 C 4.95 km/h
3029 22-04-2014 15:00:00 17.91667 C 10.52 g/m*3 17.92 C 5.625 km/h
3030 22-04-2014 16:00:00 18.51667 C 10.58 g/m*3 18.52 C 4.95833 km/h
3031 22-04-2014 17:00:00 18.85 C 10.61 g/m*3 18.85 C 5.35 km/h
3032 22-04-2014 18:00:00 19.23333 C 10.27 g/m*3 19.23 C 6.44167 km/h
3033 22-04-2014 19:00:00 18.55833 C 10.44 g/m*3 18.56 C 3.73333 km/h
3034 22-04-2014 20:00:00 14.325 C 10.36 g/m*3 14.33 C 4.4 km/h
3035 22-04-2014 21:00:00 12.59167 C 9.78 g/m*3 12.59 C 1.33333 km/h
3036 22-04-2014 22:00:00 12.05833 C 9.63 g/m*3 12.06 C 2.4 km/h
3037 22-04-2014 23:00:00 11.16667 C 9.35 g/m*3 11.17 C 0 km/h
3038 23-04-2014 00:00:00 10.3 C 8.99 g/m*3 10.3 C 0 km/h
3039 23-04-2014 01:00:00 9.64167 C 8.72 g/m*3 9.64 C 0 km/h
3040 23-04-2014 02:00:00 9.01667 C 8.41 g/m*3 9.02 C 0 km/h
3041 23-04-2014 03:00:00 8.41667 C 8.15 g/m*3 8.42 C 0 km/h
3042 23-04-2014 04:00:00 7.74167 C 7.81 g/m*3 7.74 C 0 km/h
3043 23-04-2014 05:00:00 7.40833 C 7.64 g/m*3 7.41 C 0 km/h
3044 23-04-2014 06:00:00 7.29167 C 7.63 g/m*3 7.29 C 0 km/h
3045 23-04-2014 07:00:00 7.625 C 7.83 g/m*3 7.63 C 0.66667 km/h
3046 23-04-2014 08:00:00 8.11667 C 8.08 g/m*3 8.12 C 0 km/h
3047 23-04-2014 09:00:00 9.75833 C 8.96 g/m*3 9.76 C 0.66667 km/h
3048 23-04-2014 10:00:00 11.53333 C 9.77 g/m*3 11.53 C 0.13333 km/h
3049 23-04-2014 11:00:00 14.34167 C 10.78 g/m*3 14.34 C 0.26667 km/h
3050 23-04-2014 12:00:00 15.90833 C 11.73 g/m*3 15.91 C 0.93333 km/h
Sensor: Nr:Datum:Temp:Abs-Feuchte:Windchill:Wind:
Aussen-T/F 3051 23-04-2014 13:00:00 18.74167 C 10.98 g/m*3 18.74 C 3.88333 km/h
3052 23-04-2014 14:00:00 19.14167 C 11.15 g/m*3 19.14 C 1.875 km/h
3053 23-04-2014 15:00:00 19.55 C 10.49 g/m*3 19.55 C 4.13333 km/h
3054 23-04-2014 16:00:00 21.05 C 9.02 g/m*3 21.05 C 6.025 km/h
3055 23-04-2014 17:00:00 22.55 C 8.71 g/m*3 22.55 C 7.64167 km/h
3056 23-04-2014 18:00:00 22.175 C 9.02 g/m*3 22.18 C 5.75 km/h
3057 23-04-2014 19:00:00 19.95833 C 9.78 g/m*3 19.96 C 3.75 km/h
3058 23-04-2014 20:00:00 15.60833 C 10 g/m*3 15.61 C 2.53333 km/h
3059 23-04-2014 21:00:00 13.31667 C 9.23 g/m*3 13.32 C 1.2 km/h
3060 23-04-2014 22:00:00 12.1 C 9.05 g/m*3 12.1 C 0 km/h
3061 23-04-2014 23:00:00 11.25833 C 8.85 g/m*3 11.26 C 0 km/h
3062 24-04-2014 00:00:00 10.83333 C 8.91 g/m*3 10.83 C 0 km/h
3063 24-04-2014 01:00:00 10.96667 C 8.99 g/m*3 10.97 C 0 km/h
3064 24-04-2014 02:00:00 10.58333 C 8.82 g/m*3 10.58 C 0 km/h
3065 24-04-2014 03:00:00 10.04167 C 8.68 g/m*3 10.04 C 0 km/h
3066 24-04-2014 04:00:00 10.23333 C 8.88 g/m*3 10.23 C 0 km/h
3067 24-04-2014 05:00:00 10.25833 C 8.99 g/m*3 10.26 C 0 km/h
3068 24-04-2014 06:00:00 10.49167 C 9.21 g/m*3 10.49 C 0.13333 km/h
3069 24-04-2014 07:00:00 10.7 C 9.42 g/m*3 10.7 C 0.13333 km/h
3070 24-04-2014 08:00:00 11.20833 C 9.74 g/m*3 11.21 C 0 km/h
3071 24-04-2014 09:00:00 12.48333 C 10.48 g/m*3 12.48 C 0.13333 km/h
3072 24-04-2014 10:00:00 14.45833 C 11.12 g/m*3 14.46 C 0.26667 km/h
3073 24-04-2014 11:00:00 16.79167 C 11.9 g/m*3 16.79 C 2.93333 km/h
3074 24-04-2014 12:00:00 19.06667 C 12.67 g/m*3 19.07 C 3.86667 km/h
3075 24-04-2014 13:00:00 22.275 C 12.73 g/m*3 22.28 C 4.675 km/h
Sensor: Nr:Datum:Temp:Abs-Feuchte:Windchill:Wind:
Aussen-T/F 3076 24-04-2014 14:00:00 23.28333 C 10.22 g/m*3 23.28 C 8.06667 km/h
3077 24-04-2014 15:00:00 23.49167 C 9.86 g/m*3 23.49 C 6.575 km/h
3078 24-04-2014 16:00:00 24.73333 C 9.51 g/m*3 24.73 C 10.475 km/h
3079 24-04-2014 17:00:00 23.71667 C 9.62 g/m*3 23.72 C 5.21667 km/h
3080 24-04-2014 18:00:00 20.55833 C 10.36 g/m*3 20.56 C 7.24167 km/h
3081 24-04-2014 19:00:00 17.89167 C 11.08 g/m*3 17.89 C 1.06667 km/h
3082 24-04-2014 20:00:00 15.88333 C 10.63 g/m*3 15.88 C 0.53333 km/h
3083 24-04-2014 21:00:00 14.4 C 10.17 g/m*3 14.4 C 1.6 km/h
3084 24-04-2014 22:00:00 13.4 C 9.96 g/m*3 13.4 C 0.13333 km/h
3085 24-04-2014 23:00:00 12.45833 C 9.81 g/m*3 12.46 C 0 km/h
3086 25-04-2014 00:00:00 11.80833 C 9.67 g/m*3 11.81 C 0 km/h
3087 25-04-2014 01:00:00 11.45833 C 9.56 g/m*3 11.46 C 0 km/h
3088 25-04-2014 02:00:00 11.1 C 9.35 g/m*3 11.1 C 0 km/h
3089 25-04-2014 03:00:00 10.69167 C 9.17 g/m*3 10.69 C 0 km/h
3090 25-04-2014 04:00:00 10.925 C 9.31 g/m*3 10.93 C 0 km/h
3091 25-04-2014 05:00:00 11.03333 C 9.35 g/m*3 11.03 C 0.13333 km/h
3092 25-04-2014 06:00:00 10.54167 C 9.18 g/m*3 10.54 C 0 km/h
3093 25-04-2014 07:00:00 10.70833 C 9.39 g/m*3 10.71 C 0 km/h
3094 25-04-2014 08:00:00 11.95833 C 10.11 g/m*3 11.96 C 1.6 km/h
3095 25-04-2014 09:00:00 13.86667 C 10.68 g/m*3 13.87 C 3.33333 km/h
3096 25-04-2014 10:00:00 16.21667 C 11.03 g/m*3 16.22 C 9.01667 km/h
3097 25-04-2014 11:00:00 18.75833 C 11.47 g/m*3 18.76 C 7.925 km/h
3098 25-04-2014 12:00:00 21.04167 C 11.43 g/m*3 21.04 C 9.95 km/h
3099 25-04-2014 13:00:00 22.96667 C 11.21 g/m*3 22.97 C 9.7 km/h
3100 25-04-2014 14:00:00 23.475 C 11.12 g/m*3 23.48 C 7.40833 km/h
Sensor: Nr:Datum:Temp:Abs-Feuchte:Windchill:Wind:
Aussen-T/F 3101 25-04-2014 15:00:00 23.99167 C 10.62 g/m*3 23.99 C 5.90833 km/h
3102 25-04-2014 16:00:00 26.625 C 9.39 g/m*3 26.63 C 7.25 km/h
3103 25-04-2014 17:00:00 26.08333 C 8.09 g/m*3 26.08 C 6.58333 km/h
3104 25-04-2014 18:00:00 21.55833 C 10.91 g/m*3 21.56 C 1.73333 km/h
3105 25-04-2014 19:00:00 19.58333 C 10.81 g/m*3 19.58 C 2.8 km/h
3106 25-04-2014 20:00:00 18.575 C 10.49 g/m*3 18.58 C 2.53333 km/h
3107 25-04-2014 21:00:00 17.525 C 10.15 g/m*3 17.52 C 2.26667 km/h
3108 25-04-2014 22:00:00 15.98333 C 10.09 g/m*3 15.98 C 0.53333 km/h
3109 25-04-2014 23:00:00 14.7 C 9.75 g/m*3 14.7 C 2 km/h
3110 26-04-2014 00:00:00 14.85833 C 9.94 g/m*3 14.86 C 1.73333 km/h
3111 26-04-2014 01:00:00 14.475 C 9.91 g/m*3 14.48 C 5.1 km/h
3112 26-04-2014 02:00:00 14.45 C 9.95 g/m*3 14.45 C 4.275 km/h
3113 26-04-2014 03:00:00 13.43333 C 9.78 g/m*3 13.43 C 0.53333 km/h
3114 26-04-2014 04:00:00 12.75833 C 9.65 g/m*3 12.76 C 0.26667 km/h
3115 26-04-2014 05:00:00 12.73333 C 9.6 g/m*3 12.73 C 0.4 km/h
3116 26-04-2014 06:00:00 11.975 C 9.43 g/m*3 11.98 C 0 km/h
3117 26-04-2014 07:00:00 12.23333 C 9.61 g/m*3 12.23 C 0 km/h
3118 26-04-2014 08:00:00 12.96667 C 9.71 g/m*3 12.97 C 2.26667 km/h
3119 26-04-2014 09:00:00 13.95 C 9.91 g/m*3 13.95 C 2.53333 km/h
3120 26-04-2014 10:00:00 15.3 C 9.98 g/m*3 15.3 C 3.33333 km/h
3121 26-04-2014 11:00:00 16.625 C 9.87 g/m*3 16.63 C 4.53333 km/h
3122 26-04-2014 12:00:00 18.125 C 9.23 g/m*3 18.13 C 3.86667 km/h
3123 26-04-2014 13:00:00 19.63333 C 9.67 g/m*3 19.63 C 4.8 km/h
3124 26-04-2014 14:00:00 20.16667 C 9.09 g/m*3 20.17 C 5.9 km/h
3125 26-04-2014 15:00:00 20.61667 C 8.15 g/m*3 20.62 C 8.86667 km/h
Sensor: Nr:Datum:Temp:Abs-Feuchte:Windchill:Wind:
Aussen-T/F 3126 26-04-2014 16:00:00 18.64167 C 8.46 g/m*3 18.64 C 3.46667 km/h
3127 26-04-2014 17:00:00 17.625 C 9.68 g/m*3 17.63 C 1.6 km/h
3128 26-04-2014 18:00:00 16.525 C 9.73 g/m*3 16.52 C 1.6 km/h
3129 26-04-2014 19:00:00 16.025 C 8.76 g/m*3 16.02 C 3.75 km/h
3130 26-04-2014 20:00:00 13.83333 C 9.54 g/m*3 13.83 C 1.73333 km/h
3131 26-04-2014 21:00:00 13.075 C 9.58 g/m*3 13.08 C 1.2 km/h
3132 26-04-2014 22:00:00 12.40833 C 9.74 g/m*3 12.41 C 0.4 km/h
3133 26-04-2014 23:00:00 12.36667 C 9.75 g/m*3 12.37 C 0.26667 km/h
3134 27-04-2014 00:00:00 12.78333 C 9.79 g/m*3 12.78 C 2.66667 km/h
3135 27-04-2014 01:00:00 12.79167 C 9.84 g/m*3 12.79 C 2.53333 km/h
3136 27-04-2014 02:00:00 12.51667 C 9.75 g/m*3 12.52 C 2.26667 km/h
3137 27-04-2014 03:00:00 12.3 C 9.84 g/m*3 12.3 C 0.53333 km/h
3138 27-04-2014 04:00:00 11.875 C 9.9 g/m*3 11.88 C 1.73333 km/h
3139 27-04-2014 05:00:00 11.46667 C 9.75 g/m*3 11.47 C 0.53333 km/h
3140 27-04-2014 06:00:00 11.15833 C 9.65 g/m*3 11.16 C 0 km/h
3141 27-04-2014 07:00:00 11.01667 C 9.62 g/m*3 11.02 C 0.4 km/h
3142 27-04-2014 08:00:00 10.93333 C 9.57 g/m*3 10.93 C 0.66667 km/h
3143 27-04-2014 09:00:00 11.23333 C 9.72 g/m*3 11.23 C 2.13333 km/h
3144 27-04-2014 10:00:00 11.95833 C 9.81 g/m*3 11.96 C 4.15 km/h
3145 27-04-2014 11:00:00 12.88333 C 9.93 g/m*3 12.88 C 4.40833 km/h
3146 27-04-2014 12:00:00 14.19167 C 9.98 g/m*3 14.19 C 8.06667 km/h
3147 27-04-2014 13:00:00 15.43333 C 9.45 g/m*3 15.43 C 10.09167 km/h
3148 27-04-2014 14:00:00 16.23333 C 8.69 g/m*3 16.23 C 9.95 km/h
3149 27-04-2014 15:00:00 15.70833 C 8.4 g/m*3 15.71 C 7.25 km/h
3150 27-04-2014 16:00:00 15.35 C 8.27 g/m*3 15.35 C 3.88333 km/h
Sensor: Nr:Datum:Temp:Abs-Feuchte:Windchill:Wind:
Aussen-T/F 3151 27-04-2014 17:00:00 15.75833 C 8.22 g/m*3 15.76 C 5.35 km/h
3152 27-04-2014 18:00:00 17.9 C 7.75 g/m*3 17.9 C 9.00833 km/h
3153 27-04-2014 19:00:00 16.90833 C 8.59 g/m*3